<?xml version="1.0" encoding="UTF-8" ?>
<gpx xmlns="http://www.topografix.com/GPX/1/1" version="1.1" creator="RouteGadget GPS Tracking" xmlns:xsi="http://www.w3.org/2001/XMLSchema-instance" xmlns:tp1="http://www.garmin.com/xmlschemas/TrackPointExtension/v1" xsi:schemaLocation="http://www.topografix.com/GPX/1/1 http://www.topografix.com/GPX/1/1/gpx.xsd http://www.garmin.com/xmlschemas/TrackPointExtension/v1 http://www.garmin.com/xmlschemas/TrackPointExtensionv1.xsd">
<trk>
<trkseg><trkpt lat="61.111905" lon="26.008463">
<time>2020-09-12T08:45:49Z</time>
</trkpt>
<trkpt lat="61.111904" lon="26.008463">
<time>2020-09-12T08:45:50Z</time>
</trkpt>
<trkpt lat="61.111903" lon="26.008464">
<time>2020-09-12T08:45:51Z</time>
</trkpt>
<trkpt lat="61.111902" lon="26.008462">
<time>2020-09-12T08:45:52Z</time>
</trkpt>
<trkpt lat="61.1119" lon="26.008463">
<time>2020-09-12T08:45:53Z</time>
</trkpt>
<trkpt lat="61.1119" lon="26.008464">
<time>2020-09-12T08:45:54Z</time>
</trkpt>
<trkpt lat="61.111899" lon="26.008465">
<time>2020-09-12T08:45:55Z</time>
</trkpt>
<trkpt lat="61.111899" lon="26.008466">
<time>2020-09-12T08:45:56Z</time>
</trkpt>
<trkpt lat="61.111898" lon="26.008467">
<time>2020-09-12T08:45:57Z</time>
</trkpt>
<trkpt lat="61.111897" lon="26.008467">
<time>2020-09-12T08:45:58Z</time>
</trkpt>
<trkpt lat="61.111897" lon="26.008468">
<time>2020-09-12T08:45:59Z</time>
</trkpt>
<trkpt lat="61.111894" lon="26.008478">
<time>2020-09-12T08:46:00Z</time>
</trkpt>
<trkpt lat="61.111882" lon="26.008512">
<time>2020-09-12T08:46:01Z</time>
</trkpt>
<trkpt lat="61.111864" lon="26.008567">
<time>2020-09-12T08:46:02Z</time>
</trkpt>
<trkpt lat="61.111838" lon="26.008651">
<time>2020-09-12T08:46:03Z</time>
</trkpt>
<trkpt lat="61.111805" lon="26.008755">
<time>2020-09-12T08:46:04Z</time>
</trkpt>
<trkpt lat="61.111769" lon="26.008872">
<time>2020-09-12T08:46:05Z</time>
</trkpt>
<trkpt lat="61.11173" lon="26.008999">
<time>2020-09-12T08:46:06Z</time>
</trkpt>
<trkpt lat="61.11169" lon="26.009136">
<time>2020-09-12T08:46:07Z</time>
</trkpt>
<trkpt lat="61.111649" lon="26.009271">
<time>2020-09-12T08:46:08Z</time>
</trkpt>
<trkpt lat="61.111616" lon="26.00941">
<time>2020-09-12T08:46:09Z</time>
</trkpt>
<trkpt lat="61.111586" lon="26.009558">
<time>2020-09-12T08:46:10Z</time>
</trkpt>
<trkpt lat="61.111549" lon="26.009682">
<time>2020-09-12T08:46:11Z</time>
</trkpt>
<trkpt lat="61.111504" lon="26.009773">
<time>2020-09-12T08:46:12Z</time>
</trkpt>
<trkpt lat="61.111452" lon="26.00985">
<time>2020-09-12T08:46:13Z</time>
</trkpt>
<trkpt lat="61.111402" lon="26.009916">
<time>2020-09-12T08:46:14Z</time>
</trkpt>
<trkpt lat="61.111353" lon="26.009982">
<time>2020-09-12T08:46:15Z</time>
</trkpt>
<trkpt lat="61.111299" lon="26.010063">
<time>2020-09-12T08:46:16Z</time>
</trkpt>
<trkpt lat="61.111245" lon="26.010153">
<time>2020-09-12T08:46:17Z</time>
</trkpt>
<trkpt lat="61.111193" lon="26.010245">
<time>2020-09-12T08:46:18Z</time>
</trkpt>
<trkpt lat="61.111144" lon="26.010346">
<time>2020-09-12T08:46:19Z</time>
</trkpt>
<trkpt lat="61.111092" lon="26.010456">
<time>2020-09-12T08:46:20Z</time>
</trkpt>
<trkpt lat="61.111041" lon="26.010571">
<time>2020-09-12T08:46:21Z</time>
</trkpt>
<trkpt lat="61.110982" lon="26.010693">
<time>2020-09-12T08:46:22Z</time>
</trkpt>
<trkpt lat="61.110918" lon="26.010801">
<time>2020-09-12T08:46:23Z</time>
</trkpt>
<trkpt lat="61.110847" lon="26.010909">
<time>2020-09-12T08:46:24Z</time>
</trkpt>
<trkpt lat="61.110764" lon="26.011007">
<time>2020-09-12T08:46:25Z</time>
</trkpt>
<trkpt lat="61.110676" lon="26.011093">
<time>2020-09-12T08:46:26Z</time>
</trkpt>
<trkpt lat="61.110588" lon="26.011179">
<time>2020-09-12T08:46:27Z</time>
</trkpt>
<trkpt lat="61.110504" lon="26.011265">
<time>2020-09-12T08:46:28Z</time>
</trkpt>
<trkpt lat="61.110411" lon="26.011349">
<time>2020-09-12T08:46:29Z</time>
</trkpt>
<trkpt lat="61.110322" lon="26.011431">
<time>2020-09-12T08:46:30Z</time>
</trkpt>
<trkpt lat="61.110235" lon="26.011477">
<time>2020-09-12T08:46:31Z</time>
</trkpt>
<trkpt lat="61.110158" lon="26.011453">
<time>2020-09-12T08:46:32Z</time>
</trkpt>
<trkpt lat="61.110088" lon="26.011378">
<time>2020-09-12T08:46:33Z</time>
</trkpt>
<trkpt lat="61.110027" lon="26.011273">
<time>2020-09-12T08:46:34Z</time>
</trkpt>
<trkpt lat="61.109967" lon="26.011169">
<time>2020-09-12T08:46:35Z</time>
</trkpt>
<trkpt lat="61.109908" lon="26.011066">
<time>2020-09-12T08:46:36Z</time>
</trkpt>
<trkpt lat="61.10985" lon="26.01097">
<time>2020-09-12T08:46:37Z</time>
</trkpt>
<trkpt lat="61.109789" lon="26.010874">
<time>2020-09-12T08:46:38Z</time>
</trkpt>
<trkpt lat="61.109728" lon="26.010781">
<time>2020-09-12T08:46:39Z</time>
</trkpt>
<trkpt lat="61.109664" lon="26.010688">
<time>2020-09-12T08:46:40Z</time>
</trkpt>
<trkpt lat="61.109602" lon="26.010594">
<time>2020-09-12T08:46:41Z</time>
</trkpt>
<trkpt lat="61.109537" lon="26.010502">
<time>2020-09-12T08:46:42Z</time>
</trkpt>
<trkpt lat="61.109472" lon="26.010411">
<time>2020-09-12T08:46:43Z</time>
</trkpt>
<trkpt lat="61.109407" lon="26.01032">
<time>2020-09-12T08:46:44Z</time>
</trkpt>
<trkpt lat="61.109343" lon="26.010228">
<time>2020-09-12T08:46:45Z</time>
</trkpt>
<trkpt lat="61.109276" lon="26.010141">
<time>2020-09-12T08:46:46Z</time>
</trkpt>
<trkpt lat="61.109208" lon="26.010057">
<time>2020-09-12T08:46:47Z</time>
</trkpt>
<trkpt lat="61.109139" lon="26.00997">
<time>2020-09-12T08:46:48Z</time>
</trkpt>
<trkpt lat="61.109066" lon="26.009871">
<time>2020-09-12T08:46:49Z</time>
</trkpt>
<trkpt lat="61.108994" lon="26.009767">
<time>2020-09-12T08:46:50Z</time>
</trkpt>
<trkpt lat="61.108919" lon="26.009668">
<time>2020-09-12T08:46:51Z</time>
</trkpt>
<trkpt lat="61.108846" lon="26.009573">
<time>2020-09-12T08:46:52Z</time>
</trkpt>
<trkpt lat="61.108777" lon="26.009488">
<time>2020-09-12T08:46:53Z</time>
</trkpt>
<trkpt lat="61.108706" lon="26.009428">
<time>2020-09-12T08:46:54Z</time>
</trkpt>
<trkpt lat="61.10863" lon="26.009384">
<time>2020-09-12T08:46:55Z</time>
</trkpt>
<trkpt lat="61.10855" lon="26.009342">
<time>2020-09-12T08:46:56Z</time>
</trkpt>
<trkpt lat="61.108466" lon="26.00929">
<time>2020-09-12T08:46:57Z</time>
</trkpt>
<trkpt lat="61.108378" lon="26.009218">
<time>2020-09-12T08:46:58Z</time>
</trkpt>
<trkpt lat="61.108294" lon="26.009126">
<time>2020-09-12T08:46:59Z</time>
</trkpt>
<trkpt lat="61.108219" lon="26.009006">
<time>2020-09-12T08:47:00Z</time>
</trkpt>
<trkpt lat="61.108143" lon="26.008897">
<time>2020-09-12T08:47:01Z</time>
</trkpt>
<trkpt lat="61.108065" lon="26.008828">
<time>2020-09-12T08:47:02Z</time>
</trkpt>
<trkpt lat="61.107997" lon="26.008795">
<time>2020-09-12T08:47:03Z</time>
</trkpt>
<trkpt lat="61.107934" lon="26.008808">
<time>2020-09-12T08:47:04Z</time>
</trkpt>
<trkpt lat="61.107875" lon="26.008848">
<time>2020-09-12T08:47:05Z</time>
</trkpt>
<trkpt lat="61.107815" lon="26.00889">
<time>2020-09-12T08:47:06Z</time>
</trkpt>
<trkpt lat="61.107758" lon="26.008944">
<time>2020-09-12T08:47:07Z</time>
</trkpt>
<trkpt lat="61.107706" lon="26.009016">
<time>2020-09-12T08:47:08Z</time>
</trkpt>
<trkpt lat="61.107652" lon="26.009095">
<time>2020-09-12T08:47:09Z</time>
</trkpt>
<trkpt lat="61.107594" lon="26.009188">
<time>2020-09-12T08:47:10Z</time>
</trkpt>
<trkpt lat="61.107529" lon="26.009277">
<time>2020-09-12T08:47:11Z</time>
</trkpt>
<trkpt lat="61.107451" lon="26.009357">
<time>2020-09-12T08:47:12Z</time>
</trkpt>
<trkpt lat="61.107358" lon="26.00943">
<time>2020-09-12T08:47:13Z</time>
</trkpt>
<trkpt lat="61.107263" lon="26.009506">
<time>2020-09-12T08:47:14Z</time>
</trkpt>
<trkpt lat="61.107172" lon="26.00957">
<time>2020-09-12T08:47:15Z</time>
</trkpt>
<trkpt lat="61.10708" lon="26.009642">
<time>2020-09-12T08:47:16Z</time>
</trkpt>
<trkpt lat="61.106994" lon="26.009735">
<time>2020-09-12T08:47:17Z</time>
</trkpt>
<trkpt lat="61.106911" lon="26.009854">
<time>2020-09-12T08:47:18Z</time>
</trkpt>
<trkpt lat="61.106834" lon="26.009998">
<time>2020-09-12T08:47:19Z</time>
</trkpt>
<trkpt lat="61.106776" lon="26.010164">
<time>2020-09-12T08:47:20Z</time>
</trkpt>
<trkpt lat="61.106749" lon="26.010355">
<time>2020-09-12T08:47:21Z</time>
</trkpt>
<trkpt lat="61.106743" lon="26.010544">
<time>2020-09-12T08:47:22Z</time>
</trkpt>
<trkpt lat="61.106745" lon="26.010733">
<time>2020-09-12T08:47:23Z</time>
</trkpt>
<trkpt lat="61.106755" lon="26.010922">
<time>2020-09-12T08:47:24Z</time>
</trkpt>
<trkpt lat="61.106769" lon="26.011114">
<time>2020-09-12T08:47:25Z</time>
</trkpt>
<trkpt lat="61.10677" lon="26.011297">
<time>2020-09-12T08:47:26Z</time>
</trkpt>
<trkpt lat="61.106782" lon="26.011484">
<time>2020-09-12T08:47:27Z</time>
</trkpt>
<trkpt lat="61.106791" lon="26.011661">
<time>2020-09-12T08:47:28Z</time>
</trkpt>
<trkpt lat="61.106799" lon="26.011848">
<time>2020-09-12T08:47:29Z</time>
</trkpt>
<trkpt lat="61.106805" lon="26.012035">
<time>2020-09-12T08:47:30Z</time>
</trkpt>
<trkpt lat="61.106819" lon="26.012216">
<time>2020-09-12T08:47:31Z</time>
</trkpt>
<trkpt lat="61.106836" lon="26.012403">
<time>2020-09-12T08:47:32Z</time>
</trkpt>
<trkpt lat="61.106859" lon="26.012587">
<time>2020-09-12T08:47:33Z</time>
</trkpt>
<trkpt lat="61.106891" lon="26.012762">
<time>2020-09-12T08:47:34Z</time>
</trkpt>
<trkpt lat="61.106932" lon="26.012928">
<time>2020-09-12T08:47:35Z</time>
</trkpt>
<trkpt lat="61.106975" lon="26.013087">
<time>2020-09-12T08:47:36Z</time>
</trkpt>
<trkpt lat="61.107011" lon="26.01324">
<time>2020-09-12T08:47:37Z</time>
</trkpt>
<trkpt lat="61.107035" lon="26.013393">
<time>2020-09-12T08:47:38Z</time>
</trkpt>
<trkpt lat="61.107048" lon="26.013551">
<time>2020-09-12T08:47:39Z</time>
</trkpt>
<trkpt lat="61.107045" lon="26.013698">
<time>2020-09-12T08:47:40Z</time>
</trkpt>
<trkpt lat="61.107016" lon="26.013831">
<time>2020-09-12T08:47:41Z</time>
</trkpt>
<trkpt lat="61.10697" lon="26.013957">
<time>2020-09-12T08:47:42Z</time>
</trkpt>
<trkpt lat="61.106924" lon="26.014073">
<time>2020-09-12T08:47:43Z</time>
</trkpt>
<trkpt lat="61.106874" lon="26.014195">
<time>2020-09-12T08:47:44Z</time>
</trkpt>
<trkpt lat="61.106824" lon="26.014328">
<time>2020-09-12T08:47:45Z</time>
</trkpt>
<trkpt lat="61.10678" lon="26.014465">
<time>2020-09-12T08:47:46Z</time>
</trkpt>
<trkpt lat="61.106739" lon="26.014611">
<time>2020-09-12T08:47:47Z</time>
</trkpt>
<trkpt lat="61.106706" lon="26.014763">
<time>2020-09-12T08:47:48Z</time>
</trkpt>
<trkpt lat="61.106667" lon="26.014921">
<time>2020-09-12T08:47:49Z</time>
</trkpt>
<trkpt lat="61.106634" lon="26.015074">
<time>2020-09-12T08:47:50Z</time>
</trkpt>
<trkpt lat="61.106609" lon="26.015239">
<time>2020-09-12T08:47:51Z</time>
</trkpt>
<trkpt lat="61.106582" lon="26.015406">
<time>2020-09-12T08:47:52Z</time>
</trkpt>
<trkpt lat="61.106557" lon="26.015562">
<time>2020-09-12T08:47:53Z</time>
</trkpt>
<trkpt lat="61.106531" lon="26.015708">
<time>2020-09-12T08:47:54Z</time>
</trkpt>
<trkpt lat="61.10651" lon="26.015858">
<time>2020-09-12T08:47:55Z</time>
</trkpt>
<trkpt lat="61.106485" lon="26.016009">
<time>2020-09-12T08:47:56Z</time>
</trkpt>
<trkpt lat="61.106465" lon="26.016157">
<time>2020-09-12T08:47:57Z</time>
</trkpt>
<trkpt lat="61.106462" lon="26.016322">
<time>2020-09-12T08:47:58Z</time>
</trkpt>
<trkpt lat="61.10647" lon="26.016479">
<time>2020-09-12T08:47:59Z</time>
</trkpt>
<trkpt lat="61.106486" lon="26.016631">
<time>2020-09-12T08:48:00Z</time>
</trkpt>
<trkpt lat="61.106508" lon="26.016759">
<time>2020-09-12T08:48:01Z</time>
</trkpt>
<trkpt lat="61.106536" lon="26.016865">
<time>2020-09-12T08:48:02Z</time>
</trkpt>
<trkpt lat="61.106553" lon="26.016983">
<time>2020-09-12T08:48:03Z</time>
</trkpt>
<trkpt lat="61.106585" lon="26.017102">
<time>2020-09-12T08:48:04Z</time>
</trkpt>
<trkpt lat="61.10662" lon="26.017212">
<time>2020-09-12T08:48:05Z</time>
</trkpt>
<trkpt lat="61.106654" lon="26.017307">
<time>2020-09-12T08:48:06Z</time>
</trkpt>
<trkpt lat="61.106692" lon="26.017384">
<time>2020-09-12T08:48:07Z</time>
</trkpt>
<trkpt lat="61.106734" lon="26.017446">
<time>2020-09-12T08:48:08Z</time>
</trkpt>
<trkpt lat="61.106776" lon="26.017506">
<time>2020-09-12T08:48:09Z</time>
</trkpt>
<trkpt lat="61.106816" lon="26.017558">
<time>2020-09-12T08:48:10Z</time>
</trkpt>
<trkpt lat="61.106853" lon="26.0176">
<time>2020-09-12T08:48:11Z</time>
</trkpt>
<trkpt lat="61.106898" lon="26.017636">
<time>2020-09-12T08:48:12Z</time>
</trkpt>
<trkpt lat="61.106947" lon="26.017686">
<time>2020-09-12T08:48:13Z</time>
</trkpt>
<trkpt lat="61.106983" lon="26.017746">
<time>2020-09-12T08:48:14Z</time>
</trkpt>
<trkpt lat="61.107022" lon="26.017808">
<time>2020-09-12T08:48:15Z</time>
</trkpt>
<trkpt lat="61.107062" lon="26.017879">
<time>2020-09-12T08:48:16Z</time>
</trkpt>
<trkpt lat="61.107099" lon="26.017945">
<time>2020-09-12T08:48:17Z</time>
</trkpt>
<trkpt lat="61.107137" lon="26.018016">
<time>2020-09-12T08:48:18Z</time>
</trkpt>
<trkpt lat="61.107177" lon="26.01809">
<time>2020-09-12T08:48:19Z</time>
</trkpt>
<trkpt lat="61.107222" lon="26.018167">
<time>2020-09-12T08:48:20Z</time>
</trkpt>
<trkpt lat="61.107265" lon="26.018243">
<time>2020-09-12T08:48:21Z</time>
</trkpt>
<trkpt lat="61.107312" lon="26.018313">
<time>2020-09-12T08:48:22Z</time>
</trkpt>
<trkpt lat="61.107367" lon="26.018389">
<time>2020-09-12T08:48:23Z</time>
</trkpt>
<trkpt lat="61.107424" lon="26.018475">
<time>2020-09-12T08:48:24Z</time>
</trkpt>
<trkpt lat="61.107483" lon="26.018566">
<time>2020-09-12T08:48:25Z</time>
</trkpt>
<trkpt lat="61.107545" lon="26.018661">
<time>2020-09-12T08:48:26Z</time>
</trkpt>
<trkpt lat="61.107597" lon="26.018761">
<time>2020-09-12T08:48:27Z</time>
</trkpt>
<trkpt lat="61.107646" lon="26.018863">
<time>2020-09-12T08:48:28Z</time>
</trkpt>
<trkpt lat="61.107692" lon="26.018964">
<time>2020-09-12T08:48:29Z</time>
</trkpt>
<trkpt lat="61.107741" lon="26.019059">
<time>2020-09-12T08:48:30Z</time>
</trkpt>
<trkpt lat="61.107791" lon="26.019152">
<time>2020-09-12T08:48:31Z</time>
</trkpt>
<trkpt lat="61.107844" lon="26.019242">
<time>2020-09-12T08:48:32Z</time>
</trkpt>
<trkpt lat="61.107896" lon="26.019332">
<time>2020-09-12T08:48:33Z</time>
</trkpt>
<trkpt lat="61.107953" lon="26.019427">
<time>2020-09-12T08:48:34Z</time>
</trkpt>
<trkpt lat="61.10801" lon="26.01952">
<time>2020-09-12T08:48:35Z</time>
</trkpt>
<trkpt lat="61.10807" lon="26.019612">
<time>2020-09-12T08:48:36Z</time>
</trkpt>
<trkpt lat="61.108129" lon="26.019699">
<time>2020-09-12T08:48:37Z</time>
</trkpt>
<trkpt lat="61.108189" lon="26.019785">
<time>2020-09-12T08:48:38Z</time>
</trkpt>
<trkpt lat="61.108249" lon="26.019872">
<time>2020-09-12T08:48:39Z</time>
</trkpt>
<trkpt lat="61.108308" lon="26.019963">
<time>2020-09-12T08:48:40Z</time>
</trkpt>
<trkpt lat="61.108362" lon="26.020059">
<time>2020-09-12T08:48:41Z</time>
</trkpt>
<trkpt lat="61.108416" lon="26.020156">
<time>2020-09-12T08:48:42Z</time>
</trkpt>
<trkpt lat="61.108469" lon="26.020258">
<time>2020-09-12T08:48:43Z</time>
</trkpt>
<trkpt lat="61.108525" lon="26.020365">
<time>2020-09-12T08:48:44Z</time>
</trkpt>
<trkpt lat="61.10858" lon="26.020484">
<time>2020-09-12T08:48:45Z</time>
</trkpt>
<trkpt lat="61.108625" lon="26.020607">
<time>2020-09-12T08:48:46Z</time>
</trkpt>
<trkpt lat="61.108655" lon="26.020733">
<time>2020-09-12T08:48:47Z</time>
</trkpt>
<trkpt lat="61.108679" lon="26.020864">
<time>2020-09-12T08:48:48Z</time>
</trkpt>
<trkpt lat="61.108699" lon="26.021003">
<time>2020-09-12T08:48:49Z</time>
</trkpt>
<trkpt lat="61.108711" lon="26.021146">
<time>2020-09-12T08:48:50Z</time>
</trkpt>
<trkpt lat="61.108714" lon="26.021295">
<time>2020-09-12T08:48:51Z</time>
</trkpt>
<trkpt lat="61.108718" lon="26.021442">
<time>2020-09-12T08:48:52Z</time>
</trkpt>
<trkpt lat="61.108715" lon="26.021581">
<time>2020-09-12T08:48:53Z</time>
</trkpt>
<trkpt lat="61.108716" lon="26.021714">
<time>2020-09-12T08:48:54Z</time>
</trkpt>
<trkpt lat="61.108711" lon="26.021836">
<time>2020-09-12T08:48:55Z</time>
</trkpt>
<trkpt lat="61.108701" lon="26.021949">
<time>2020-09-12T08:48:56Z</time>
</trkpt>
<trkpt lat="61.108673" lon="26.022058">
<time>2020-09-12T08:48:57Z</time>
</trkpt>
<trkpt lat="61.108629" lon="26.022148">
<time>2020-09-12T08:48:58Z</time>
</trkpt>
<trkpt lat="61.108593" lon="26.022237">
<time>2020-09-12T08:48:59Z</time>
</trkpt>
<trkpt lat="61.108565" lon="26.022357">
<time>2020-09-12T08:49:00Z</time>
</trkpt>
<trkpt lat="61.108547" lon="26.022471">
<time>2020-09-12T08:49:01Z</time>
</trkpt>
<trkpt lat="61.108526" lon="26.022596">
<time>2020-09-12T08:49:02Z</time>
</trkpt>
<trkpt lat="61.108502" lon="26.022729">
<time>2020-09-12T08:49:03Z</time>
</trkpt>
<trkpt lat="61.108484" lon="26.022867">
<time>2020-09-12T08:49:04Z</time>
</trkpt>
<trkpt lat="61.108475" lon="26.022998">
<time>2020-09-12T08:49:05Z</time>
</trkpt>
<trkpt lat="61.10846" lon="26.023136">
<time>2020-09-12T08:49:06Z</time>
</trkpt>
<trkpt lat="61.108465" lon="26.023264">
<time>2020-09-12T08:49:07Z</time>
</trkpt>
<trkpt lat="61.108473" lon="26.0234">
<time>2020-09-12T08:49:08Z</time>
</trkpt>
<trkpt lat="61.108483" lon="26.02355">
<time>2020-09-12T08:49:09Z</time>
</trkpt>
<trkpt lat="61.108502" lon="26.02369">
<time>2020-09-12T08:49:10Z</time>
</trkpt>
<trkpt lat="61.10852" lon="26.023833">
<time>2020-09-12T08:49:11Z</time>
</trkpt>
<trkpt lat="61.10854" lon="26.02397">
<time>2020-09-12T08:49:12Z</time>
</trkpt>
<trkpt lat="61.10856" lon="26.02412">
<time>2020-09-12T08:49:13Z</time>
</trkpt>
<trkpt lat="61.108565" lon="26.02428">
<time>2020-09-12T08:49:14Z</time>
</trkpt>
<trkpt lat="61.108552" lon="26.024433">
<time>2020-09-12T08:49:15Z</time>
</trkpt>
<trkpt lat="61.108525" lon="26.024586">
<time>2020-09-12T08:49:16Z</time>
</trkpt>
<trkpt lat="61.108493" lon="26.024733">
<time>2020-09-12T08:49:17Z</time>
</trkpt>
<trkpt lat="61.108466" lon="26.024874">
<time>2020-09-12T08:49:18Z</time>
</trkpt>
<trkpt lat="61.108438" lon="26.025009">
<time>2020-09-12T08:49:19Z</time>
</trkpt>
<trkpt lat="61.108407" lon="26.025127">
<time>2020-09-12T08:49:20Z</time>
</trkpt>
<trkpt lat="61.108373" lon="26.02523">
<time>2020-09-12T08:49:21Z</time>
</trkpt>
<trkpt lat="61.108329" lon="26.025327">
<time>2020-09-12T08:49:22Z</time>
</trkpt>
<trkpt lat="61.108275" lon="26.025408">
<time>2020-09-12T08:49:23Z</time>
</trkpt>
<trkpt lat="61.108216" lon="26.025494">
<time>2020-09-12T08:49:24Z</time>
</trkpt>
<trkpt lat="61.108159" lon="26.02557">
<time>2020-09-12T08:49:25Z</time>
</trkpt>
<trkpt lat="61.108102" lon="26.025658">
<time>2020-09-12T08:49:26Z</time>
</trkpt>
<trkpt lat="61.108041" lon="26.025771">
<time>2020-09-12T08:49:27Z</time>
</trkpt>
<trkpt lat="61.107985" lon="26.025886">
<time>2020-09-12T08:49:28Z</time>
</trkpt>
<trkpt lat="61.107935" lon="26.026003">
<time>2020-09-12T08:49:29Z</time>
</trkpt>
<trkpt lat="61.107886" lon="26.026123">
<time>2020-09-12T08:49:30Z</time>
</trkpt>
<trkpt lat="61.107827" lon="26.026237">
<time>2020-09-12T08:49:31Z</time>
</trkpt>
<trkpt lat="61.107767" lon="26.026342">
<time>2020-09-12T08:49:32Z</time>
</trkpt>
<trkpt lat="61.107699" lon="26.026439">
<time>2020-09-12T08:49:33Z</time>
</trkpt>
<trkpt lat="61.107613" lon="26.026526">
<time>2020-09-12T08:49:34Z</time>
</trkpt>
<trkpt lat="61.107535" lon="26.026611">
<time>2020-09-12T08:49:35Z</time>
</trkpt>
<trkpt lat="61.10745" lon="26.026685">
<time>2020-09-12T08:49:36Z</time>
</trkpt>
<trkpt lat="61.107365" lon="26.026728">
<time>2020-09-12T08:49:37Z</time>
</trkpt>
<trkpt lat="61.107282" lon="26.026749">
<time>2020-09-12T08:49:38Z</time>
</trkpt>
<trkpt lat="61.107192" lon="26.026764">
<time>2020-09-12T08:49:39Z</time>
</trkpt>
<trkpt lat="61.107104" lon="26.026763">
<time>2020-09-12T08:49:40Z</time>
</trkpt>
<trkpt lat="61.107014" lon="26.026743">
<time>2020-09-12T08:49:41Z</time>
</trkpt>
<trkpt lat="61.106924" lon="26.0267">
<time>2020-09-12T08:49:42Z</time>
</trkpt>
<trkpt lat="61.106829" lon="26.02665">
<time>2020-09-12T08:49:43Z</time>
</trkpt>
<trkpt lat="61.106759" lon="26.026591">
<time>2020-09-12T08:49:44Z</time>
</trkpt>
<trkpt lat="61.106688" lon="26.026525">
<time>2020-09-12T08:49:45Z</time>
</trkpt>
<trkpt lat="61.106616" lon="26.02644">
<time>2020-09-12T08:49:46Z</time>
</trkpt>
<trkpt lat="61.106555" lon="26.026343">
<time>2020-09-12T08:49:47Z</time>
</trkpt>
<trkpt lat="61.106487" lon="26.026235">
<time>2020-09-12T08:49:48Z</time>
</trkpt>
<trkpt lat="61.106418" lon="26.026127">
<time>2020-09-12T08:49:49Z</time>
</trkpt>
<trkpt lat="61.106348" lon="26.026024">
<time>2020-09-12T08:49:50Z</time>
</trkpt>
<trkpt lat="61.10628" lon="26.025924">
<time>2020-09-12T08:49:51Z</time>
</trkpt>
<trkpt lat="61.106212" lon="26.025833">
<time>2020-09-12T08:49:52Z</time>
</trkpt>
<trkpt lat="61.106141" lon="26.025742">
<time>2020-09-12T08:49:53Z</time>
</trkpt>
<trkpt lat="61.106069" lon="26.025681">
<time>2020-09-12T08:49:54Z</time>
</trkpt>
<trkpt lat="61.106002" lon="26.025661">
<time>2020-09-12T08:49:55Z</time>
</trkpt>
<trkpt lat="61.105944" lon="26.02569">
<time>2020-09-12T08:49:56Z</time>
</trkpt>
<trkpt lat="61.10589" lon="26.025765">
<time>2020-09-12T08:49:57Z</time>
</trkpt>
<trkpt lat="61.105866" lon="26.025884">
<time>2020-09-12T08:49:58Z</time>
</trkpt>
<trkpt lat="61.105865" lon="26.026021">
<time>2020-09-12T08:49:59Z</time>
</trkpt>
<trkpt lat="61.105873" lon="26.026161">
<time>2020-09-12T08:50:00Z</time>
</trkpt>
<trkpt lat="61.105892" lon="26.026304">
<time>2020-09-12T08:50:01Z</time>
</trkpt>
<trkpt lat="61.105912" lon="26.026443">
<time>2020-09-12T08:50:02Z</time>
</trkpt>
<trkpt lat="61.105925" lon="26.026599">
<time>2020-09-12T08:50:03Z</time>
</trkpt>
<trkpt lat="61.10594" lon="26.026762">
<time>2020-09-12T08:50:04Z</time>
</trkpt>
<trkpt lat="61.105955" lon="26.026925">
<time>2020-09-12T08:50:05Z</time>
</trkpt>
<trkpt lat="61.10597" lon="26.027073">
<time>2020-09-12T08:50:06Z</time>
</trkpt>
<trkpt lat="61.105985" lon="26.027223">
<time>2020-09-12T08:50:07Z</time>
</trkpt>
<trkpt lat="61.106003" lon="26.02737">
<time>2020-09-12T08:50:08Z</time>
</trkpt>
<trkpt lat="61.10602" lon="26.027515">
<time>2020-09-12T08:50:09Z</time>
</trkpt>
<trkpt lat="61.106039" lon="26.027667">
<time>2020-09-12T08:50:10Z</time>
</trkpt>
<trkpt lat="61.106072" lon="26.027806">
<time>2020-09-12T08:50:11Z</time>
</trkpt>
<trkpt lat="61.10611" lon="26.027939">
<time>2020-09-12T08:50:12Z</time>
</trkpt>
<trkpt lat="61.106155" lon="26.028052">
<time>2020-09-12T08:50:13Z</time>
</trkpt>
<trkpt lat="61.106202" lon="26.028148">
<time>2020-09-12T08:50:14Z</time>
</trkpt>
<trkpt lat="61.106241" lon="26.02824">
<time>2020-09-12T08:50:15Z</time>
</trkpt>
<trkpt lat="61.106281" lon="26.028326">
<time>2020-09-12T08:50:16Z</time>
</trkpt>
<trkpt lat="61.106318" lon="26.028405">
<time>2020-09-12T08:50:17Z</time>
</trkpt>
<trkpt lat="61.106346" lon="26.028479">
<time>2020-09-12T08:50:18Z</time>
</trkpt>
<trkpt lat="61.106373" lon="26.028553">
<time>2020-09-12T08:50:19Z</time>
</trkpt>
<trkpt lat="61.106377" lon="26.028631">
<time>2020-09-12T08:50:20Z</time>
</trkpt>
<trkpt lat="61.106388" lon="26.0287">
<time>2020-09-12T08:50:21Z</time>
</trkpt>
<trkpt lat="61.106399" lon="26.028727">
<time>2020-09-12T08:50:22Z</time>
</trkpt>
<trkpt lat="61.106399" lon="26.028725">
<time>2020-09-12T08:50:23Z</time>
</trkpt>
<trkpt lat="61.106391" lon="26.028708">
<time>2020-09-12T08:50:24Z</time>
</trkpt>
<trkpt lat="61.10638" lon="26.028673">
<time>2020-09-12T08:50:25Z</time>
</trkpt>
<trkpt lat="61.106365" lon="26.028619">
<time>2020-09-12T08:50:26Z</time>
</trkpt>
<trkpt lat="61.106336" lon="26.028553">
<time>2020-09-12T08:50:27Z</time>
</trkpt>
<trkpt lat="61.106294" lon="26.028462">
<time>2020-09-12T08:50:28Z</time>
</trkpt>
<trkpt lat="61.106244" lon="26.028351">
<time>2020-09-12T08:50:29Z</time>
</trkpt>
<trkpt lat="61.106186" lon="26.028229">
<time>2020-09-12T08:50:30Z</time>
</trkpt>
<trkpt lat="61.106128" lon="26.028104">
<time>2020-09-12T08:50:31Z</time>
</trkpt>
<trkpt lat="61.106078" lon="26.02798">
<time>2020-09-12T08:50:32Z</time>
</trkpt>
<trkpt lat="61.106031" lon="26.027843">
<time>2020-09-12T08:50:33Z</time>
</trkpt>
<trkpt lat="61.105995" lon="26.027694">
<time>2020-09-12T08:50:34Z</time>
</trkpt>
<trkpt lat="61.105968" lon="26.027526">
<time>2020-09-12T08:50:35Z</time>
</trkpt>
<trkpt lat="61.105946" lon="26.027356">
<time>2020-09-12T08:50:36Z</time>
</trkpt>
<trkpt lat="61.105932" lon="26.027192">
<time>2020-09-12T08:50:37Z</time>
</trkpt>
<trkpt lat="61.105913" lon="26.027035">
<time>2020-09-12T08:50:38Z</time>
</trkpt>
<trkpt lat="61.105899" lon="26.026886">
<time>2020-09-12T08:50:39Z</time>
</trkpt>
<trkpt lat="61.105886" lon="26.026743">
<time>2020-09-12T08:50:40Z</time>
</trkpt>
<trkpt lat="61.105872" lon="26.026594">
<time>2020-09-12T08:50:41Z</time>
</trkpt>
<trkpt lat="61.105861" lon="26.026453">
<time>2020-09-12T08:50:42Z</time>
</trkpt>
<trkpt lat="61.105843" lon="26.026318">
<time>2020-09-12T08:50:43Z</time>
</trkpt>
<trkpt lat="61.105826" lon="26.026181">
<time>2020-09-12T08:50:44Z</time>
</trkpt>
<trkpt lat="61.105813" lon="26.026036">
<time>2020-09-12T08:50:45Z</time>
</trkpt>
<trkpt lat="61.105815" lon="26.0259">
<time>2020-09-12T08:50:46Z</time>
</trkpt>
<trkpt lat="61.105833" lon="26.02579">
<time>2020-09-12T08:50:47Z</time>
</trkpt>
<trkpt lat="61.105864" lon="26.025709">
<time>2020-09-12T08:50:48Z</time>
</trkpt>
<trkpt lat="61.105895" lon="26.025635">
<time>2020-09-12T08:50:49Z</time>
</trkpt>
<trkpt lat="61.105903" lon="26.025568">
<time>2020-09-12T08:50:50Z</time>
</trkpt>
<trkpt lat="61.10588" lon="26.025513">
<time>2020-09-12T08:50:51Z</time>
</trkpt>
<trkpt lat="61.105845" lon="26.025475">
<time>2020-09-12T08:50:52Z</time>
</trkpt>
<trkpt lat="61.105802" lon="26.025442">
<time>2020-09-12T08:50:53Z</time>
</trkpt>
<trkpt lat="61.105753" lon="26.025411">
<time>2020-09-12T08:50:54Z</time>
</trkpt>
<trkpt lat="61.105694" lon="26.02538">
<time>2020-09-12T08:50:55Z</time>
</trkpt>
<trkpt lat="61.105624" lon="26.02536">
<time>2020-09-12T08:50:56Z</time>
</trkpt>
<trkpt lat="61.105553" lon="26.025359">
<time>2020-09-12T08:50:57Z</time>
</trkpt>
<trkpt lat="61.105481" lon="26.025379">
<time>2020-09-12T08:50:58Z</time>
</trkpt>
<trkpt lat="61.105409" lon="26.025422">
<time>2020-09-12T08:50:59Z</time>
</trkpt>
<trkpt lat="61.10534" lon="26.025485">
<time>2020-09-12T08:51:00Z</time>
</trkpt>
<trkpt lat="61.105267" lon="26.025567">
<time>2020-09-12T08:51:01Z</time>
</trkpt>
<trkpt lat="61.105197" lon="26.025667">
<time>2020-09-12T08:51:02Z</time>
</trkpt>
<trkpt lat="61.105129" lon="26.025762">
<time>2020-09-12T08:51:03Z</time>
</trkpt>
<trkpt lat="61.105061" lon="26.025838">
<time>2020-09-12T08:51:04Z</time>
</trkpt>
<trkpt lat="61.104987" lon="26.025894">
<time>2020-09-12T08:51:05Z</time>
</trkpt>
<trkpt lat="61.104914" lon="26.025926">
<time>2020-09-12T08:51:06Z</time>
</trkpt>
<trkpt lat="61.104842" lon="26.025939">
<time>2020-09-12T08:51:07Z</time>
</trkpt>
<trkpt lat="61.104783" lon="26.025941">
<time>2020-09-12T08:51:08Z</time>
</trkpt>
<trkpt lat="61.104731" lon="26.025928">
<time>2020-09-12T08:51:09Z</time>
</trkpt>
<trkpt lat="61.104679" lon="26.025897">
<time>2020-09-12T08:51:10Z</time>
</trkpt>
<trkpt lat="61.104628" lon="26.025861">
<time>2020-09-12T08:51:11Z</time>
</trkpt>
<trkpt lat="61.104575" lon="26.025811">
<time>2020-09-12T08:51:12Z</time>
</trkpt>
<trkpt lat="61.104526" lon="26.025738">
<time>2020-09-12T08:51:13Z</time>
</trkpt>
<trkpt lat="61.104483" lon="26.025676">
<time>2020-09-12T08:51:14Z</time>
</trkpt>
<trkpt lat="61.104451" lon="26.025611">
<time>2020-09-12T08:51:15Z</time>
</trkpt>
<trkpt lat="61.104405" lon="26.025554">
<time>2020-09-12T08:51:16Z</time>
</trkpt>
<trkpt lat="61.104349" lon="26.025502">
<time>2020-09-12T08:51:17Z</time>
</trkpt>
<trkpt lat="61.10429" lon="26.02547">
<time>2020-09-12T08:51:18Z</time>
</trkpt>
<trkpt lat="61.104232" lon="26.025458">
<time>2020-09-12T08:51:19Z</time>
</trkpt>
<trkpt lat="61.104175" lon="26.025447">
<time>2020-09-12T08:51:20Z</time>
</trkpt>
<trkpt lat="61.104133" lon="26.025427">
<time>2020-09-12T08:51:21Z</time>
</trkpt>
<trkpt lat="61.104092" lon="26.025408">
<time>2020-09-12T08:51:22Z</time>
</trkpt>
<trkpt lat="61.104053" lon="26.025388">
<time>2020-09-12T08:51:23Z</time>
</trkpt>
<trkpt lat="61.104015" lon="26.025364">
<time>2020-09-12T08:51:24Z</time>
</trkpt>
<trkpt lat="61.103976" lon="26.02534">
<time>2020-09-12T08:51:25Z</time>
</trkpt>
<trkpt lat="61.10394" lon="26.025308">
<time>2020-09-12T08:51:26Z</time>
</trkpt>
<trkpt lat="61.103904" lon="26.025275">
<time>2020-09-12T08:51:27Z</time>
</trkpt>
<trkpt lat="61.103866" lon="26.02524">
<time>2020-09-12T08:51:28Z</time>
</trkpt>
<trkpt lat="61.103828" lon="26.025206">
<time>2020-09-12T08:51:29Z</time>
</trkpt>
<trkpt lat="61.103785" lon="26.025169">
<time>2020-09-12T08:51:30Z</time>
</trkpt>
<trkpt lat="61.10374" lon="26.025131">
<time>2020-09-12T08:51:31Z</time>
</trkpt>
<trkpt lat="61.103693" lon="26.025086">
<time>2020-09-12T08:51:32Z</time>
</trkpt>
<trkpt lat="61.103646" lon="26.025046">
<time>2020-09-12T08:51:33Z</time>
</trkpt>
<trkpt lat="61.103601" lon="26.025008">
<time>2020-09-12T08:51:34Z</time>
</trkpt>
<trkpt lat="61.103559" lon="26.024972">
<time>2020-09-12T08:51:35Z</time>
</trkpt>
<trkpt lat="61.103517" lon="26.024939">
<time>2020-09-12T08:51:36Z</time>
</trkpt>
<trkpt lat="61.103481" lon="26.024907">
<time>2020-09-12T08:51:37Z</time>
</trkpt>
<trkpt lat="61.10344" lon="26.024873">
<time>2020-09-12T08:51:38Z</time>
</trkpt>
<trkpt lat="61.103397" lon="26.024841">
<time>2020-09-12T08:51:39Z</time>
</trkpt>
<trkpt lat="61.10335" lon="26.02481">
<time>2020-09-12T08:51:40Z</time>
</trkpt>
<trkpt lat="61.103302" lon="26.024786">
<time>2020-09-12T08:51:41Z</time>
</trkpt>
<trkpt lat="61.103252" lon="26.02477">
<time>2020-09-12T08:51:42Z</time>
</trkpt>
<trkpt lat="61.103192" lon="26.024747">
<time>2020-09-12T08:51:43Z</time>
</trkpt>
<trkpt lat="61.103127" lon="26.024723">
<time>2020-09-12T08:51:44Z</time>
</trkpt>
<trkpt lat="61.103061" lon="26.024696">
<time>2020-09-12T08:51:45Z</time>
</trkpt>
<trkpt lat="61.102996" lon="26.024671">
<time>2020-09-12T08:51:46Z</time>
</trkpt>
<trkpt lat="61.102936" lon="26.024646">
<time>2020-09-12T08:51:47Z</time>
</trkpt>
<trkpt lat="61.102886" lon="26.024616">
<time>2020-09-12T08:51:48Z</time>
</trkpt>
<trkpt lat="61.102832" lon="26.024578">
<time>2020-09-12T08:51:49Z</time>
</trkpt>
<trkpt lat="61.102783" lon="26.02453">
<time>2020-09-12T08:51:50Z</time>
</trkpt>
<trkpt lat="61.102741" lon="26.02445">
<time>2020-09-12T08:51:51Z</time>
</trkpt>
<trkpt lat="61.102707" lon="26.024354">
<time>2020-09-12T08:51:52Z</time>
</trkpt>
<trkpt lat="61.10267" lon="26.024242">
<time>2020-09-12T08:51:53Z</time>
</trkpt>
<trkpt lat="61.102636" lon="26.024128">
<time>2020-09-12T08:51:54Z</time>
</trkpt>
<trkpt lat="61.102601" lon="26.02403">
<time>2020-09-12T08:51:55Z</time>
</trkpt>
<trkpt lat="61.102565" lon="26.023958">
<time>2020-09-12T08:51:56Z</time>
</trkpt>
<trkpt lat="61.102536" lon="26.023883">
<time>2020-09-12T08:51:57Z</time>
</trkpt>
<trkpt lat="61.102503" lon="26.023804">
<time>2020-09-12T08:51:58Z</time>
</trkpt>
<trkpt lat="61.10247" lon="26.023736">
<time>2020-09-12T08:51:59Z</time>
</trkpt>
<trkpt lat="61.102434" lon="26.023673">
<time>2020-09-12T08:52:00Z</time>
</trkpt>
<trkpt lat="61.102396" lon="26.023615">
<time>2020-09-12T08:52:01Z</time>
</trkpt>
<trkpt lat="61.10236" lon="26.023582">
<time>2020-09-12T08:52:02Z</time>
</trkpt>
<trkpt lat="61.102332" lon="26.023594">
<time>2020-09-12T08:52:03Z</time>
</trkpt>
<trkpt lat="61.102327" lon="26.023652">
<time>2020-09-12T08:52:04Z</time>
</trkpt>
<trkpt lat="61.102329" lon="26.023728">
<time>2020-09-12T08:52:05Z</time>
</trkpt>
<trkpt lat="61.102327" lon="26.02382">
<time>2020-09-12T08:52:06Z</time>
</trkpt>
<trkpt lat="61.102327" lon="26.023918">
<time>2020-09-12T08:52:07Z</time>
</trkpt>
<trkpt lat="61.102309" lon="26.024008">
<time>2020-09-12T08:52:08Z</time>
</trkpt>
<trkpt lat="61.102274" lon="26.024091">
<time>2020-09-12T08:52:09Z</time>
</trkpt>
<trkpt lat="61.102219" lon="26.024166">
<time>2020-09-12T08:52:10Z</time>
</trkpt>
<trkpt lat="61.10216" lon="26.024213">
<time>2020-09-12T08:52:11Z</time>
</trkpt>
<trkpt lat="61.102096" lon="26.024247">
<time>2020-09-12T08:52:12Z</time>
</trkpt>
<trkpt lat="61.102038" lon="26.024249">
<time>2020-09-12T08:52:13Z</time>
</trkpt>
<trkpt lat="61.101986" lon="26.024237">
<time>2020-09-12T08:52:14Z</time>
</trkpt>
<trkpt lat="61.101938" lon="26.024213">
<time>2020-09-12T08:52:15Z</time>
</trkpt>
<trkpt lat="61.101894" lon="26.024184">
<time>2020-09-12T08:52:16Z</time>
</trkpt>
<trkpt lat="61.101852" lon="26.02415">
<time>2020-09-12T08:52:17Z</time>
</trkpt>
<trkpt lat="61.101815" lon="26.024113">
<time>2020-09-12T08:52:18Z</time>
</trkpt>
<trkpt lat="61.101773" lon="26.024085">
<time>2020-09-12T08:52:19Z</time>
</trkpt>
<trkpt lat="61.10173" lon="26.024052">
<time>2020-09-12T08:52:20Z</time>
</trkpt>
<trkpt lat="61.101685" lon="26.02401">
<time>2020-09-12T08:52:21Z</time>
</trkpt>
<trkpt lat="61.101634" lon="26.023978">
<time>2020-09-12T08:52:22Z</time>
</trkpt>
<trkpt lat="61.101571" lon="26.023945">
<time>2020-09-12T08:52:23Z</time>
</trkpt>
<trkpt lat="61.101502" lon="26.023919">
<time>2020-09-12T08:52:24Z</time>
</trkpt>
<trkpt lat="61.101434" lon="26.023899">
<time>2020-09-12T08:52:25Z</time>
</trkpt>
<trkpt lat="61.10136" lon="26.02388">
<time>2020-09-12T08:52:26Z</time>
</trkpt>
<trkpt lat="61.101285" lon="26.023864">
<time>2020-09-12T08:52:27Z</time>
</trkpt>
<trkpt lat="61.101212" lon="26.023854">
<time>2020-09-12T08:52:28Z</time>
</trkpt>
<trkpt lat="61.10114" lon="26.023861">
<time>2020-09-12T08:52:29Z</time>
</trkpt>
<trkpt lat="61.101073" lon="26.023873">
<time>2020-09-12T08:52:30Z</time>
</trkpt>
<trkpt lat="61.101006" lon="26.023892">
<time>2020-09-12T08:52:31Z</time>
</trkpt>
<trkpt lat="61.100937" lon="26.023909">
<time>2020-09-12T08:52:32Z</time>
</trkpt>
<trkpt lat="61.100863" lon="26.023937">
<time>2020-09-12T08:52:33Z</time>
</trkpt>
<trkpt lat="61.100778" lon="26.02395">
<time>2020-09-12T08:52:34Z</time>
</trkpt>
<trkpt lat="61.100694" lon="26.023962">
<time>2020-09-12T08:52:35Z</time>
</trkpt>
<trkpt lat="61.100611" lon="26.023986">
<time>2020-09-12T08:52:36Z</time>
</trkpt>
<trkpt lat="61.100533" lon="26.02402">
<time>2020-09-12T08:52:37Z</time>
</trkpt>
<trkpt lat="61.100457" lon="26.02407">
<time>2020-09-12T08:52:38Z</time>
</trkpt>
<trkpt lat="61.100381" lon="26.024108">
<time>2020-09-12T08:52:39Z</time>
</trkpt>
<trkpt lat="61.100304" lon="26.024135">
<time>2020-09-12T08:52:40Z</time>
</trkpt>
<trkpt lat="61.100222" lon="26.024161">
<time>2020-09-12T08:52:41Z</time>
</trkpt>
<trkpt lat="61.10014" lon="26.024184">
<time>2020-09-12T08:52:42Z</time>
</trkpt>
<trkpt lat="61.100057" lon="26.024198">
<time>2020-09-12T08:52:43Z</time>
</trkpt>
<trkpt lat="61.09998" lon="26.024209">
<time>2020-09-12T08:52:44Z</time>
</trkpt>
<trkpt lat="61.099906" lon="26.02423">
<time>2020-09-12T08:52:45Z</time>
</trkpt>
<trkpt lat="61.099838" lon="26.024274">
<time>2020-09-12T08:52:46Z</time>
</trkpt>
<trkpt lat="61.099791" lon="26.024348">
<time>2020-09-12T08:52:47Z</time>
</trkpt>
<trkpt lat="61.099761" lon="26.02445">
<time>2020-09-12T08:52:48Z</time>
</trkpt>
<trkpt lat="61.099719" lon="26.024553">
<time>2020-09-12T08:52:49Z</time>
</trkpt>
<trkpt lat="61.099676" lon="26.024664">
<time>2020-09-12T08:52:50Z</time>
</trkpt>
<trkpt lat="61.099632" lon="26.024775">
<time>2020-09-12T08:52:51Z</time>
</trkpt>
<trkpt lat="61.099592" lon="26.024884">
<time>2020-09-12T08:52:52Z</time>
</trkpt>
<trkpt lat="61.099554" lon="26.024988">
<time>2020-09-12T08:52:53Z</time>
</trkpt>
<trkpt lat="61.099507" lon="26.025085">
<time>2020-09-12T08:52:54Z</time>
</trkpt>
<trkpt lat="61.099452" lon="26.025164">
<time>2020-09-12T08:52:55Z</time>
</trkpt>
<trkpt lat="61.099388" lon="26.025241">
<time>2020-09-12T08:52:56Z</time>
</trkpt>
<trkpt lat="61.099319" lon="26.025314">
<time>2020-09-12T08:52:57Z</time>
</trkpt>
<trkpt lat="61.099245" lon="26.025394">
<time>2020-09-12T08:52:58Z</time>
</trkpt>
<trkpt lat="61.099173" lon="26.025483">
<time>2020-09-12T08:52:59Z</time>
</trkpt>
<trkpt lat="61.099106" lon="26.025583">
<time>2020-09-12T08:53:00Z</time>
</trkpt>
<trkpt lat="61.099047" lon="26.025702">
<time>2020-09-12T08:53:01Z</time>
</trkpt>
<trkpt lat="61.098999" lon="26.025829">
<time>2020-09-12T08:53:02Z</time>
</trkpt>
<trkpt lat="61.098955" lon="26.025976">
<time>2020-09-12T08:53:03Z</time>
</trkpt>
<trkpt lat="61.098917" lon="26.026143">
<time>2020-09-12T08:53:04Z</time>
</trkpt>
<trkpt lat="61.098876" lon="26.026313">
<time>2020-09-12T08:53:05Z</time>
</trkpt>
<trkpt lat="61.098841" lon="26.026477">
<time>2020-09-12T08:53:06Z</time>
</trkpt>
<trkpt lat="61.098824" lon="26.026632">
<time>2020-09-12T08:53:07Z</time>
</trkpt>
<trkpt lat="61.098823" lon="26.026774">
<time>2020-09-12T08:53:08Z</time>
</trkpt>
<trkpt lat="61.098832" lon="26.026911">
<time>2020-09-12T08:53:09Z</time>
</trkpt>
<trkpt lat="61.098846" lon="26.027053">
<time>2020-09-12T08:53:10Z</time>
</trkpt>
<trkpt lat="61.098864" lon="26.027185">
<time>2020-09-12T08:53:11Z</time>
</trkpt>
<trkpt lat="61.098881" lon="26.027313">
<time>2020-09-12T08:53:12Z</time>
</trkpt>
<trkpt lat="61.098901" lon="26.027448">
<time>2020-09-12T08:53:13Z</time>
</trkpt>
<trkpt lat="61.09892" lon="26.027583">
<time>2020-09-12T08:53:14Z</time>
</trkpt>
<trkpt lat="61.098942" lon="26.027729">
<time>2020-09-12T08:53:15Z</time>
</trkpt>
<trkpt lat="61.098969" lon="26.02788">
<time>2020-09-12T08:53:16Z</time>
</trkpt>
<trkpt lat="61.099" lon="26.028048">
<time>2020-09-12T08:53:17Z</time>
</trkpt>
<trkpt lat="61.099039" lon="26.028212">
<time>2020-09-12T08:53:18Z</time>
</trkpt>
<trkpt lat="61.099087" lon="26.028359">
<time>2020-09-12T08:53:19Z</time>
</trkpt>
<trkpt lat="61.099135" lon="26.028491">
<time>2020-09-12T08:53:20Z</time>
</trkpt>
<trkpt lat="61.099182" lon="26.028618">
<time>2020-09-12T08:53:21Z</time>
</trkpt>
<trkpt lat="61.099227" lon="26.028742">
<time>2020-09-12T08:53:22Z</time>
</trkpt>
<trkpt lat="61.099269" lon="26.028864">
<time>2020-09-12T08:53:23Z</time>
</trkpt>
<trkpt lat="61.099308" lon="26.028993">
<time>2020-09-12T08:53:24Z</time>
</trkpt>
<trkpt lat="61.099342" lon="26.029129">
<time>2020-09-12T08:53:25Z</time>
</trkpt>
<trkpt lat="61.099373" lon="26.029261">
<time>2020-09-12T08:53:26Z</time>
</trkpt>
<trkpt lat="61.099395" lon="26.029392">
<time>2020-09-12T08:53:27Z</time>
</trkpt>
<trkpt lat="61.099409" lon="26.029523">
<time>2020-09-12T08:53:28Z</time>
</trkpt>
<trkpt lat="61.09941" lon="26.029648">
<time>2020-09-12T08:53:29Z</time>
</trkpt>
<trkpt lat="61.099413" lon="26.029762">
<time>2020-09-12T08:53:30Z</time>
</trkpt>
<trkpt lat="61.099428" lon="26.02987">
<time>2020-09-12T08:53:31Z</time>
</trkpt>
<trkpt lat="61.099451" lon="26.029975">
<time>2020-09-12T08:53:32Z</time>
</trkpt>
<trkpt lat="61.099482" lon="26.030082">
<time>2020-09-12T08:53:33Z</time>
</trkpt>
<trkpt lat="61.099521" lon="26.030184">
<time>2020-09-12T08:53:34Z</time>
</trkpt>
<trkpt lat="61.099565" lon="26.030287">
<time>2020-09-12T08:53:35Z</time>
</trkpt>
<trkpt lat="61.099613" lon="26.030396">
<time>2020-09-12T08:53:36Z</time>
</trkpt>
<trkpt lat="61.09966" lon="26.030503">
<time>2020-09-12T08:53:37Z</time>
</trkpt>
<trkpt lat="61.099708" lon="26.030609">
<time>2020-09-12T08:53:38Z</time>
</trkpt>
<trkpt lat="61.099762" lon="26.030728">
<time>2020-09-12T08:53:39Z</time>
</trkpt>
<trkpt lat="61.099816" lon="26.030843">
<time>2020-09-12T08:53:40Z</time>
</trkpt>
<trkpt lat="61.099865" lon="26.030963">
<time>2020-09-12T08:53:41Z</time>
</trkpt>
<trkpt lat="61.09991" lon="26.031087">
<time>2020-09-12T08:53:42Z</time>
</trkpt>
<trkpt lat="61.099957" lon="26.031213">
<time>2020-09-12T08:53:43Z</time>
</trkpt>
<trkpt lat="61.100006" lon="26.031334">
<time>2020-09-12T08:53:44Z</time>
</trkpt>
<trkpt lat="61.100054" lon="26.031461">
<time>2020-09-12T08:53:45Z</time>
</trkpt>
<trkpt lat="61.100105" lon="26.03159">
<time>2020-09-12T08:53:46Z</time>
</trkpt>
<trkpt lat="61.100154" lon="26.031717">
<time>2020-09-12T08:53:47Z</time>
</trkpt>
<trkpt lat="61.100206" lon="26.03184">
<time>2020-09-12T08:53:48Z</time>
</trkpt>
<trkpt lat="61.10025" lon="26.031952">
<time>2020-09-12T08:53:49Z</time>
</trkpt>
<trkpt lat="61.100293" lon="26.032071">
<time>2020-09-12T08:53:50Z</time>
</trkpt>
<trkpt lat="61.100325" lon="26.032164">
<time>2020-09-12T08:53:51Z</time>
</trkpt>
<trkpt lat="61.100343" lon="26.032202">
<time>2020-09-12T08:53:52Z</time>
</trkpt>
<trkpt lat="61.100352" lon="26.032203">
<time>2020-09-12T08:53:53Z</time>
</trkpt>
<trkpt lat="61.100348" lon="26.032194">
<time>2020-09-12T08:53:54Z</time>
</trkpt>
<trkpt lat="61.100338" lon="26.032172">
<time>2020-09-12T08:53:55Z</time>
</trkpt>
<trkpt lat="61.100322" lon="26.032134">
<time>2020-09-12T08:53:56Z</time>
</trkpt>
<trkpt lat="61.100299" lon="26.032078">
<time>2020-09-12T08:53:57Z</time>
</trkpt>
<trkpt lat="61.100273" lon="26.031997">
<time>2020-09-12T08:53:58Z</time>
</trkpt>
<trkpt lat="61.100245" lon="26.031905">
<time>2020-09-12T08:53:59Z</time>
</trkpt>
<trkpt lat="61.100206" lon="26.031815">
<time>2020-09-12T08:54:00Z</time>
</trkpt>
<trkpt lat="61.100167" lon="26.031725">
<time>2020-09-12T08:54:01Z</time>
</trkpt>
<trkpt lat="61.100126" lon="26.031632">
<time>2020-09-12T08:54:02Z</time>
</trkpt>
<trkpt lat="61.100081" lon="26.031541">
<time>2020-09-12T08:54:03Z</time>
</trkpt>
<trkpt lat="61.100038" lon="26.031451">
<time>2020-09-12T08:54:04Z</time>
</trkpt>
<trkpt lat="61.1" lon="26.031362">
<time>2020-09-12T08:54:05Z</time>
</trkpt>
<trkpt lat="61.099962" lon="26.031269">
<time>2020-09-12T08:54:06Z</time>
</trkpt>
<trkpt lat="61.099922" lon="26.031173">
<time>2020-09-12T08:54:07Z</time>
</trkpt>
<trkpt lat="61.099882" lon="26.031073">
<time>2020-09-12T08:54:08Z</time>
</trkpt>
<trkpt lat="61.099844" lon="26.030969">
<time>2020-09-12T08:54:09Z</time>
</trkpt>
<trkpt lat="61.0998" lon="26.030864">
<time>2020-09-12T08:54:10Z</time>
</trkpt>
<trkpt lat="61.099753" lon="26.030761">
<time>2020-09-12T08:54:11Z</time>
</trkpt>
<trkpt lat="61.099706" lon="26.030664">
<time>2020-09-12T08:54:12Z</time>
</trkpt>
<trkpt lat="61.099658" lon="26.030567">
<time>2020-09-12T08:54:13Z</time>
</trkpt>
<trkpt lat="61.099609" lon="26.030472">
<time>2020-09-12T08:54:14Z</time>
</trkpt>
<trkpt lat="61.099564" lon="26.030366">
<time>2020-09-12T08:54:15Z</time>
</trkpt>
<trkpt lat="61.099521" lon="26.030257">
<time>2020-09-12T08:54:16Z</time>
</trkpt>
<trkpt lat="61.099474" lon="26.03016">
<time>2020-09-12T08:54:17Z</time>
</trkpt>
<trkpt lat="61.099425" lon="26.030086">
<time>2020-09-12T08:54:18Z</time>
</trkpt>
<trkpt lat="61.099385" lon="26.030084">
<time>2020-09-12T08:54:19Z</time>
</trkpt>
<trkpt lat="61.099357" lon="26.030118">
<time>2020-09-12T08:54:20Z</time>
</trkpt>
<trkpt lat="61.099347" lon="26.030177">
<time>2020-09-12T08:54:21Z</time>
</trkpt>
<trkpt lat="61.099347" lon="26.030263">
<time>2020-09-12T08:54:22Z</time>
</trkpt>
<trkpt lat="61.099349" lon="26.030352">
<time>2020-09-12T08:54:23Z</time>
</trkpt>
<trkpt lat="61.099355" lon="26.03045">
<time>2020-09-12T08:54:24Z</time>
</trkpt>
<trkpt lat="61.099356" lon="26.030556">
<time>2020-09-12T08:54:25Z</time>
</trkpt>
<trkpt lat="61.099353" lon="26.030668">
<time>2020-09-12T08:54:26Z</time>
</trkpt>
<trkpt lat="61.099349" lon="26.030787">
<time>2020-09-12T08:54:27Z</time>
</trkpt>
<trkpt lat="61.099347" lon="26.030907">
<time>2020-09-12T08:54:28Z</time>
</trkpt>
<trkpt lat="61.099348" lon="26.031022">
<time>2020-09-12T08:54:29Z</time>
</trkpt>
<trkpt lat="61.099333" lon="26.031106">
<time>2020-09-12T08:54:30Z</time>
</trkpt>
<trkpt lat="61.09932" lon="26.031163">
<time>2020-09-12T08:54:31Z</time>
</trkpt>
<trkpt lat="61.099324" lon="26.0312">
<time>2020-09-12T08:54:32Z</time>
</trkpt>
<trkpt lat="61.099329" lon="26.031251">
<time>2020-09-12T08:54:33Z</time>
</trkpt>
<trkpt lat="61.099332" lon="26.031325">
<time>2020-09-12T08:54:34Z</time>
</trkpt>
<trkpt lat="61.099334" lon="26.031407">
<time>2020-09-12T08:54:35Z</time>
</trkpt>
<trkpt lat="61.099334" lon="26.031486">
<time>2020-09-12T08:54:36Z</time>
</trkpt>
<trkpt lat="61.099334" lon="26.031563">
<time>2020-09-12T08:54:37Z</time>
</trkpt>
<trkpt lat="61.099335" lon="26.031647">
<time>2020-09-12T08:54:38Z</time>
</trkpt>
<trkpt lat="61.099339" lon="26.031735">
<time>2020-09-12T08:54:39Z</time>
</trkpt>
<trkpt lat="61.09934" lon="26.031825">
<time>2020-09-12T08:54:40Z</time>
</trkpt>
<trkpt lat="61.099342" lon="26.03192">
<time>2020-09-12T08:54:41Z</time>
</trkpt>
<trkpt lat="61.099349" lon="26.032008">
<time>2020-09-12T08:54:42Z</time>
</trkpt>
<trkpt lat="61.099352" lon="26.032113">
<time>2020-09-12T08:54:43Z</time>
</trkpt>
<trkpt lat="61.099353" lon="26.032215">
<time>2020-09-12T08:54:44Z</time>
</trkpt>
<trkpt lat="61.099353" lon="26.032329">
<time>2020-09-12T08:54:45Z</time>
</trkpt>
<trkpt lat="61.09935" lon="26.032446">
<time>2020-09-12T08:54:46Z</time>
</trkpt>
<trkpt lat="61.099345" lon="26.032571">
<time>2020-09-12T08:54:47Z</time>
</trkpt>
<trkpt lat="61.099338" lon="26.03269">
<time>2020-09-12T08:54:48Z</time>
</trkpt>
<trkpt lat="61.099309" lon="26.032815">
<time>2020-09-12T08:54:49Z</time>
</trkpt>
<trkpt lat="61.099266" lon="26.03292">
<time>2020-09-12T08:54:50Z</time>
</trkpt>
<trkpt lat="61.099218" lon="26.032996">
<time>2020-09-12T08:54:51Z</time>
</trkpt>
<trkpt lat="61.099171" lon="26.033038">
<time>2020-09-12T08:54:52Z</time>
</trkpt>
<trkpt lat="61.099131" lon="26.03307">
<time>2020-09-12T08:54:53Z</time>
</trkpt>
<trkpt lat="61.099091" lon="26.033084">
<time>2020-09-12T08:54:54Z</time>
</trkpt>
<trkpt lat="61.099053" lon="26.033099">
<time>2020-09-12T08:54:55Z</time>
</trkpt>
<trkpt lat="61.099019" lon="26.033112">
<time>2020-09-12T08:54:56Z</time>
</trkpt>
<trkpt lat="61.098985" lon="26.033118">
<time>2020-09-12T08:54:57Z</time>
</trkpt>
<trkpt lat="61.09895" lon="26.033109">
<time>2020-09-12T08:54:58Z</time>
</trkpt>
<trkpt lat="61.098903" lon="26.0331">
<time>2020-09-12T08:54:59Z</time>
</trkpt>
<trkpt lat="61.098851" lon="26.033096">
<time>2020-09-12T08:55:00Z</time>
</trkpt>
<trkpt lat="61.098807" lon="26.033087">
<time>2020-09-12T08:55:01Z</time>
</trkpt>
<trkpt lat="61.098769" lon="26.033056">
<time>2020-09-12T08:55:02Z</time>
</trkpt>
<trkpt lat="61.098742" lon="26.032986">
<time>2020-09-12T08:55:03Z</time>
</trkpt>
<trkpt lat="61.098722" lon="26.032891">
<time>2020-09-12T08:55:04Z</time>
</trkpt>
<trkpt lat="61.098701" lon="26.032784">
<time>2020-09-12T08:55:05Z</time>
</trkpt>
<trkpt lat="61.098684" lon="26.032673">
<time>2020-09-12T08:55:06Z</time>
</trkpt>
<trkpt lat="61.098663" lon="26.032572">
<time>2020-09-12T08:55:07Z</time>
</trkpt>
<trkpt lat="61.098643" lon="26.032473">
<time>2020-09-12T08:55:08Z</time>
</trkpt>
<trkpt lat="61.098627" lon="26.032371">
<time>2020-09-12T08:55:09Z</time>
</trkpt>
<trkpt lat="61.098609" lon="26.032263">
<time>2020-09-12T08:55:10Z</time>
</trkpt>
<trkpt lat="61.098595" lon="26.032153">
<time>2020-09-12T08:55:11Z</time>
</trkpt>
<trkpt lat="61.098583" lon="26.032041">
<time>2020-09-12T08:55:12Z</time>
</trkpt>
<trkpt lat="61.098573" lon="26.031928">
<time>2020-09-12T08:55:13Z</time>
</trkpt>
<trkpt lat="61.098571" lon="26.031806">
<time>2020-09-12T08:55:14Z</time>
</trkpt>
<trkpt lat="61.098575" lon="26.031677">
<time>2020-09-12T08:55:15Z</time>
</trkpt>
<trkpt lat="61.098597" lon="26.031547">
<time>2020-09-12T08:55:16Z</time>
</trkpt>
<trkpt lat="61.098634" lon="26.031427">
<time>2020-09-12T08:55:17Z</time>
</trkpt>
<trkpt lat="61.09868" lon="26.031331">
<time>2020-09-12T08:55:18Z</time>
</trkpt>
<trkpt lat="61.098738" lon="26.031242">
<time>2020-09-12T08:55:19Z</time>
</trkpt>
<trkpt lat="61.098796" lon="26.031141">
<time>2020-09-12T08:55:20Z</time>
</trkpt>
<trkpt lat="61.098853" lon="26.031025">
<time>2020-09-12T08:55:21Z</time>
</trkpt>
<trkpt lat="61.0989" lon="26.030893">
<time>2020-09-12T08:55:22Z</time>
</trkpt>
<trkpt lat="61.09894" lon="26.030754">
<time>2020-09-12T08:55:23Z</time>
</trkpt>
<trkpt lat="61.098973" lon="26.030607">
<time>2020-09-12T08:55:24Z</time>
</trkpt>
<trkpt lat="61.099005" lon="26.030455">
<time>2020-09-12T08:55:25Z</time>
</trkpt>
<trkpt lat="61.099037" lon="26.030299">
<time>2020-09-12T08:55:26Z</time>
</trkpt>
<trkpt lat="61.099073" lon="26.03015">
<time>2020-09-12T08:55:27Z</time>
</trkpt>
<trkpt lat="61.099114" lon="26.030008">
<time>2020-09-12T08:55:28Z</time>
</trkpt>
<trkpt lat="61.099146" lon="26.029855">
<time>2020-09-12T08:55:29Z</time>
</trkpt>
<trkpt lat="61.099158" lon="26.029701">
<time>2020-09-12T08:55:30Z</time>
</trkpt>
<trkpt lat="61.099143" lon="26.029554">
<time>2020-09-12T08:55:31Z</time>
</trkpt>
<trkpt lat="61.099121" lon="26.029408">
<time>2020-09-12T08:55:32Z</time>
</trkpt>
<trkpt lat="61.099096" lon="26.029266">
<time>2020-09-12T08:55:33Z</time>
</trkpt>
<trkpt lat="61.099077" lon="26.029114">
<time>2020-09-12T08:55:34Z</time>
</trkpt>
<trkpt lat="61.099063" lon="26.028959">
<time>2020-09-12T08:55:35Z</time>
</trkpt>
<trkpt lat="61.099046" lon="26.028796">
<time>2020-09-12T08:55:36Z</time>
</trkpt>
<trkpt lat="61.099025" lon="26.028628">
<time>2020-09-12T08:55:37Z</time>
</trkpt>
<trkpt lat="61.098999" lon="26.02846">
<time>2020-09-12T08:55:38Z</time>
</trkpt>
<trkpt lat="61.098959" lon="26.028304">
<time>2020-09-12T08:55:39Z</time>
</trkpt>
<trkpt lat="61.098903" lon="26.028182">
<time>2020-09-12T08:55:40Z</time>
</trkpt>
<trkpt lat="61.09884" lon="26.028091">
<time>2020-09-12T08:55:41Z</time>
</trkpt>
<trkpt lat="61.098774" lon="26.02802">
<time>2020-09-12T08:55:42Z</time>
</trkpt>
<trkpt lat="61.098706" lon="26.027955">
<time>2020-09-12T08:55:43Z</time>
</trkpt>
<trkpt lat="61.098639" lon="26.027887">
<time>2020-09-12T08:55:44Z</time>
</trkpt>
<trkpt lat="61.098574" lon="26.027815">
<time>2020-09-12T08:55:45Z</time>
</trkpt>
<trkpt lat="61.09851" lon="26.027753">
<time>2020-09-12T08:55:46Z</time>
</trkpt>
<trkpt lat="61.098446" lon="26.027687">
<time>2020-09-12T08:55:47Z</time>
</trkpt>
<trkpt lat="61.098383" lon="26.027616">
<time>2020-09-12T08:55:48Z</time>
</trkpt>
<trkpt lat="61.098319" lon="26.027539">
<time>2020-09-12T08:55:49Z</time>
</trkpt>
<trkpt lat="61.098257" lon="26.027451">
<time>2020-09-12T08:55:50Z</time>
</trkpt>
<trkpt lat="61.098202" lon="26.027358">
<time>2020-09-12T08:55:51Z</time>
</trkpt>
<trkpt lat="61.098155" lon="26.027247">
<time>2020-09-12T08:55:52Z</time>
</trkpt>
<trkpt lat="61.098119" lon="26.02712">
<time>2020-09-12T08:55:53Z</time>
</trkpt>
<trkpt lat="61.098083" lon="26.026986">
<time>2020-09-12T08:55:54Z</time>
</trkpt>
<trkpt lat="61.098046" lon="26.026855">
<time>2020-09-12T08:55:55Z</time>
</trkpt>
<trkpt lat="61.098007" lon="26.026728">
<time>2020-09-12T08:55:56Z</time>
</trkpt>
<trkpt lat="61.097963" lon="26.026596">
<time>2020-09-12T08:55:57Z</time>
</trkpt>
<trkpt lat="61.097915" lon="26.026469">
<time>2020-09-12T08:55:58Z</time>
</trkpt>
<trkpt lat="61.097865" lon="26.026346">
<time>2020-09-12T08:55:59Z</time>
</trkpt>
<trkpt lat="61.097813" lon="26.026218">
<time>2020-09-12T08:56:00Z</time>
</trkpt>
<trkpt lat="61.097763" lon="26.02609">
<time>2020-09-12T08:56:01Z</time>
</trkpt>
<trkpt lat="61.097714" lon="26.025959">
<time>2020-09-12T08:56:02Z</time>
</trkpt>
<trkpt lat="61.097667" lon="26.025826">
<time>2020-09-12T08:56:03Z</time>
</trkpt>
<trkpt lat="61.09762" lon="26.025693">
<time>2020-09-12T08:56:04Z</time>
</trkpt>
<trkpt lat="61.097573" lon="26.025558">
<time>2020-09-12T08:56:05Z</time>
</trkpt>
<trkpt lat="61.097529" lon="26.025423">
<time>2020-09-12T08:56:06Z</time>
</trkpt>
<trkpt lat="61.097487" lon="26.025294">
<time>2020-09-12T08:56:07Z</time>
</trkpt>
<trkpt lat="61.097441" lon="26.025176">
<time>2020-09-12T08:56:08Z</time>
</trkpt>
<trkpt lat="61.097391" lon="26.02507">
<time>2020-09-12T08:56:09Z</time>
</trkpt>
<trkpt lat="61.097342" lon="26.024966">
<time>2020-09-12T08:56:10Z</time>
</trkpt>
<trkpt lat="61.097296" lon="26.024853">
<time>2020-09-12T08:56:11Z</time>
</trkpt>
<trkpt lat="61.09725" lon="26.024745">
<time>2020-09-12T08:56:12Z</time>
</trkpt>
<trkpt lat="61.097204" lon="26.024628">
<time>2020-09-12T08:56:13Z</time>
</trkpt>
<trkpt lat="61.097159" lon="26.024511">
<time>2020-09-12T08:56:14Z</time>
</trkpt>
<trkpt lat="61.097115" lon="26.024397">
<time>2020-09-12T08:56:15Z</time>
</trkpt>
<trkpt lat="61.09707" lon="26.024283">
<time>2020-09-12T08:56:16Z</time>
</trkpt>
<trkpt lat="61.097024" lon="26.024169">
<time>2020-09-12T08:56:17Z</time>
</trkpt>
<trkpt lat="61.096977" lon="26.024052">
<time>2020-09-12T08:56:18Z</time>
</trkpt>
<trkpt lat="61.096931" lon="26.023935">
<time>2020-09-12T08:56:19Z</time>
</trkpt>
<trkpt lat="61.096885" lon="26.023821">
<time>2020-09-12T08:56:20Z</time>
</trkpt>
<trkpt lat="61.096842" lon="26.023714">
<time>2020-09-12T08:56:21Z</time>
</trkpt>
<trkpt lat="61.0968" lon="26.02361">
<time>2020-09-12T08:56:22Z</time>
</trkpt>
<trkpt lat="61.096759" lon="26.023509">
<time>2020-09-12T08:56:23Z</time>
</trkpt>
<trkpt lat="61.096716" lon="26.023412">
<time>2020-09-12T08:56:24Z</time>
</trkpt>
<trkpt lat="61.096673" lon="26.023317">
<time>2020-09-12T08:56:25Z</time>
</trkpt>
<trkpt lat="61.096629" lon="26.023215">
<time>2020-09-12T08:56:26Z</time>
</trkpt>
<trkpt lat="61.096585" lon="26.023116">
<time>2020-09-12T08:56:27Z</time>
</trkpt>
<trkpt lat="61.096538" lon="26.023006">
<time>2020-09-12T08:56:28Z</time>
</trkpt>
<trkpt lat="61.09649" lon="26.022894">
<time>2020-09-12T08:56:29Z</time>
</trkpt>
<trkpt lat="61.096441" lon="26.022787">
<time>2020-09-12T08:56:30Z</time>
</trkpt>
<trkpt lat="61.096388" lon="26.022684">
<time>2020-09-12T08:56:31Z</time>
</trkpt>
<trkpt lat="61.096333" lon="26.022578">
<time>2020-09-12T08:56:32Z</time>
</trkpt>
<trkpt lat="61.09628" lon="26.022475">
<time>2020-09-12T08:56:33Z</time>
</trkpt>
<trkpt lat="61.096231" lon="26.022368">
<time>2020-09-12T08:56:34Z</time>
</trkpt>
<trkpt lat="61.096183" lon="26.022258">
<time>2020-09-12T08:56:35Z</time>
</trkpt>
<trkpt lat="61.096131" lon="26.022142">
<time>2020-09-12T08:56:36Z</time>
</trkpt>
<trkpt lat="61.09608" lon="26.022024">
<time>2020-09-12T08:56:37Z</time>
</trkpt>
<trkpt lat="61.096032" lon="26.021904">
<time>2020-09-12T08:56:38Z</time>
</trkpt>
<trkpt lat="61.095986" lon="26.021783">
<time>2020-09-12T08:56:39Z</time>
</trkpt>
<trkpt lat="61.095943" lon="26.021661">
<time>2020-09-12T08:56:40Z</time>
</trkpt>
<trkpt lat="61.095904" lon="26.021531">
<time>2020-09-12T08:56:41Z</time>
</trkpt>
<trkpt lat="61.095868" lon="26.021393">
<time>2020-09-12T08:56:42Z</time>
</trkpt>
<trkpt lat="61.095843" lon="26.021241">
<time>2020-09-12T08:56:43Z</time>
</trkpt>
<trkpt lat="61.095829" lon="26.021084">
<time>2020-09-12T08:56:44Z</time>
</trkpt>
<trkpt lat="61.095829" lon="26.020933">
<time>2020-09-12T08:56:45Z</time>
</trkpt>
<trkpt lat="61.095838" lon="26.020791">
<time>2020-09-12T08:56:46Z</time>
</trkpt>
<trkpt lat="61.095858" lon="26.020656">
<time>2020-09-12T08:56:47Z</time>
</trkpt>
<trkpt lat="61.095881" lon="26.020526">
<time>2020-09-12T08:56:48Z</time>
</trkpt>
<trkpt lat="61.095908" lon="26.020408">
<time>2020-09-12T08:56:49Z</time>
</trkpt>
<trkpt lat="61.095939" lon="26.0203">
<time>2020-09-12T08:56:50Z</time>
</trkpt>
<trkpt lat="61.095966" lon="26.020198">
<time>2020-09-12T08:56:51Z</time>
</trkpt>
<trkpt lat="61.095995" lon="26.020098">
<time>2020-09-12T08:56:52Z</time>
</trkpt>
<trkpt lat="61.096026" lon="26.020008">
<time>2020-09-12T08:56:53Z</time>
</trkpt>
<trkpt lat="61.09606" lon="26.019918">
<time>2020-09-12T08:56:54Z</time>
</trkpt>
<trkpt lat="61.096099" lon="26.019822">
<time>2020-09-12T08:56:55Z</time>
</trkpt>
<trkpt lat="61.096145" lon="26.019731">
<time>2020-09-12T08:56:56Z</time>
</trkpt>
<trkpt lat="61.096188" lon="26.019636">
<time>2020-09-12T08:56:57Z</time>
</trkpt>
<trkpt lat="61.096225" lon="26.019539">
<time>2020-09-12T08:56:58Z</time>
</trkpt>
<trkpt lat="61.096258" lon="26.019434">
<time>2020-09-12T08:56:59Z</time>
</trkpt>
<trkpt lat="61.096289" lon="26.019322">
<time>2020-09-12T08:57:00Z</time>
</trkpt>
<trkpt lat="61.096324" lon="26.019212">
<time>2020-09-12T08:57:01Z</time>
</trkpt>
<trkpt lat="61.096358" lon="26.019106">
<time>2020-09-12T08:57:02Z</time>
</trkpt>
<trkpt lat="61.096395" lon="26.018995">
<time>2020-09-12T08:57:03Z</time>
</trkpt>
<trkpt lat="61.096428" lon="26.018889">
<time>2020-09-12T08:57:04Z</time>
</trkpt>
<trkpt lat="61.096458" lon="26.018789">
<time>2020-09-12T08:57:05Z</time>
</trkpt>
<trkpt lat="61.096488" lon="26.018686">
<time>2020-09-12T08:57:06Z</time>
</trkpt>
<trkpt lat="61.096519" lon="26.018594">
<time>2020-09-12T08:57:07Z</time>
</trkpt>
<trkpt lat="61.096549" lon="26.018501">
<time>2020-09-12T08:57:08Z</time>
</trkpt>
<trkpt lat="61.096575" lon="26.018409">
<time>2020-09-12T08:57:09Z</time>
</trkpt>
<trkpt lat="61.096602" lon="26.018326">
<time>2020-09-12T08:57:10Z</time>
</trkpt>
<trkpt lat="61.096625" lon="26.018261">
<time>2020-09-12T08:57:11Z</time>
</trkpt>
<trkpt lat="61.096642" lon="26.018214">
<time>2020-09-12T08:57:12Z</time>
</trkpt>
<trkpt lat="61.09666" lon="26.018153">
<time>2020-09-12T08:57:13Z</time>
</trkpt>
<trkpt lat="61.096678" lon="26.018082">
<time>2020-09-12T08:57:14Z</time>
</trkpt>
<trkpt lat="61.0967" lon="26.018008">
<time>2020-09-12T08:57:15Z</time>
</trkpt>
<trkpt lat="61.09673" lon="26.017966">
<time>2020-09-12T08:57:16Z</time>
</trkpt>
<trkpt lat="61.096759" lon="26.01792">
<time>2020-09-12T08:57:17Z</time>
</trkpt>
<trkpt lat="61.096791" lon="26.017929">
<time>2020-09-12T08:57:18Z</time>
</trkpt>
<trkpt lat="61.09682" lon="26.017971">
<time>2020-09-12T08:57:19Z</time>
</trkpt>
<trkpt lat="61.096847" lon="26.018042">
<time>2020-09-12T08:57:20Z</time>
</trkpt>
<trkpt lat="61.096881" lon="26.018131">
<time>2020-09-12T08:57:21Z</time>
</trkpt>
<trkpt lat="61.096919" lon="26.01822">
<time>2020-09-12T08:57:22Z</time>
</trkpt>
<trkpt lat="61.096956" lon="26.018316">
<time>2020-09-12T08:57:23Z</time>
</trkpt>
<trkpt lat="61.096996" lon="26.018417">
<time>2020-09-12T08:57:24Z</time>
</trkpt>
<trkpt lat="61.097038" lon="26.018516">
<time>2020-09-12T08:57:25Z</time>
</trkpt>
<trkpt lat="61.097079" lon="26.018618">
<time>2020-09-12T08:57:26Z</time>
</trkpt>
<trkpt lat="61.097116" lon="26.018722">
<time>2020-09-12T08:57:27Z</time>
</trkpt>
<trkpt lat="61.097149" lon="26.018831">
<time>2020-09-12T08:57:28Z</time>
</trkpt>
<trkpt lat="61.097183" lon="26.018943">
<time>2020-09-12T08:57:29Z</time>
</trkpt>
<trkpt lat="61.097218" lon="26.019043">
<time>2020-09-12T08:57:30Z</time>
</trkpt>
<trkpt lat="61.097248" lon="26.019112">
<time>2020-09-12T08:57:31Z</time>
</trkpt>
<trkpt lat="61.097264" lon="26.019124">
<time>2020-09-12T08:57:32Z</time>
</trkpt>
<trkpt lat="61.097269" lon="26.019122">
<time>2020-09-12T08:57:33Z</time>
</trkpt>
<trkpt lat="61.097263" lon="26.019109">
<time>2020-09-12T08:57:34Z</time>
</trkpt>
<trkpt lat="61.097251" lon="26.019085">
<time>2020-09-12T08:57:35Z</time>
</trkpt>
<trkpt lat="61.097237" lon="26.019049">
<time>2020-09-12T08:57:36Z</time>
</trkpt>
<trkpt lat="61.097218" lon="26.018997">
<time>2020-09-12T08:57:37Z</time>
</trkpt>
<trkpt lat="61.097196" lon="26.018922">
<time>2020-09-12T08:57:38Z</time>
</trkpt>
<trkpt lat="61.09717" lon="26.01883">
<time>2020-09-12T08:57:39Z</time>
</trkpt>
<trkpt lat="61.097145" lon="26.01874">
<time>2020-09-12T08:57:40Z</time>
</trkpt>
<trkpt lat="61.097114" lon="26.018651">
<time>2020-09-12T08:57:41Z</time>
</trkpt>
<trkpt lat="61.097077" lon="26.018559">
<time>2020-09-12T08:57:42Z</time>
</trkpt>
<trkpt lat="61.097047" lon="26.018468">
<time>2020-09-12T08:57:43Z</time>
</trkpt>
<trkpt lat="61.097012" lon="26.018371">
<time>2020-09-12T08:57:44Z</time>
</trkpt>
<trkpt lat="61.096977" lon="26.01828">
<time>2020-09-12T08:57:45Z</time>
</trkpt>
<trkpt lat="61.096941" lon="26.018198">
<time>2020-09-12T08:57:46Z</time>
</trkpt>
<trkpt lat="61.096905" lon="26.018111">
<time>2020-09-12T08:57:47Z</time>
</trkpt>
<trkpt lat="61.096871" lon="26.018023">
<time>2020-09-12T08:57:48Z</time>
</trkpt>
<trkpt lat="61.096838" lon="26.017923">
<time>2020-09-12T08:57:49Z</time>
</trkpt>
<trkpt lat="61.09681" lon="26.017821">
<time>2020-09-12T08:57:50Z</time>
</trkpt>
<trkpt lat="61.096796" lon="26.01772">
<time>2020-09-12T08:57:51Z</time>
</trkpt>
<trkpt lat="61.096798" lon="26.017611">
<time>2020-09-12T08:57:52Z</time>
</trkpt>
<trkpt lat="61.096816" lon="26.0175">
<time>2020-09-12T08:57:53Z</time>
</trkpt>
<trkpt lat="61.096841" lon="26.017377">
<time>2020-09-12T08:57:54Z</time>
</trkpt>
<trkpt lat="61.096871" lon="26.017256">
<time>2020-09-12T08:57:55Z</time>
</trkpt>
<trkpt lat="61.096899" lon="26.017142">
<time>2020-09-12T08:57:56Z</time>
</trkpt>
<trkpt lat="61.096922" lon="26.017012">
<time>2020-09-12T08:57:57Z</time>
</trkpt>
<trkpt lat="61.096947" lon="26.016883">
<time>2020-09-12T08:57:58Z</time>
</trkpt>
<trkpt lat="61.096964" lon="26.016756">
<time>2020-09-12T08:57:59Z</time>
</trkpt>
<trkpt lat="61.096972" lon="26.016632">
<time>2020-09-12T08:58:00Z</time>
</trkpt>
<trkpt lat="61.096975" lon="26.016496">
<time>2020-09-12T08:58:01Z</time>
</trkpt>
<trkpt lat="61.096977" lon="26.016349">
<time>2020-09-12T08:58:02Z</time>
</trkpt>
<trkpt lat="61.096972" lon="26.016202">
<time>2020-09-12T08:58:03Z</time>
</trkpt>
<trkpt lat="61.096964" lon="26.016055">
<time>2020-09-12T08:58:04Z</time>
</trkpt>
<trkpt lat="61.096955" lon="26.015909">
<time>2020-09-12T08:58:05Z</time>
</trkpt>
<trkpt lat="61.096942" lon="26.015769">
<time>2020-09-12T08:58:06Z</time>
</trkpt>
<trkpt lat="61.096929" lon="26.015633">
<time>2020-09-12T08:58:07Z</time>
</trkpt>
<trkpt lat="61.096912" lon="26.015496">
<time>2020-09-12T08:58:08Z</time>
</trkpt>
<trkpt lat="61.096894" lon="26.01535">
<time>2020-09-12T08:58:09Z</time>
</trkpt>
<trkpt lat="61.096879" lon="26.015205">
<time>2020-09-12T08:58:10Z</time>
</trkpt>
<trkpt lat="61.096871" lon="26.015064">
<time>2020-09-12T08:58:11Z</time>
</trkpt>
<trkpt lat="61.096882" lon="26.014932">
<time>2020-09-12T08:58:12Z</time>
</trkpt>
<trkpt lat="61.096904" lon="26.014796">
<time>2020-09-12T08:58:13Z</time>
</trkpt>
<trkpt lat="61.096923" lon="26.014672">
<time>2020-09-12T08:58:14Z</time>
</trkpt>
<trkpt lat="61.096937" lon="26.014549">
<time>2020-09-12T08:58:15Z</time>
</trkpt>
<trkpt lat="61.096945" lon="26.014422">
<time>2020-09-12T08:58:16Z</time>
</trkpt>
<trkpt lat="61.096949" lon="26.014297">
<time>2020-09-12T08:58:17Z</time>
</trkpt>
<trkpt lat="61.096948" lon="26.014176">
<time>2020-09-12T08:58:18Z</time>
</trkpt>
<trkpt lat="61.09694" lon="26.014053">
<time>2020-09-12T08:58:19Z</time>
</trkpt>
<trkpt lat="61.09693" lon="26.013932">
<time>2020-09-12T08:58:20Z</time>
</trkpt>
<trkpt lat="61.096927" lon="26.013812">
<time>2020-09-12T08:58:21Z</time>
</trkpt>
<trkpt lat="61.09694" lon="26.013694">
<time>2020-09-12T08:58:22Z</time>
</trkpt>
<trkpt lat="61.096964" lon="26.01358">
<time>2020-09-12T08:58:23Z</time>
</trkpt>
<trkpt lat="61.096997" lon="26.013459">
<time>2020-09-12T08:58:24Z</time>
</trkpt>
<trkpt lat="61.097043" lon="26.013333">
<time>2020-09-12T08:58:25Z</time>
</trkpt>
<trkpt lat="61.097089" lon="26.013204">
<time>2020-09-12T08:58:26Z</time>
</trkpt>
<trkpt lat="61.09713" lon="26.013074">
<time>2020-09-12T08:58:27Z</time>
</trkpt>
<trkpt lat="61.097157" lon="26.012943">
<time>2020-09-12T08:58:28Z</time>
</trkpt>
<trkpt lat="61.097167" lon="26.012817">
<time>2020-09-12T08:58:29Z</time>
</trkpt>
<trkpt lat="61.09718" lon="26.012705">
<time>2020-09-12T08:58:30Z</time>
</trkpt>
<trkpt lat="61.097201" lon="26.012608">
<time>2020-09-12T08:58:31Z</time>
</trkpt>
<trkpt lat="61.097229" lon="26.01252">
<time>2020-09-12T08:58:32Z</time>
</trkpt>
<trkpt lat="61.097258" lon="26.012414">
<time>2020-09-12T08:58:33Z</time>
</trkpt>
<trkpt lat="61.09728" lon="26.012301">
<time>2020-09-12T08:58:34Z</time>
</trkpt>
<trkpt lat="61.097305" lon="26.012196">
<time>2020-09-12T08:58:35Z</time>
</trkpt>
<trkpt lat="61.097327" lon="26.012091">
<time>2020-09-12T08:58:36Z</time>
</trkpt>
<trkpt lat="61.097352" lon="26.011996">
<time>2020-09-12T08:58:37Z</time>
</trkpt>
<trkpt lat="61.097378" lon="26.011902">
<time>2020-09-12T08:58:38Z</time>
</trkpt>
<trkpt lat="61.097405" lon="26.011802">
<time>2020-09-12T08:58:39Z</time>
</trkpt>
<trkpt lat="61.097432" lon="26.011692">
<time>2020-09-12T08:58:40Z</time>
</trkpt>
<trkpt lat="61.097457" lon="26.01158">
<time>2020-09-12T08:58:41Z</time>
</trkpt>
<trkpt lat="61.097489" lon="26.011472">
<time>2020-09-12T08:58:42Z</time>
</trkpt>
<trkpt lat="61.09752" lon="26.011372">
<time>2020-09-12T08:58:43Z</time>
</trkpt>
<trkpt lat="61.097553" lon="26.011263">
<time>2020-09-12T08:58:44Z</time>
</trkpt>
<trkpt lat="61.097579" lon="26.011146">
<time>2020-09-12T08:58:45Z</time>
</trkpt>
<trkpt lat="61.097591" lon="26.011042">
<time>2020-09-12T08:58:46Z</time>
</trkpt>
<trkpt lat="61.097591" lon="26.010942">
<time>2020-09-12T08:58:47Z</time>
</trkpt>
<trkpt lat="61.097578" lon="26.010848">
<time>2020-09-12T08:58:48Z</time>
</trkpt>
<trkpt lat="61.09756" lon="26.010748">
<time>2020-09-12T08:58:49Z</time>
</trkpt>
<trkpt lat="61.097535" lon="26.010643">
<time>2020-09-12T08:58:50Z</time>
</trkpt>
<trkpt lat="61.097508" lon="26.010545">
<time>2020-09-12T08:58:51Z</time>
</trkpt>
<trkpt lat="61.097486" lon="26.010443">
<time>2020-09-12T08:58:52Z</time>
</trkpt>
<trkpt lat="61.097456" lon="26.010343">
<time>2020-09-12T08:58:53Z</time>
</trkpt>
<trkpt lat="61.097432" lon="26.010239">
<time>2020-09-12T08:58:54Z</time>
</trkpt>
<trkpt lat="61.097422" lon="26.01012">
<time>2020-09-12T08:58:55Z</time>
</trkpt>
<trkpt lat="61.097432" lon="26.010015">
<time>2020-09-12T08:58:56Z</time>
</trkpt>
<trkpt lat="61.097453" lon="26.009919">
<time>2020-09-12T08:58:57Z</time>
</trkpt>
<trkpt lat="61.097476" lon="26.009822">
<time>2020-09-12T08:58:58Z</time>
</trkpt>
<trkpt lat="61.097506" lon="26.009716">
<time>2020-09-12T08:58:59Z</time>
</trkpt>
<trkpt lat="61.097535" lon="26.009604">
<time>2020-09-12T08:59:00Z</time>
</trkpt>
<trkpt lat="61.097571" lon="26.009488">
<time>2020-09-12T08:59:01Z</time>
</trkpt>
<trkpt lat="61.097607" lon="26.009378">
<time>2020-09-12T08:59:02Z</time>
</trkpt>
<trkpt lat="61.097641" lon="26.009271">
<time>2020-09-12T08:59:03Z</time>
</trkpt>
<trkpt lat="61.097676" lon="26.009159">
<time>2020-09-12T08:59:04Z</time>
</trkpt>
<trkpt lat="61.09771" lon="26.009053">
<time>2020-09-12T08:59:05Z</time>
</trkpt>
<trkpt lat="61.097742" lon="26.008939">
<time>2020-09-12T08:59:06Z</time>
</trkpt>
<trkpt lat="61.09778" lon="26.008846">
<time>2020-09-12T08:59:07Z</time>
</trkpt>
<trkpt lat="61.09782" lon="26.008771">
<time>2020-09-12T08:59:08Z</time>
</trkpt>
<trkpt lat="61.097869" lon="26.00871">
<time>2020-09-12T08:59:09Z</time>
</trkpt>
<trkpt lat="61.097921" lon="26.008685">
<time>2020-09-12T08:59:10Z</time>
</trkpt>
<trkpt lat="61.097973" lon="26.008668">
<time>2020-09-12T08:59:11Z</time>
</trkpt>
<trkpt lat="61.098031" lon="26.008668">
<time>2020-09-12T08:59:12Z</time>
</trkpt>
<trkpt lat="61.098092" lon="26.008666">
<time>2020-09-12T08:59:13Z</time>
</trkpt>
<trkpt lat="61.098151" lon="26.008658">
<time>2020-09-12T08:59:14Z</time>
</trkpt>
<trkpt lat="61.098216" lon="26.00866">
<time>2020-09-12T08:59:15Z</time>
</trkpt>
<trkpt lat="61.098274" lon="26.008664">
<time>2020-09-12T08:59:16Z</time>
</trkpt>
<trkpt lat="61.098341" lon="26.008681">
<time>2020-09-12T08:59:17Z</time>
</trkpt>
<trkpt lat="61.098406" lon="26.008695">
<time>2020-09-12T08:59:18Z</time>
</trkpt>
<trkpt lat="61.098472" lon="26.008704">
<time>2020-09-12T08:59:19Z</time>
</trkpt>
<trkpt lat="61.098529" lon="26.008681">
<time>2020-09-12T08:59:20Z</time>
</trkpt>
<trkpt lat="61.09858" lon="26.008606">
<time>2020-09-12T08:59:21Z</time>
</trkpt>
<trkpt lat="61.098622" lon="26.008495">
<time>2020-09-12T08:59:22Z</time>
</trkpt>
<trkpt lat="61.098664" lon="26.008377">
<time>2020-09-12T08:59:23Z</time>
</trkpt>
<trkpt lat="61.098706" lon="26.008244">
<time>2020-09-12T08:59:24Z</time>
</trkpt>
<trkpt lat="61.098746" lon="26.008108">
<time>2020-09-12T08:59:25Z</time>
</trkpt>
<trkpt lat="61.098783" lon="26.007971">
<time>2020-09-12T08:59:26Z</time>
</trkpt>
<trkpt lat="61.098811" lon="26.007831">
<time>2020-09-12T08:59:27Z</time>
</trkpt>
<trkpt lat="61.098833" lon="26.007689">
<time>2020-09-12T08:59:28Z</time>
</trkpt>
<trkpt lat="61.098849" lon="26.007544">
<time>2020-09-12T08:59:29Z</time>
</trkpt>
<trkpt lat="61.098861" lon="26.007395">
<time>2020-09-12T08:59:30Z</time>
</trkpt>
<trkpt lat="61.098873" lon="26.007247">
<time>2020-09-12T08:59:31Z</time>
</trkpt>
<trkpt lat="61.098882" lon="26.007102">
<time>2020-09-12T08:59:32Z</time>
</trkpt>
<trkpt lat="61.098892" lon="26.006966">
<time>2020-09-12T08:59:33Z</time>
</trkpt>
<trkpt lat="61.098902" lon="26.006827">
<time>2020-09-12T08:59:34Z</time>
</trkpt>
<trkpt lat="61.098911" lon="26.006686">
<time>2020-09-12T08:59:35Z</time>
</trkpt>
<trkpt lat="61.098917" lon="26.006541">
<time>2020-09-12T08:59:36Z</time>
</trkpt>
<trkpt lat="61.09892" lon="26.006394">
<time>2020-09-12T08:59:37Z</time>
</trkpt>
<trkpt lat="61.098924" lon="26.006252">
<time>2020-09-12T08:59:38Z</time>
</trkpt>
<trkpt lat="61.098935" lon="26.006113">
<time>2020-09-12T08:59:39Z</time>
</trkpt>
<trkpt lat="61.098941" lon="26.005965">
<time>2020-09-12T08:59:40Z</time>
</trkpt>
<trkpt lat="61.098944" lon="26.005822">
<time>2020-09-12T08:59:41Z</time>
</trkpt>
<trkpt lat="61.098949" lon="26.005677">
<time>2020-09-12T08:59:42Z</time>
</trkpt>
<trkpt lat="61.098955" lon="26.005538">
<time>2020-09-12T08:59:43Z</time>
</trkpt>
<trkpt lat="61.098962" lon="26.005397">
<time>2020-09-12T08:59:44Z</time>
</trkpt>
<trkpt lat="61.098967" lon="26.005254">
<time>2020-09-12T08:59:45Z</time>
</trkpt>
<trkpt lat="61.098972" lon="26.005117">
<time>2020-09-12T08:59:46Z</time>
</trkpt>
<trkpt lat="61.098978" lon="26.004976">
<time>2020-09-12T08:59:47Z</time>
</trkpt>
<trkpt lat="61.098984" lon="26.004836">
<time>2020-09-12T08:59:48Z</time>
</trkpt>
<trkpt lat="61.098989" lon="26.004698">
<time>2020-09-12T08:59:49Z</time>
</trkpt>
<trkpt lat="61.098993" lon="26.004571">
<time>2020-09-12T08:59:50Z</time>
</trkpt>
<trkpt lat="61.099003" lon="26.004448">
<time>2020-09-12T08:59:51Z</time>
</trkpt>
<trkpt lat="61.09903" lon="26.004348">
<time>2020-09-12T08:59:52Z</time>
</trkpt>
<trkpt lat="61.09908" lon="26.004287">
<time>2020-09-12T08:59:53Z</time>
</trkpt>
<trkpt lat="61.099137" lon="26.004258">
<time>2020-09-12T08:59:54Z</time>
</trkpt>
<trkpt lat="61.0992" lon="26.004241">
<time>2020-09-12T08:59:55Z</time>
</trkpt>
<trkpt lat="61.099267" lon="26.004228">
<time>2020-09-12T08:59:56Z</time>
</trkpt>
<trkpt lat="61.099338" lon="26.004214">
<time>2020-09-12T08:59:57Z</time>
</trkpt>
<trkpt lat="61.09941" lon="26.004202">
<time>2020-09-12T08:59:58Z</time>
</trkpt>
<trkpt lat="61.099481" lon="26.004192">
<time>2020-09-12T08:59:59Z</time>
</trkpt>
<trkpt lat="61.099554" lon="26.004176">
<time>2020-09-12T09:00:00Z</time>
</trkpt>
<trkpt lat="61.099631" lon="26.00416">
<time>2020-09-12T09:00:01Z</time>
</trkpt>
<trkpt lat="61.099707" lon="26.004136">
<time>2020-09-12T09:00:02Z</time>
</trkpt>
<trkpt lat="61.099781" lon="26.004116">
<time>2020-09-12T09:00:03Z</time>
</trkpt>
<trkpt lat="61.099858" lon="26.004095">
<time>2020-09-12T09:00:04Z</time>
</trkpt>
<trkpt lat="61.099936" lon="26.004078">
<time>2020-09-12T09:00:05Z</time>
</trkpt>
<trkpt lat="61.100015" lon="26.004062">
<time>2020-09-12T09:00:06Z</time>
</trkpt>
<trkpt lat="61.100093" lon="26.004052">
<time>2020-09-12T09:00:07Z</time>
</trkpt>
<trkpt lat="61.100173" lon="26.004045">
<time>2020-09-12T09:00:08Z</time>
</trkpt>
<trkpt lat="61.100252" lon="26.004041">
<time>2020-09-12T09:00:09Z</time>
</trkpt>
<trkpt lat="61.100332" lon="26.004029">
<time>2020-09-12T09:00:10Z</time>
</trkpt>
<trkpt lat="61.100409" lon="26.004011">
<time>2020-09-12T09:00:11Z</time>
</trkpt>
<trkpt lat="61.100487" lon="26.003987">
<time>2020-09-12T09:00:12Z</time>
</trkpt>
<trkpt lat="61.100557" lon="26.003965">
<time>2020-09-12T09:00:13Z</time>
</trkpt>
<trkpt lat="61.100634" lon="26.003942">
<time>2020-09-12T09:00:14Z</time>
</trkpt>
<trkpt lat="61.100711" lon="26.003919">
<time>2020-09-12T09:00:15Z</time>
</trkpt>
<trkpt lat="61.100789" lon="26.003895">
<time>2020-09-12T09:00:16Z</time>
</trkpt>
<trkpt lat="61.100868" lon="26.003894">
<time>2020-09-12T09:00:17Z</time>
</trkpt>
<trkpt lat="61.100944" lon="26.003938">
<time>2020-09-12T09:00:18Z</time>
</trkpt>
<trkpt lat="61.10101" lon="26.004022">
<time>2020-09-12T09:00:19Z</time>
</trkpt>
<trkpt lat="61.101063" lon="26.004126">
<time>2020-09-12T09:00:20Z</time>
</trkpt>
<trkpt lat="61.101107" lon="26.00424">
<time>2020-09-12T09:00:21Z</time>
</trkpt>
<trkpt lat="61.101145" lon="26.004342">
<time>2020-09-12T09:00:22Z</time>
</trkpt>
<trkpt lat="61.101182" lon="26.004439">
<time>2020-09-12T09:00:23Z</time>
</trkpt>
<trkpt lat="61.101222" lon="26.004537">
<time>2020-09-12T09:00:24Z</time>
</trkpt>
<trkpt lat="61.101264" lon="26.004639">
<time>2020-09-12T09:00:25Z</time>
</trkpt>
<trkpt lat="61.101306" lon="26.004747">
<time>2020-09-12T09:00:26Z</time>
</trkpt>
<trkpt lat="61.101347" lon="26.004854">
<time>2020-09-12T09:00:27Z</time>
</trkpt>
<trkpt lat="61.101387" lon="26.004952">
<time>2020-09-12T09:00:28Z</time>
</trkpt>
<trkpt lat="61.101424" lon="26.00503">
<time>2020-09-12T09:00:29Z</time>
</trkpt>
<trkpt lat="61.101461" lon="26.005089">
<time>2020-09-12T09:00:30Z</time>
</trkpt>
<trkpt lat="61.101493" lon="26.00515">
<time>2020-09-12T09:00:31Z</time>
</trkpt>
<trkpt lat="61.101526" lon="26.005205">
<time>2020-09-12T09:00:32Z</time>
</trkpt>
<trkpt lat="61.101555" lon="26.005266">
<time>2020-09-12T09:00:33Z</time>
</trkpt>
<trkpt lat="61.101587" lon="26.005347">
<time>2020-09-12T09:00:34Z</time>
</trkpt>
<trkpt lat="61.101619" lon="26.005441">
<time>2020-09-12T09:00:35Z</time>
</trkpt>
<trkpt lat="61.101657" lon="26.005546">
<time>2020-09-12T09:00:36Z</time>
</trkpt>
<trkpt lat="61.101694" lon="26.005648">
<time>2020-09-12T09:00:37Z</time>
</trkpt>
<trkpt lat="61.101734" lon="26.005746">
<time>2020-09-12T09:00:38Z</time>
</trkpt>
<trkpt lat="61.101768" lon="26.005833">
<time>2020-09-12T09:00:39Z</time>
</trkpt>
<trkpt lat="61.10178" lon="26.005904">
<time>2020-09-12T09:00:40Z</time>
</trkpt>
<trkpt lat="61.101796" lon="26.005944">
<time>2020-09-12T09:00:41Z</time>
</trkpt>
<trkpt lat="61.101818" lon="26.005963">
<time>2020-09-12T09:00:42Z</time>
</trkpt>
<trkpt lat="61.101839" lon="26.005973">
<time>2020-09-12T09:00:43Z</time>
</trkpt>
<trkpt lat="61.101867" lon="26.005965">
<time>2020-09-12T09:00:44Z</time>
</trkpt>
<trkpt lat="61.101897" lon="26.005943">
<time>2020-09-12T09:00:45Z</time>
</trkpt>
<trkpt lat="61.101921" lon="26.005909">
<time>2020-09-12T09:00:46Z</time>
</trkpt>
<trkpt lat="61.101936" lon="26.00586">
<time>2020-09-12T09:00:47Z</time>
</trkpt>
<trkpt lat="61.101944" lon="26.005801">
<time>2020-09-12T09:00:48Z</time>
</trkpt>
<trkpt lat="61.101949" lon="26.005732">
<time>2020-09-12T09:00:49Z</time>
</trkpt>
<trkpt lat="61.101955" lon="26.005663">
<time>2020-09-12T09:00:50Z</time>
</trkpt>
<trkpt lat="61.101965" lon="26.005601">
<time>2020-09-12T09:00:51Z</time>
</trkpt>
<trkpt lat="61.101981" lon="26.005546">
<time>2020-09-12T09:00:52Z</time>
</trkpt>
<trkpt lat="61.101999" lon="26.005491">
<time>2020-09-12T09:00:53Z</time>
</trkpt>
<trkpt lat="61.102003" lon="26.005452">
<time>2020-09-12T09:00:54Z</time>
</trkpt>
<trkpt lat="61.102014" lon="26.005432">
<time>2020-09-12T09:00:55Z</time>
</trkpt>
<trkpt lat="61.102016" lon="26.005412">
<time>2020-09-12T09:00:56Z</time>
</trkpt>
<trkpt lat="61.102021" lon="26.005399">
<time>2020-09-12T09:00:57Z</time>
</trkpt>
<trkpt lat="61.102034" lon="26.005402">
<time>2020-09-12T09:00:58Z</time>
</trkpt>
<trkpt lat="61.102049" lon="26.005423">
<time>2020-09-12T09:00:59Z</time>
</trkpt>
<trkpt lat="61.102056" lon="26.005433">
<time>2020-09-12T09:01:00Z</time>
</trkpt>
<trkpt lat="61.102066" lon="26.005446">
<time>2020-09-12T09:01:01Z</time>
</trkpt>
<trkpt lat="61.102075" lon="26.005472">
<time>2020-09-12T09:01:02Z</time>
</trkpt>
<trkpt lat="61.102083" lon="26.00551">
<time>2020-09-12T09:01:03Z</time>
</trkpt>
<trkpt lat="61.102085" lon="26.00556">
<time>2020-09-12T09:01:04Z</time>
</trkpt>
<trkpt lat="61.102084" lon="26.005594">
<time>2020-09-12T09:01:05Z</time>
</trkpt>
<trkpt lat="61.102083" lon="26.005635">
<time>2020-09-12T09:01:06Z</time>
</trkpt>
<trkpt lat="61.102081" lon="26.005674">
<time>2020-09-12T09:01:07Z</time>
</trkpt>
<trkpt lat="61.102078" lon="26.005725">
<time>2020-09-12T09:01:08Z</time>
</trkpt>
<trkpt lat="61.102078" lon="26.005781">
<time>2020-09-12T09:01:09Z</time>
</trkpt>
<trkpt lat="61.102076" lon="26.005823">
<time>2020-09-12T09:01:10Z</time>
</trkpt>
<trkpt lat="61.102072" lon="26.005848">
<time>2020-09-12T09:01:11Z</time>
</trkpt>
<trkpt lat="61.102067" lon="26.00587">
<time>2020-09-12T09:01:12Z</time>
</trkpt>
<trkpt lat="61.102065" lon="26.005884">
<time>2020-09-12T09:01:13Z</time>
</trkpt>
<trkpt lat="61.102069" lon="26.005896">
<time>2020-09-12T09:01:14Z</time>
</trkpt>
<trkpt lat="61.10208" lon="26.005906">
<time>2020-09-12T09:01:15Z</time>
</trkpt>
<trkpt lat="61.102095" lon="26.005904">
<time>2020-09-12T09:01:16Z</time>
</trkpt>
<trkpt lat="61.102115" lon="26.005903">
<time>2020-09-12T09:01:17Z</time>
</trkpt>
<trkpt lat="61.102143" lon="26.005898">
<time>2020-09-12T09:01:18Z</time>
</trkpt>
<trkpt lat="61.102183" lon="26.005875">
<time>2020-09-12T09:01:19Z</time>
</trkpt>
<trkpt lat="61.102235" lon="26.00585">
<time>2020-09-12T09:01:20Z</time>
</trkpt>
<trkpt lat="61.102294" lon="26.005825">
<time>2020-09-12T09:01:21Z</time>
</trkpt>
<trkpt lat="61.102358" lon="26.005805">
<time>2020-09-12T09:01:22Z</time>
</trkpt>
<trkpt lat="61.102422" lon="26.005777">
<time>2020-09-12T09:01:23Z</time>
</trkpt>
<trkpt lat="61.102493" lon="26.005747">
<time>2020-09-12T09:01:24Z</time>
</trkpt>
<trkpt lat="61.102576" lon="26.005718">
<time>2020-09-12T09:01:25Z</time>
</trkpt>
<trkpt lat="61.102665" lon="26.005686">
<time>2020-09-12T09:01:26Z</time>
</trkpt>
<trkpt lat="61.102749" lon="26.005649">
<time>2020-09-12T09:01:27Z</time>
</trkpt>
<trkpt lat="61.102833" lon="26.00562">
<time>2020-09-12T09:01:28Z</time>
</trkpt>
<trkpt lat="61.102913" lon="26.005597">
<time>2020-09-12T09:01:29Z</time>
</trkpt>
<trkpt lat="61.102983" lon="26.005586">
<time>2020-09-12T09:01:30Z</time>
</trkpt>
<trkpt lat="61.103041" lon="26.005574">
<time>2020-09-12T09:01:31Z</time>
</trkpt>
<trkpt lat="61.103096" lon="26.005558">
<time>2020-09-12T09:01:32Z</time>
</trkpt>
<trkpt lat="61.103152" lon="26.00552">
<time>2020-09-12T09:01:33Z</time>
</trkpt>
<trkpt lat="61.103206" lon="26.005473">
<time>2020-09-12T09:01:34Z</time>
</trkpt>
<trkpt lat="61.103259" lon="26.005427">
<time>2020-09-12T09:01:35Z</time>
</trkpt>
<trkpt lat="61.103314" lon="26.005375">
<time>2020-09-12T09:01:36Z</time>
</trkpt>
<trkpt lat="61.103371" lon="26.005305">
<time>2020-09-12T09:01:37Z</time>
</trkpt>
<trkpt lat="61.103435" lon="26.005219">
<time>2020-09-12T09:01:38Z</time>
</trkpt>
<trkpt lat="61.1035" lon="26.005133">
<time>2020-09-12T09:01:39Z</time>
</trkpt>
<trkpt lat="61.103565" lon="26.005053">
<time>2020-09-12T09:01:40Z</time>
</trkpt>
<trkpt lat="61.103641" lon="26.004981">
<time>2020-09-12T09:01:41Z</time>
</trkpt>
<trkpt lat="61.10372" lon="26.004916">
<time>2020-09-12T09:01:42Z</time>
</trkpt>
<trkpt lat="61.103798" lon="26.004869">
<time>2020-09-12T09:01:43Z</time>
</trkpt>
<trkpt lat="61.103877" lon="26.004837">
<time>2020-09-12T09:01:44Z</time>
</trkpt>
<trkpt lat="61.103956" lon="26.004818">
<time>2020-09-12T09:01:45Z</time>
</trkpt>
<trkpt lat="61.104029" lon="26.004816">
<time>2020-09-12T09:01:46Z</time>
</trkpt>
<trkpt lat="61.104094" lon="26.004846">
<time>2020-09-12T09:01:47Z</time>
</trkpt>
<trkpt lat="61.104155" lon="26.004908">
<time>2020-09-12T09:01:48Z</time>
</trkpt>
<trkpt lat="61.104216" lon="26.004987">
<time>2020-09-12T09:01:49Z</time>
</trkpt>
<trkpt lat="61.104278" lon="26.005069">
<time>2020-09-12T09:01:50Z</time>
</trkpt>
<trkpt lat="61.104338" lon="26.00514">
<time>2020-09-12T09:01:51Z</time>
</trkpt>
<trkpt lat="61.104398" lon="26.005208">
<time>2020-09-12T09:01:52Z</time>
</trkpt>
<trkpt lat="61.10445" lon="26.005268">
<time>2020-09-12T09:01:53Z</time>
</trkpt>
<trkpt lat="61.104494" lon="26.005324">
<time>2020-09-12T09:01:54Z</time>
</trkpt>
<trkpt lat="61.104531" lon="26.005379">
<time>2020-09-12T09:01:55Z</time>
</trkpt>
<trkpt lat="61.104557" lon="26.005455">
<time>2020-09-12T09:01:56Z</time>
</trkpt>
<trkpt lat="61.104583" lon="26.005538">
<time>2020-09-12T09:01:57Z</time>
</trkpt>
<trkpt lat="61.104609" lon="26.005647">
<time>2020-09-12T09:01:58Z</time>
</trkpt>
<trkpt lat="61.104637" lon="26.005775">
<time>2020-09-12T09:01:59Z</time>
</trkpt>
<trkpt lat="61.104658" lon="26.00591">
<time>2020-09-12T09:02:00Z</time>
</trkpt>
<trkpt lat="61.104679" lon="26.006039">
<time>2020-09-12T09:02:01Z</time>
</trkpt>
<trkpt lat="61.104708" lon="26.006169">
<time>2020-09-12T09:02:02Z</time>
</trkpt>
<trkpt lat="61.104749" lon="26.00629">
<time>2020-09-12T09:02:03Z</time>
</trkpt>
<trkpt lat="61.104793" lon="26.006398">
<time>2020-09-12T09:02:04Z</time>
</trkpt>
<trkpt lat="61.104843" lon="26.006493">
<time>2020-09-12T09:02:05Z</time>
</trkpt>
<trkpt lat="61.104893" lon="26.006569">
<time>2020-09-12T09:02:06Z</time>
</trkpt>
<trkpt lat="61.104947" lon="26.006615">
<time>2020-09-12T09:02:07Z</time>
</trkpt>
<trkpt lat="61.104998" lon="26.006646">
<time>2020-09-12T09:02:08Z</time>
</trkpt>
<trkpt lat="61.105044" lon="26.006661">
<time>2020-09-12T09:02:09Z</time>
</trkpt>
<trkpt lat="61.105083" lon="26.006661">
<time>2020-09-12T09:02:10Z</time>
</trkpt>
<trkpt lat="61.105108" lon="26.006673">
<time>2020-09-12T09:02:11Z</time>
</trkpt>
<trkpt lat="61.105144" lon="26.006698">
<time>2020-09-12T09:02:12Z</time>
</trkpt>
<trkpt lat="61.105178" lon="26.006727">
<time>2020-09-12T09:02:13Z</time>
</trkpt>
<trkpt lat="61.105207" lon="26.00678">
<time>2020-09-12T09:02:14Z</time>
</trkpt>
<trkpt lat="61.105237" lon="26.006866">
<time>2020-09-12T09:02:15Z</time>
</trkpt>
<trkpt lat="61.105262" lon="26.006957">
<time>2020-09-12T09:02:16Z</time>
</trkpt>
<trkpt lat="61.105291" lon="26.007032">
<time>2020-09-12T09:02:17Z</time>
</trkpt>
<trkpt lat="61.105327" lon="26.00709">
<time>2020-09-12T09:02:18Z</time>
</trkpt>
<trkpt lat="61.105367" lon="26.007133">
<time>2020-09-12T09:02:19Z</time>
</trkpt>
<trkpt lat="61.105413" lon="26.007171">
<time>2020-09-12T09:02:20Z</time>
</trkpt>
<trkpt lat="61.105465" lon="26.007201">
<time>2020-09-12T09:02:21Z</time>
</trkpt>
<trkpt lat="61.105505" lon="26.007205">
<time>2020-09-12T09:02:22Z</time>
</trkpt>
<trkpt lat="61.105542" lon="26.007207">
<time>2020-09-12T09:02:23Z</time>
</trkpt>
<trkpt lat="61.105582" lon="26.007214">
<time>2020-09-12T09:02:24Z</time>
</trkpt>
<trkpt lat="61.105623" lon="26.007234">
<time>2020-09-12T09:02:25Z</time>
</trkpt>
<trkpt lat="61.105671" lon="26.007277">
<time>2020-09-12T09:02:26Z</time>
</trkpt>
<trkpt lat="61.105719" lon="26.007328">
<time>2020-09-12T09:02:27Z</time>
</trkpt>
<trkpt lat="61.105767" lon="26.007367">
<time>2020-09-12T09:02:28Z</time>
</trkpt>
<trkpt lat="61.105807" lon="26.007392">
<time>2020-09-12T09:02:29Z</time>
</trkpt>
<trkpt lat="61.105848" lon="26.007417">
<time>2020-09-12T09:02:30Z</time>
</trkpt>
<trkpt lat="61.105885" lon="26.007435">
<time>2020-09-12T09:02:31Z</time>
</trkpt>
<trkpt lat="61.105915" lon="26.007436">
<time>2020-09-12T09:02:32Z</time>
</trkpt>
<trkpt lat="61.105936" lon="26.007414">
<time>2020-09-12T09:02:33Z</time>
</trkpt>
<trkpt lat="61.105948" lon="26.007368">
<time>2020-09-12T09:02:34Z</time>
</trkpt>
<trkpt lat="61.105957" lon="26.007306">
<time>2020-09-12T09:02:35Z</time>
</trkpt>
<trkpt lat="61.105972" lon="26.007237">
<time>2020-09-12T09:02:36Z</time>
</trkpt>
<trkpt lat="61.105989" lon="26.007164">
<time>2020-09-12T09:02:37Z</time>
</trkpt>
<trkpt lat="61.105996" lon="26.00709">
<time>2020-09-12T09:02:38Z</time>
</trkpt>
<trkpt lat="61.105996" lon="26.007038">
<time>2020-09-12T09:02:39Z</time>
</trkpt>
<trkpt lat="61.105989" lon="26.007023">
<time>2020-09-12T09:02:40Z</time>
</trkpt>
<trkpt lat="61.105986" lon="26.007041">
<time>2020-09-12T09:02:41Z</time>
</trkpt>
<trkpt lat="61.105982" lon="26.007077">
<time>2020-09-12T09:02:42Z</time>
</trkpt>
<trkpt lat="61.105986" lon="26.007136">
<time>2020-09-12T09:02:43Z</time>
</trkpt>
<trkpt lat="61.105988" lon="26.007212">
<time>2020-09-12T09:02:44Z</time>
</trkpt>
<trkpt lat="61.105986" lon="26.007303">
<time>2020-09-12T09:02:45Z</time>
</trkpt>
<trkpt lat="61.10598" lon="26.007425">
<time>2020-09-12T09:02:46Z</time>
</trkpt>
<trkpt lat="61.105984" lon="26.007559">
<time>2020-09-12T09:02:47Z</time>
</trkpt>
<trkpt lat="61.105998" lon="26.007704">
<time>2020-09-12T09:02:48Z</time>
</trkpt>
<trkpt lat="61.10601" lon="26.007836">
<time>2020-09-12T09:02:49Z</time>
</trkpt>
<trkpt lat="61.106033" lon="26.00799">
<time>2020-09-12T09:02:50Z</time>
</trkpt>
<trkpt lat="61.10607" lon="26.008143">
<time>2020-09-12T09:02:51Z</time>
</trkpt>
<trkpt lat="61.106117" lon="26.008284">
<time>2020-09-12T09:02:52Z</time>
</trkpt>
<trkpt lat="61.106168" lon="26.008413">
<time>2020-09-12T09:02:53Z</time>
</trkpt>
<trkpt lat="61.106215" lon="26.008536">
<time>2020-09-12T09:02:54Z</time>
</trkpt>
<trkpt lat="61.106259" lon="26.008663">
<time>2020-09-12T09:02:55Z</time>
</trkpt>
<trkpt lat="61.106297" lon="26.00878">
<time>2020-09-12T09:02:56Z</time>
</trkpt>
<trkpt lat="61.106331" lon="26.008897">
<time>2020-09-12T09:02:57Z</time>
</trkpt>
<trkpt lat="61.106362" lon="26.009022">
<time>2020-09-12T09:02:58Z</time>
</trkpt>
<trkpt lat="61.10639" lon="26.009146">
<time>2020-09-12T09:02:59Z</time>
</trkpt>
<trkpt lat="61.106421" lon="26.009262">
<time>2020-09-12T09:03:00Z</time>
</trkpt>
<trkpt lat="61.106458" lon="26.009372">
<time>2020-09-12T09:03:01Z</time>
</trkpt>
<trkpt lat="61.106503" lon="26.009471">
<time>2020-09-12T09:03:02Z</time>
</trkpt>
<trkpt lat="61.106555" lon="26.009567">
<time>2020-09-12T09:03:03Z</time>
</trkpt>
<trkpt lat="61.106614" lon="26.009658">
<time>2020-09-12T09:03:04Z</time>
</trkpt>
<trkpt lat="61.106678" lon="26.00974">
<time>2020-09-12T09:03:05Z</time>
</trkpt>
<trkpt lat="61.106745" lon="26.00984">
<time>2020-09-12T09:03:06Z</time>
</trkpt>
<trkpt lat="61.106797" lon="26.009957">
<time>2020-09-12T09:03:07Z</time>
</trkpt>
<trkpt lat="61.106818" lon="26.010085">
<time>2020-09-12T09:03:08Z</time>
</trkpt>
<trkpt lat="61.106817" lon="26.010229">
<time>2020-09-12T09:03:09Z</time>
</trkpt>
<trkpt lat="61.106821" lon="26.010381">
<time>2020-09-12T09:03:10Z</time>
</trkpt>
<trkpt lat="61.106817" lon="26.010534">
<time>2020-09-12T09:03:11Z</time>
</trkpt>
<trkpt lat="61.106813" lon="26.010701">
<time>2020-09-12T09:03:12Z</time>
</trkpt>
<trkpt lat="61.106816" lon="26.010867">
<time>2020-09-12T09:03:13Z</time>
</trkpt>
<trkpt lat="61.10682" lon="26.011042">
<time>2020-09-12T09:03:14Z</time>
</trkpt>
<trkpt lat="61.106823" lon="26.011215">
<time>2020-09-12T09:03:15Z</time>
</trkpt>
<trkpt lat="61.106825" lon="26.011371">
<time>2020-09-12T09:03:16Z</time>
</trkpt>
<trkpt lat="61.106825" lon="26.011531">
<time>2020-09-12T09:03:17Z</time>
</trkpt>
<trkpt lat="61.106829" lon="26.011687">
<time>2020-09-12T09:03:18Z</time>
</trkpt>
<trkpt lat="61.106832" lon="26.011838">
<time>2020-09-12T09:03:19Z</time>
</trkpt>
<trkpt lat="61.106829" lon="26.011994">
<time>2020-09-12T09:03:20Z</time>
</trkpt>
<trkpt lat="61.106828" lon="26.012148">
<time>2020-09-12T09:03:21Z</time>
</trkpt>
<trkpt lat="61.106831" lon="26.012304">
<time>2020-09-12T09:03:22Z</time>
</trkpt>
<trkpt lat="61.106841" lon="26.012456">
<time>2020-09-12T09:03:23Z</time>
</trkpt>
<trkpt lat="61.106859" lon="26.012602">
<time>2020-09-12T09:03:24Z</time>
</trkpt>
<trkpt lat="61.106885" lon="26.01274">
<time>2020-09-12T09:03:25Z</time>
</trkpt>
<trkpt lat="61.106914" lon="26.012871">
<time>2020-09-12T09:03:26Z</time>
</trkpt>
<trkpt lat="61.106948" lon="26.013004">
<time>2020-09-12T09:03:27Z</time>
</trkpt>
<trkpt lat="61.106981" lon="26.01313">
<time>2020-09-12T09:03:28Z</time>
</trkpt>
<trkpt lat="61.107007" lon="26.013259">
<time>2020-09-12T09:03:29Z</time>
</trkpt>
<trkpt lat="61.107028" lon="26.013389">
<time>2020-09-12T09:03:30Z</time>
</trkpt>
<trkpt lat="61.107032" lon="26.013521">
<time>2020-09-12T09:03:31Z</time>
</trkpt>
<trkpt lat="61.107023" lon="26.013668">
<time>2020-09-12T09:03:32Z</time>
</trkpt>
<trkpt lat="61.107004" lon="26.013796">
<time>2020-09-12T09:03:33Z</time>
</trkpt>
<trkpt lat="61.106973" lon="26.013898">
<time>2020-09-12T09:03:34Z</time>
</trkpt>
<trkpt lat="61.106937" lon="26.013995">
<time>2020-09-12T09:03:35Z</time>
</trkpt>
<trkpt lat="61.106896" lon="26.014095">
<time>2020-09-12T09:03:36Z</time>
</trkpt>
<trkpt lat="61.106855" lon="26.0142">
<time>2020-09-12T09:03:37Z</time>
</trkpt>
<trkpt lat="61.106817" lon="26.014319">
<time>2020-09-12T09:03:38Z</time>
</trkpt>
<trkpt lat="61.106779" lon="26.014449">
<time>2020-09-12T09:03:39Z</time>
</trkpt>
<trkpt lat="61.106742" lon="26.014592">
<time>2020-09-12T09:03:40Z</time>
</trkpt>
<trkpt lat="61.106713" lon="26.014736">
<time>2020-09-12T09:03:41Z</time>
</trkpt>
<trkpt lat="61.106678" lon="26.014885">
<time>2020-09-12T09:03:42Z</time>
</trkpt>
<trkpt lat="61.106646" lon="26.015038">
<time>2020-09-12T09:03:43Z</time>
</trkpt>
<trkpt lat="61.106628" lon="26.015192">
<time>2020-09-12T09:03:44Z</time>
</trkpt>
<trkpt lat="61.106607" lon="26.015345">
<time>2020-09-12T09:03:45Z</time>
</trkpt>
<trkpt lat="61.106587" lon="26.015494">
<time>2020-09-12T09:03:46Z</time>
</trkpt>
<trkpt lat="61.10657" lon="26.015633">
<time>2020-09-12T09:03:47Z</time>
</trkpt>
<trkpt lat="61.106548" lon="26.015769">
<time>2020-09-12T09:03:48Z</time>
</trkpt>
<trkpt lat="61.106526" lon="26.015905">
<time>2020-09-12T09:03:49Z</time>
</trkpt>
<trkpt lat="61.106507" lon="26.016047">
<time>2020-09-12T09:03:50Z</time>
</trkpt>
<trkpt lat="61.106495" lon="26.016204">
<time>2020-09-12T09:03:51Z</time>
</trkpt>
<trkpt lat="61.106498" lon="26.016356">
<time>2020-09-12T09:03:52Z</time>
</trkpt>
<trkpt lat="61.106508" lon="26.016511">
<time>2020-09-12T09:03:53Z</time>
</trkpt>
<trkpt lat="61.10652" lon="26.016656">
<time>2020-09-12T09:03:54Z</time>
</trkpt>
<trkpt lat="61.10654" lon="26.01678">
<time>2020-09-12T09:03:55Z</time>
</trkpt>
<trkpt lat="61.106564" lon="26.016907">
<time>2020-09-12T09:03:56Z</time>
</trkpt>
<trkpt lat="61.106592" lon="26.017032">
<time>2020-09-12T09:03:57Z</time>
</trkpt>
<trkpt lat="61.106627" lon="26.01714">
<time>2020-09-12T09:03:58Z</time>
</trkpt>
<trkpt lat="61.106666" lon="26.017232">
<time>2020-09-12T09:03:59Z</time>
</trkpt>
<trkpt lat="61.106702" lon="26.017324">
<time>2020-09-12T09:04:00Z</time>
</trkpt>
<trkpt lat="61.106743" lon="26.017406">
<time>2020-09-12T09:04:01Z</time>
</trkpt>
<trkpt lat="61.106786" lon="26.017477">
<time>2020-09-12T09:04:02Z</time>
</trkpt>
<trkpt lat="61.106831" lon="26.017538">
<time>2020-09-12T09:04:03Z</time>
</trkpt>
<trkpt lat="61.106876" lon="26.017582">
<time>2020-09-12T09:04:04Z</time>
</trkpt>
<trkpt lat="61.106919" lon="26.017621">
<time>2020-09-12T09:04:05Z</time>
</trkpt>
<trkpt lat="61.106957" lon="26.017668">
<time>2020-09-12T09:04:06Z</time>
</trkpt>
<trkpt lat="61.106994" lon="26.017714">
<time>2020-09-12T09:04:07Z</time>
</trkpt>
<trkpt lat="61.107027" lon="26.017766">
<time>2020-09-12T09:04:08Z</time>
</trkpt>
<trkpt lat="61.107062" lon="26.017818">
<time>2020-09-12T09:04:09Z</time>
</trkpt>
<trkpt lat="61.107101" lon="26.017876">
<time>2020-09-12T09:04:10Z</time>
</trkpt>
<trkpt lat="61.107141" lon="26.017938">
<time>2020-09-12T09:04:11Z</time>
</trkpt>
<trkpt lat="61.107177" lon="26.018004">
<time>2020-09-12T09:04:12Z</time>
</trkpt>
<trkpt lat="61.107216" lon="26.018072">
<time>2020-09-12T09:04:13Z</time>
</trkpt>
<trkpt lat="61.107256" lon="26.018141">
<time>2020-09-12T09:04:14Z</time>
</trkpt>
<trkpt lat="61.107295" lon="26.01821">
<time>2020-09-12T09:04:15Z</time>
</trkpt>
<trkpt lat="61.107333" lon="26.018282">
<time>2020-09-12T09:04:16Z</time>
</trkpt>
<trkpt lat="61.107376" lon="26.018365">
<time>2020-09-12T09:04:17Z</time>
</trkpt>
<trkpt lat="61.107423" lon="26.018445">
<time>2020-09-12T09:04:18Z</time>
</trkpt>
<trkpt lat="61.107477" lon="26.018525">
<time>2020-09-12T09:04:19Z</time>
</trkpt>
<trkpt lat="61.10753" lon="26.018617">
<time>2020-09-12T09:04:20Z</time>
</trkpt>
<trkpt lat="61.107581" lon="26.018714">
<time>2020-09-12T09:04:21Z</time>
</trkpt>
<trkpt lat="61.107633" lon="26.018809">
<time>2020-09-12T09:04:22Z</time>
</trkpt>
<trkpt lat="61.107683" lon="26.018906">
<time>2020-09-12T09:04:23Z</time>
</trkpt>
<trkpt lat="61.107737" lon="26.018998">
<time>2020-09-12T09:04:24Z</time>
</trkpt>
<trkpt lat="61.107792" lon="26.019085">
<time>2020-09-12T09:04:25Z</time>
</trkpt>
<trkpt lat="61.107845" lon="26.019178">
<time>2020-09-12T09:04:26Z</time>
</trkpt>
<trkpt lat="61.107895" lon="26.019272">
<time>2020-09-12T09:04:27Z</time>
</trkpt>
<trkpt lat="61.107944" lon="26.019364">
<time>2020-09-12T09:04:28Z</time>
</trkpt>
<trkpt lat="61.107993" lon="26.019446">
<time>2020-09-12T09:04:29Z</time>
</trkpt>
<trkpt lat="61.108041" lon="26.019527">
<time>2020-09-12T09:04:30Z</time>
</trkpt>
<trkpt lat="61.108087" lon="26.019597">
<time>2020-09-12T09:04:31Z</time>
</trkpt>
<trkpt lat="61.108129" lon="26.019671">
<time>2020-09-12T09:04:32Z</time>
</trkpt>
<trkpt lat="61.108175" lon="26.019738">
<time>2020-09-12T09:04:33Z</time>
</trkpt>
<trkpt lat="61.108219" lon="26.0198">
<time>2020-09-12T09:04:34Z</time>
</trkpt>
<trkpt lat="61.108262" lon="26.019872">
<time>2020-09-12T09:04:35Z</time>
</trkpt>
<trkpt lat="61.108307" lon="26.019954">
<time>2020-09-12T09:04:36Z</time>
</trkpt>
<trkpt lat="61.108357" lon="26.020047">
<time>2020-09-12T09:04:37Z</time>
</trkpt>
<trkpt lat="61.108406" lon="26.020138">
<time>2020-09-12T09:04:38Z</time>
</trkpt>
<trkpt lat="61.108453" lon="26.020227">
<time>2020-09-12T09:04:39Z</time>
</trkpt>
<trkpt lat="61.108507" lon="26.020315">
<time>2020-09-12T09:04:40Z</time>
</trkpt>
<trkpt lat="61.108564" lon="26.020363">
<time>2020-09-12T09:04:41Z</time>
</trkpt>
<trkpt lat="61.108627" lon="26.020364">
<time>2020-09-12T09:04:42Z</time>
</trkpt>
<trkpt lat="61.10869" lon="26.020332">
<time>2020-09-12T09:04:43Z</time>
</trkpt>
<trkpt lat="61.10875" lon="26.020288">
<time>2020-09-12T09:04:44Z</time>
</trkpt>
<trkpt lat="61.108809" lon="26.020234">
<time>2020-09-12T09:04:45Z</time>
</trkpt>
<trkpt lat="61.108871" lon="26.020174">
<time>2020-09-12T09:04:46Z</time>
</trkpt>
<trkpt lat="61.108927" lon="26.020105">
<time>2020-09-12T09:04:47Z</time>
</trkpt>
<trkpt lat="61.108983" lon="26.020028">
<time>2020-09-12T09:04:48Z</time>
</trkpt>
<trkpt lat="61.109034" lon="26.019956">
<time>2020-09-12T09:04:49Z</time>
</trkpt>
<trkpt lat="61.109064" lon="26.019894">
<time>2020-09-12T09:04:50Z</time>
</trkpt>
<trkpt lat="61.109069" lon="26.019862">
<time>2020-09-12T09:04:51Z</time>
</trkpt>
<trkpt lat="61.109067" lon="26.01986">
<time>2020-09-12T09:04:52Z</time>
</trkpt>
<trkpt lat="61.109057" lon="26.019887">
<time>2020-09-12T09:04:53Z</time>
</trkpt>
<trkpt lat="61.109039" lon="26.019931">
<time>2020-09-12T09:04:54Z</time>
</trkpt>
<trkpt lat="61.109009" lon="26.019992">
<time>2020-09-12T09:04:55Z</time>
</trkpt>
<trkpt lat="61.10897" lon="26.020054">
<time>2020-09-12T09:04:56Z</time>
</trkpt>
<trkpt lat="61.108924" lon="26.020113">
<time>2020-09-12T09:04:57Z</time>
</trkpt>
<trkpt lat="61.108874" lon="26.020173">
<time>2020-09-12T09:04:58Z</time>
</trkpt>
<trkpt lat="61.10882" lon="26.020229">
<time>2020-09-12T09:04:59Z</time>
</trkpt>
<trkpt lat="61.108764" lon="26.02029">
<time>2020-09-12T09:05:00Z</time>
</trkpt>
<trkpt lat="61.108713" lon="26.020371">
<time>2020-09-12T09:05:01Z</time>
</trkpt>
<trkpt lat="61.108674" lon="26.020475">
<time>2020-09-12T09:05:02Z</time>
</trkpt>
<trkpt lat="61.108652" lon="26.020595">
<time>2020-09-12T09:05:03Z</time>
</trkpt>
<trkpt lat="61.108651" lon="26.02073">
<time>2020-09-12T09:05:04Z</time>
</trkpt>
<trkpt lat="61.10866" lon="26.020864">
<time>2020-09-12T09:05:05Z</time>
</trkpt>
<trkpt lat="61.108667" lon="26.02099">
<time>2020-09-12T09:05:06Z</time>
</trkpt>
<trkpt lat="61.108678" lon="26.021101">
<time>2020-09-12T09:05:07Z</time>
</trkpt>
<trkpt lat="61.108688" lon="26.021202">
<time>2020-09-12T09:05:08Z</time>
</trkpt>
<trkpt lat="61.108696" lon="26.021311">
<time>2020-09-12T09:05:09Z</time>
</trkpt>
<trkpt lat="61.108699" lon="26.021425">
<time>2020-09-12T09:05:10Z</time>
</trkpt>
<trkpt lat="61.1087" lon="26.021535">
<time>2020-09-12T09:05:11Z</time>
</trkpt>
<trkpt lat="61.108697" lon="26.021643">
<time>2020-09-12T09:05:12Z</time>
</trkpt>
<trkpt lat="61.108689" lon="26.021757">
<time>2020-09-12T09:05:13Z</time>
</trkpt>
<trkpt lat="61.108674" lon="26.021881">
<time>2020-09-12T09:05:14Z</time>
</trkpt>
<trkpt lat="61.108649" lon="26.021997">
<time>2020-09-12T09:05:15Z</time>
</trkpt>
<trkpt lat="61.10862" lon="26.022098">
<time>2020-09-12T09:05:16Z</time>
</trkpt>
<trkpt lat="61.108591" lon="26.0222">
<time>2020-09-12T09:05:17Z</time>
</trkpt>
<trkpt lat="61.108567" lon="26.022298">
<time>2020-09-12T09:05:18Z</time>
</trkpt>
<trkpt lat="61.108546" lon="26.022396">
<time>2020-09-12T09:05:19Z</time>
</trkpt>
<trkpt lat="61.10853" lon="26.022509">
<time>2020-09-12T09:05:20Z</time>
</trkpt>
<trkpt lat="61.10851" lon="26.022628">
<time>2020-09-12T09:05:21Z</time>
</trkpt>
<trkpt lat="61.108493" lon="26.022741">
<time>2020-09-12T09:05:22Z</time>
</trkpt>
<trkpt lat="61.108479" lon="26.022869">
<time>2020-09-12T09:05:23Z</time>
</trkpt>
<trkpt lat="61.108465" lon="26.023011">
<time>2020-09-12T09:05:24Z</time>
</trkpt>
<trkpt lat="61.108461" lon="26.023152">
<time>2020-09-12T09:05:25Z</time>
</trkpt>
<trkpt lat="61.108467" lon="26.023305">
<time>2020-09-12T09:05:26Z</time>
</trkpt>
<trkpt lat="61.108473" lon="26.023452">
<time>2020-09-12T09:05:27Z</time>
</trkpt>
<trkpt lat="61.108487" lon="26.023597">
<time>2020-09-12T09:05:28Z</time>
</trkpt>
<trkpt lat="61.108505" lon="26.023745">
<time>2020-09-12T09:05:29Z</time>
</trkpt>
<trkpt lat="61.108523" lon="26.023892">
<time>2020-09-12T09:05:30Z</time>
</trkpt>
<trkpt lat="61.108544" lon="26.02403">
<time>2020-09-12T09:05:31Z</time>
</trkpt>
<trkpt lat="61.108558" lon="26.024172">
<time>2020-09-12T09:05:32Z</time>
</trkpt>
<trkpt lat="61.108558" lon="26.024312">
<time>2020-09-12T09:05:33Z</time>
</trkpt>
<trkpt lat="61.108551" lon="26.024445">
<time>2020-09-12T09:05:34Z</time>
</trkpt>
<trkpt lat="61.108536" lon="26.024575">
<time>2020-09-12T09:05:35Z</time>
</trkpt>
<trkpt lat="61.108522" lon="26.024715">
<time>2020-09-12T09:05:36Z</time>
</trkpt>
<trkpt lat="61.108502" lon="26.024842">
<time>2020-09-12T09:05:37Z</time>
</trkpt>
<trkpt lat="61.108477" lon="26.024971">
<time>2020-09-12T09:05:38Z</time>
</trkpt>
<trkpt lat="61.108437" lon="26.025081">
<time>2020-09-12T09:05:39Z</time>
</trkpt>
<trkpt lat="61.108391" lon="26.025177">
<time>2020-09-12T09:05:40Z</time>
</trkpt>
<trkpt lat="61.108334" lon="26.025268">
<time>2020-09-12T09:05:41Z</time>
</trkpt>
<trkpt lat="61.108275" lon="26.025355">
<time>2020-09-12T09:05:42Z</time>
</trkpt>
<trkpt lat="61.108207" lon="26.025456">
<time>2020-09-12T09:05:43Z</time>
</trkpt>
<trkpt lat="61.108146" lon="26.025542">
<time>2020-09-12T09:05:44Z</time>
</trkpt>
<trkpt lat="61.108086" lon="26.025635">
<time>2020-09-12T09:05:45Z</time>
</trkpt>
<trkpt lat="61.10803" lon="26.025734">
<time>2020-09-12T09:05:46Z</time>
</trkpt>
<trkpt lat="61.107975" lon="26.025843">
<time>2020-09-12T09:05:47Z</time>
</trkpt>
<trkpt lat="61.107926" lon="26.025958">
<time>2020-09-12T09:05:48Z</time>
</trkpt>
<trkpt lat="61.107881" lon="26.02608">
<time>2020-09-12T09:05:49Z</time>
</trkpt>
<trkpt lat="61.107824" lon="26.026197">
<time>2020-09-12T09:05:50Z</time>
</trkpt>
<trkpt lat="61.107764" lon="26.026308">
<time>2020-09-12T09:05:51Z</time>
</trkpt>
<trkpt lat="61.107703" lon="26.026412">
<time>2020-09-12T09:05:52Z</time>
</trkpt>
<trkpt lat="61.10764" lon="26.026501">
<time>2020-09-12T09:05:53Z</time>
</trkpt>
<trkpt lat="61.107572" lon="26.026577">
<time>2020-09-12T09:05:54Z</time>
</trkpt>
<trkpt lat="61.107516" lon="26.026631">
<time>2020-09-12T09:05:55Z</time>
</trkpt>
<trkpt lat="61.107476" lon="26.026685">
<time>2020-09-12T09:05:56Z</time>
</trkpt>
<trkpt lat="61.107451" lon="26.026736">
<time>2020-09-12T09:05:57Z</time>
</trkpt>
<trkpt lat="61.107438" lon="26.026792">
<time>2020-09-12T09:05:58Z</time>
</trkpt>
<trkpt lat="61.10742" lon="26.026859">
<time>2020-09-12T09:05:59Z</time>
</trkpt>
<trkpt lat="61.107399" lon="26.026926">
<time>2020-09-12T09:06:00Z</time>
</trkpt>
<trkpt lat="61.107374" lon="26.026992">
<time>2020-09-12T09:06:01Z</time>
</trkpt>
<trkpt lat="61.107351" lon="26.027058">
<time>2020-09-12T09:06:02Z</time>
</trkpt>
<trkpt lat="61.107332" lon="26.027126">
<time>2020-09-12T09:06:03Z</time>
</trkpt>
<trkpt lat="61.107312" lon="26.027205">
<time>2020-09-12T09:06:04Z</time>
</trkpt>
<trkpt lat="61.107291" lon="26.027283">
<time>2020-09-12T09:06:05Z</time>
</trkpt>
<trkpt lat="61.107284" lon="26.027366">
<time>2020-09-12T09:06:06Z</time>
</trkpt>
<trkpt lat="61.107278" lon="26.027451">
<time>2020-09-12T09:06:07Z</time>
</trkpt>
<trkpt lat="61.107271" lon="26.027534">
<time>2020-09-12T09:06:08Z</time>
</trkpt>
<trkpt lat="61.107263" lon="26.027617">
<time>2020-09-12T09:06:09Z</time>
</trkpt>
<trkpt lat="61.107256" lon="26.027692">
<time>2020-09-12T09:06:10Z</time>
</trkpt>
<trkpt lat="61.107256" lon="26.027772">
<time>2020-09-12T09:06:11Z</time>
</trkpt>
<trkpt lat="61.107247" lon="26.02784">
<time>2020-09-12T09:06:12Z</time>
</trkpt>
<trkpt lat="61.107226" lon="26.027915">
<time>2020-09-12T09:06:13Z</time>
</trkpt>
<trkpt lat="61.107193" lon="26.028003">
<time>2020-09-12T09:06:14Z</time>
</trkpt>
<trkpt lat="61.107156" lon="26.028097">
<time>2020-09-12T09:06:15Z</time>
</trkpt>
<trkpt lat="61.107123" lon="26.028191">
<time>2020-09-12T09:06:16Z</time>
</trkpt>
<trkpt lat="61.107095" lon="26.028293">
<time>2020-09-12T09:06:17Z</time>
</trkpt>
<trkpt lat="61.107073" lon="26.0284">
<time>2020-09-12T09:06:18Z</time>
</trkpt>
<trkpt lat="61.107046" lon="26.028515">
<time>2020-09-12T09:06:19Z</time>
</trkpt>
<trkpt lat="61.107029" lon="26.028635">
<time>2020-09-12T09:06:20Z</time>
</trkpt>
<trkpt lat="61.107014" lon="26.028753">
<time>2020-09-12T09:06:21Z</time>
</trkpt>
<trkpt lat="61.106992" lon="26.028884">
<time>2020-09-12T09:06:22Z</time>
</trkpt>
<trkpt lat="61.106967" lon="26.029015">
<time>2020-09-12T09:06:23Z</time>
</trkpt>
<trkpt lat="61.10695" lon="26.029145">
<time>2020-09-12T09:06:24Z</time>
</trkpt>
<trkpt lat="61.106933" lon="26.029273">
<time>2020-09-12T09:06:25Z</time>
</trkpt>
<trkpt lat="61.106913" lon="26.029408">
<time>2020-09-12T09:06:26Z</time>
</trkpt>
<trkpt lat="61.106896" lon="26.029522">
<time>2020-09-12T09:06:27Z</time>
</trkpt>
<trkpt lat="61.10689" lon="26.029636">
<time>2020-09-12T09:06:28Z</time>
</trkpt>
<trkpt lat="61.106885" lon="26.029764">
<time>2020-09-12T09:06:29Z</time>
</trkpt>
<trkpt lat="61.106884" lon="26.029885">
<time>2020-09-12T09:06:30Z</time>
</trkpt>
<trkpt lat="61.106889" lon="26.029992">
<time>2020-09-12T09:06:31Z</time>
</trkpt>
<trkpt lat="61.106899" lon="26.030089">
<time>2020-09-12T09:06:32Z</time>
</trkpt>
<trkpt lat="61.106905" lon="26.030164">
<time>2020-09-12T09:06:33Z</time>
</trkpt>
<trkpt lat="61.106905" lon="26.030215">
<time>2020-09-12T09:06:34Z</time>
</trkpt>
<trkpt lat="61.106894" lon="26.030257">
<time>2020-09-12T09:06:35Z</time>
</trkpt>
<trkpt lat="61.106879" lon="26.030284">
<time>2020-09-12T09:06:36Z</time>
</trkpt>
<trkpt lat="61.106866" lon="26.030305">
<time>2020-09-12T09:06:37Z</time>
</trkpt>
<trkpt lat="61.106846" lon="26.030319">
<time>2020-09-12T09:06:38Z</time>
</trkpt>
<trkpt lat="61.106828" lon="26.030342">
<time>2020-09-12T09:06:39Z</time>
</trkpt>
<trkpt lat="61.106804" lon="26.030387">
<time>2020-09-12T09:06:40Z</time>
</trkpt>
<trkpt lat="61.106786" lon="26.030439">
<time>2020-09-12T09:06:41Z</time>
</trkpt>
<trkpt lat="61.10676" lon="26.030488">
<time>2020-09-12T09:06:42Z</time>
</trkpt>
<trkpt lat="61.106718" lon="26.030553">
<time>2020-09-12T09:06:43Z</time>
</trkpt>
<trkpt lat="61.106675" lon="26.030612">
<time>2020-09-12T09:06:44Z</time>
</trkpt>
<trkpt lat="61.10664" lon="26.030641">
<time>2020-09-12T09:06:45Z</time>
</trkpt>
<trkpt lat="61.106606" lon="26.030645">
<time>2020-09-12T09:06:46Z</time>
</trkpt>
<trkpt lat="61.106563" lon="26.030628">
<time>2020-09-12T09:06:47Z</time>
</trkpt>
<trkpt lat="61.106523" lon="26.030621">
<time>2020-09-12T09:06:48Z</time>
</trkpt>
<trkpt lat="61.106487" lon="26.030645">
<time>2020-09-12T09:06:49Z</time>
</trkpt>
<trkpt lat="61.106465" lon="26.030674">
<time>2020-09-12T09:06:50Z</time>
</trkpt>
<trkpt lat="61.106455" lon="26.030703">
<time>2020-09-12T09:06:51Z</time>
</trkpt>
<trkpt lat="61.10645" lon="26.03071">
<time>2020-09-12T09:06:52Z</time>
</trkpt>
<trkpt lat="61.106444" lon="26.030718">
<time>2020-09-12T09:06:53Z</time>
</trkpt>
<trkpt lat="61.106441" lon="26.030723">
<time>2020-09-12T09:06:54Z</time>
</trkpt>
<trkpt lat="61.106437" lon="26.030729">
<time>2020-09-12T09:06:55Z</time>
</trkpt>
<trkpt lat="61.106436" lon="26.030733">
<time>2020-09-12T09:06:56Z</time>
</trkpt>
<trkpt lat="61.106438" lon="26.030735">
<time>2020-09-12T09:06:57Z</time>
</trkpt>
<trkpt lat="61.106439" lon="26.030739">
<time>2020-09-12T09:06:58Z</time>
</trkpt>
<trkpt lat="61.106448" lon="26.030743">
<time>2020-09-12T09:06:59Z</time>
</trkpt>
<trkpt lat="61.106462" lon="26.030742">
<time>2020-09-12T09:07:00Z</time>
</trkpt>
<trkpt lat="61.106477" lon="26.030744">
<time>2020-09-12T09:07:01Z</time>
</trkpt>
<trkpt lat="61.10649" lon="26.030753">
<time>2020-09-12T09:07:02Z</time>
</trkpt>
<trkpt lat="61.106503" lon="26.03078">
<time>2020-09-12T09:07:03Z</time>
</trkpt>
<trkpt lat="61.106513" lon="26.030819">
<time>2020-09-12T09:07:04Z</time>
</trkpt>
<trkpt lat="61.10652" lon="26.030866">
<time>2020-09-12T09:07:05Z</time>
</trkpt>
<trkpt lat="61.106523" lon="26.030908">
<time>2020-09-12T09:07:06Z</time>
</trkpt>
<trkpt lat="61.106521" lon="26.03095">
<time>2020-09-12T09:07:07Z</time>
</trkpt>
<trkpt lat="61.106522" lon="26.030993">
<time>2020-09-12T09:07:08Z</time>
</trkpt>
<trkpt lat="61.106525" lon="26.031033">
<time>2020-09-12T09:07:09Z</time>
</trkpt>
<trkpt lat="61.106531" lon="26.031084">
<time>2020-09-12T09:07:10Z</time>
</trkpt>
<trkpt lat="61.106542" lon="26.031142">
<time>2020-09-12T09:07:11Z</time>
</trkpt>
<trkpt lat="61.106552" lon="26.031214">
<time>2020-09-12T09:07:12Z</time>
</trkpt>
<trkpt lat="61.106562" lon="26.031289">
<time>2020-09-12T09:07:13Z</time>
</trkpt>
<trkpt lat="61.106565" lon="26.031357">
<time>2020-09-12T09:07:14Z</time>
</trkpt>
<trkpt lat="61.106576" lon="26.031432">
<time>2020-09-12T09:07:15Z</time>
</trkpt>
<trkpt lat="61.106595" lon="26.031514">
<time>2020-09-12T09:07:16Z</time>
</trkpt>
<trkpt lat="61.106609" lon="26.031588">
<time>2020-09-12T09:07:17Z</time>
</trkpt>
<trkpt lat="61.106613" lon="26.031673">
<time>2020-09-12T09:07:18Z</time>
</trkpt>
<trkpt lat="61.106613" lon="26.031765">
<time>2020-09-12T09:07:19Z</time>
</trkpt>
<trkpt lat="61.10662" lon="26.031854">
<time>2020-09-12T09:07:20Z</time>
</trkpt>
<trkpt lat="61.106631" lon="26.031945">
<time>2020-09-12T09:07:21Z</time>
</trkpt>
<trkpt lat="61.10664" lon="26.032032">
<time>2020-09-12T09:07:22Z</time>
</trkpt>
<trkpt lat="61.106658" lon="26.032139">
<time>2020-09-12T09:07:23Z</time>
</trkpt>
<trkpt lat="61.106678" lon="26.032227">
<time>2020-09-12T09:07:24Z</time>
</trkpt>
<trkpt lat="61.1067" lon="26.032307">
<time>2020-09-12T09:07:25Z</time>
</trkpt>
<trkpt lat="61.106716" lon="26.032393">
<time>2020-09-12T09:07:26Z</time>
</trkpt>
<trkpt lat="61.106741" lon="26.032476">
<time>2020-09-12T09:07:27Z</time>
</trkpt>
<trkpt lat="61.106764" lon="26.032542">
<time>2020-09-12T09:07:28Z</time>
</trkpt>
<trkpt lat="61.106782" lon="26.03261">
<time>2020-09-12T09:07:29Z</time>
</trkpt>
<trkpt lat="61.106805" lon="26.032672">
<time>2020-09-12T09:07:30Z</time>
</trkpt>
<trkpt lat="61.106831" lon="26.032743">
<time>2020-09-12T09:07:31Z</time>
</trkpt>
<trkpt lat="61.106849" lon="26.032816">
<time>2020-09-12T09:07:32Z</time>
</trkpt>
<trkpt lat="61.106869" lon="26.032891">
<time>2020-09-12T09:07:33Z</time>
</trkpt>
<trkpt lat="61.106888" lon="26.032975">
<time>2020-09-12T09:07:34Z</time>
</trkpt>
<trkpt lat="61.106903" lon="26.033046">
<time>2020-09-12T09:07:35Z</time>
</trkpt>
<trkpt lat="61.106916" lon="26.033118">
<time>2020-09-12T09:07:36Z</time>
</trkpt>
<trkpt lat="61.106928" lon="26.033195">
<time>2020-09-12T09:07:37Z</time>
</trkpt>
<trkpt lat="61.106941" lon="26.033264">
<time>2020-09-12T09:07:38Z</time>
</trkpt>
<trkpt lat="61.106956" lon="26.033345">
<time>2020-09-12T09:07:39Z</time>
</trkpt>
<trkpt lat="61.106964" lon="26.033425">
<time>2020-09-12T09:07:40Z</time>
</trkpt>
<trkpt lat="61.106975" lon="26.0335">
<time>2020-09-12T09:07:41Z</time>
</trkpt>
<trkpt lat="61.106984" lon="26.033577">
<time>2020-09-12T09:07:42Z</time>
</trkpt>
<trkpt lat="61.106992" lon="26.033633">
<time>2020-09-12T09:07:43Z</time>
</trkpt>
<trkpt lat="61.10699" lon="26.033685">
<time>2020-09-12T09:07:44Z</time>
</trkpt>
<trkpt lat="61.106984" lon="26.033753">
<time>2020-09-12T09:07:45Z</time>
</trkpt>
<trkpt lat="61.106985" lon="26.033835">
<time>2020-09-12T09:07:46Z</time>
</trkpt>
<trkpt lat="61.107" lon="26.03392">
<time>2020-09-12T09:07:47Z</time>
</trkpt>
<trkpt lat="61.107018" lon="26.033992">
<time>2020-09-12T09:07:48Z</time>
</trkpt>
<trkpt lat="61.107035" lon="26.034057">
<time>2020-09-12T09:07:49Z</time>
</trkpt>
<trkpt lat="61.107054" lon="26.034127">
<time>2020-09-12T09:07:50Z</time>
</trkpt>
<trkpt lat="61.107071" lon="26.034202">
<time>2020-09-12T09:07:51Z</time>
</trkpt>
<trkpt lat="61.107094" lon="26.034273">
<time>2020-09-12T09:07:52Z</time>
</trkpt>
<trkpt lat="61.107119" lon="26.034338">
<time>2020-09-12T09:07:53Z</time>
</trkpt>
<trkpt lat="61.107143" lon="26.034414">
<time>2020-09-12T09:07:54Z</time>
</trkpt>
<trkpt lat="61.107152" lon="26.034492">
<time>2020-09-12T09:07:55Z</time>
</trkpt>
<trkpt lat="61.107161" lon="26.034573">
<time>2020-09-12T09:07:56Z</time>
</trkpt>
<trkpt lat="61.107165" lon="26.034664">
<time>2020-09-12T09:07:57Z</time>
</trkpt>
<trkpt lat="61.107178" lon="26.034783">
<time>2020-09-12T09:07:58Z</time>
</trkpt>
<trkpt lat="61.107209" lon="26.034904">
<time>2020-09-12T09:07:59Z</time>
</trkpt>
<trkpt lat="61.107242" lon="26.03501">
<time>2020-09-12T09:08:00Z</time>
</trkpt>
<trkpt lat="61.107286" lon="26.035122">
<time>2020-09-12T09:08:01Z</time>
</trkpt>
<trkpt lat="61.107335" lon="26.035209">
<time>2020-09-12T09:08:02Z</time>
</trkpt>
<trkpt lat="61.107395" lon="26.035297">
<time>2020-09-12T09:08:03Z</time>
</trkpt>
<trkpt lat="61.107446" lon="26.035377">
<time>2020-09-12T09:08:04Z</time>
</trkpt>
<trkpt lat="61.107496" lon="26.035469">
<time>2020-09-12T09:08:05Z</time>
</trkpt>
<trkpt lat="61.107543" lon="26.035558">
<time>2020-09-12T09:08:06Z</time>
</trkpt>
<trkpt lat="61.107583" lon="26.035651">
<time>2020-09-12T09:08:07Z</time>
</trkpt>
<trkpt lat="61.107626" lon="26.03576">
<time>2020-09-12T09:08:08Z</time>
</trkpt>
<trkpt lat="61.107668" lon="26.035876">
<time>2020-09-12T09:08:09Z</time>
</trkpt>
<trkpt lat="61.107704" lon="26.035998">
<time>2020-09-12T09:08:10Z</time>
</trkpt>
<trkpt lat="61.107747" lon="26.036116">
<time>2020-09-12T09:08:11Z</time>
</trkpt>
<trkpt lat="61.107802" lon="26.036232">
<time>2020-09-12T09:08:12Z</time>
</trkpt>
<trkpt lat="61.107854" lon="26.036335">
<time>2020-09-12T09:08:13Z</time>
</trkpt>
<trkpt lat="61.107911" lon="26.036416">
<time>2020-09-12T09:08:14Z</time>
</trkpt>
<trkpt lat="61.107975" lon="26.036484">
<time>2020-09-12T09:08:15Z</time>
</trkpt>
<trkpt lat="61.108038" lon="26.036545">
<time>2020-09-12T09:08:16Z</time>
</trkpt>
<trkpt lat="61.108103" lon="26.036617">
<time>2020-09-12T09:08:17Z</time>
</trkpt>
<trkpt lat="61.108172" lon="26.036692">
<time>2020-09-12T09:08:18Z</time>
</trkpt>
<trkpt lat="61.108243" lon="26.036754">
<time>2020-09-12T09:08:19Z</time>
</trkpt>
<trkpt lat="61.108314" lon="26.0368">
<time>2020-09-12T09:08:20Z</time>
</trkpt>
<trkpt lat="61.108387" lon="26.036831">
<time>2020-09-12T09:08:21Z</time>
</trkpt>
<trkpt lat="61.108453" lon="26.036879">
<time>2020-09-12T09:08:22Z</time>
</trkpt>
<trkpt lat="61.108526" lon="26.036947">
<time>2020-09-12T09:08:23Z</time>
</trkpt>
<trkpt lat="61.108595" lon="26.037018">
<time>2020-09-12T09:08:24Z</time>
</trkpt>
<trkpt lat="61.108663" lon="26.037075">
<time>2020-09-12T09:08:25Z</time>
</trkpt>
<trkpt lat="61.108733" lon="26.03712">
<time>2020-09-12T09:08:26Z</time>
</trkpt>
<trkpt lat="61.108801" lon="26.037148">
<time>2020-09-12T09:08:27Z</time>
</trkpt>
<trkpt lat="61.10887" lon="26.03717">
<time>2020-09-12T09:08:28Z</time>
</trkpt>
<trkpt lat="61.108937" lon="26.037185">
<time>2020-09-12T09:08:29Z</time>
</trkpt>
<trkpt lat="61.109005" lon="26.037195">
<time>2020-09-12T09:08:30Z</time>
</trkpt>
<trkpt lat="61.109074" lon="26.037206">
<time>2020-09-12T09:08:31Z</time>
</trkpt>
<trkpt lat="61.109143" lon="26.037217">
<time>2020-09-12T09:08:32Z</time>
</trkpt>
<trkpt lat="61.109213" lon="26.037238">
<time>2020-09-12T09:08:33Z</time>
</trkpt>
<trkpt lat="61.109283" lon="26.037265">
<time>2020-09-12T09:08:34Z</time>
</trkpt>
<trkpt lat="61.109353" lon="26.037291">
<time>2020-09-12T09:08:35Z</time>
</trkpt>
<trkpt lat="61.10942" lon="26.037313">
<time>2020-09-12T09:08:36Z</time>
</trkpt>
<trkpt lat="61.109487" lon="26.03733">
<time>2020-09-12T09:08:37Z</time>
</trkpt>
<trkpt lat="61.109552" lon="26.037347">
<time>2020-09-12T09:08:38Z</time>
</trkpt>
<trkpt lat="61.10962" lon="26.037363">
<time>2020-09-12T09:08:39Z</time>
</trkpt>
<trkpt lat="61.109691" lon="26.037384">
<time>2020-09-12T09:08:40Z</time>
</trkpt>
<trkpt lat="61.109766" lon="26.037404">
<time>2020-09-12T09:08:41Z</time>
</trkpt>
<trkpt lat="61.109845" lon="26.037419">
<time>2020-09-12T09:08:42Z</time>
</trkpt>
<trkpt lat="61.109927" lon="26.037428">
<time>2020-09-12T09:08:43Z</time>
</trkpt>
<trkpt lat="61.110006" lon="26.037431">
<time>2020-09-12T09:08:44Z</time>
</trkpt>
<trkpt lat="61.110084" lon="26.037432">
<time>2020-09-12T09:08:45Z</time>
</trkpt>
<trkpt lat="61.110165" lon="26.037426">
<time>2020-09-12T09:08:46Z</time>
</trkpt>
<trkpt lat="61.110245" lon="26.037406">
<time>2020-09-12T09:08:47Z</time>
</trkpt>
<trkpt lat="61.110327" lon="26.037379">
<time>2020-09-12T09:08:48Z</time>
</trkpt>
<trkpt lat="61.110409" lon="26.037346">
<time>2020-09-12T09:08:49Z</time>
</trkpt>
<trkpt lat="61.110488" lon="26.037303">
<time>2020-09-12T09:08:50Z</time>
</trkpt>
<trkpt lat="61.110561" lon="26.037242">
<time>2020-09-12T09:08:51Z</time>
</trkpt>
<trkpt lat="61.110632" lon="26.037174">
<time>2020-09-12T09:08:52Z</time>
</trkpt>
<trkpt lat="61.110703" lon="26.037113">
<time>2020-09-12T09:08:53Z</time>
</trkpt>
<trkpt lat="61.110774" lon="26.037069">
<time>2020-09-12T09:08:54Z</time>
</trkpt>
<trkpt lat="61.110847" lon="26.037048">
<time>2020-09-12T09:08:55Z</time>
</trkpt>
<trkpt lat="61.110923" lon="26.037043">
<time>2020-09-12T09:08:56Z</time>
</trkpt>
<trkpt lat="61.111002" lon="26.037048">
<time>2020-09-12T09:08:57Z</time>
</trkpt>
<trkpt lat="61.111081" lon="26.037058">
<time>2020-09-12T09:08:58Z</time>
</trkpt>
<trkpt lat="61.111161" lon="26.037079">
<time>2020-09-12T09:08:59Z</time>
</trkpt>
<trkpt lat="61.111238" lon="26.0371">
<time>2020-09-12T09:09:00Z</time>
</trkpt>
<trkpt lat="61.111318" lon="26.037131">
<time>2020-09-12T09:09:01Z</time>
</trkpt>
<trkpt lat="61.111394" lon="26.037166">
<time>2020-09-12T09:09:02Z</time>
</trkpt>
<trkpt lat="61.111475" lon="26.037201">
<time>2020-09-12T09:09:03Z</time>
</trkpt>
<trkpt lat="61.111559" lon="26.037231">
<time>2020-09-12T09:09:04Z</time>
</trkpt>
<trkpt lat="61.111643" lon="26.037252">
<time>2020-09-12T09:09:05Z</time>
</trkpt>
<trkpt lat="61.111731" lon="26.037263">
<time>2020-09-12T09:09:06Z</time>
</trkpt>
<trkpt lat="61.111814" lon="26.03727">
<time>2020-09-12T09:09:07Z</time>
</trkpt>
<trkpt lat="61.111894" lon="26.037278">
<time>2020-09-12T09:09:08Z</time>
</trkpt>
<trkpt lat="61.111974" lon="26.03729">
<time>2020-09-12T09:09:09Z</time>
</trkpt>
<trkpt lat="61.112052" lon="26.037307">
<time>2020-09-12T09:09:10Z</time>
</trkpt>
<trkpt lat="61.112129" lon="26.037334">
<time>2020-09-12T09:09:11Z</time>
</trkpt>
<trkpt lat="61.112207" lon="26.037366">
<time>2020-09-12T09:09:12Z</time>
</trkpt>
<trkpt lat="61.112287" lon="26.037406">
<time>2020-09-12T09:09:13Z</time>
</trkpt>
<trkpt lat="61.112368" lon="26.037451">
<time>2020-09-12T09:09:14Z</time>
</trkpt>
<trkpt lat="61.112447" lon="26.0375">
<time>2020-09-12T09:09:15Z</time>
</trkpt>
<trkpt lat="61.112522" lon="26.037562">
<time>2020-09-12T09:09:16Z</time>
</trkpt>
<trkpt lat="61.112593" lon="26.037643">
<time>2020-09-12T09:09:17Z</time>
</trkpt>
<trkpt lat="61.112662" lon="26.03775">
<time>2020-09-12T09:09:18Z</time>
</trkpt>
<trkpt lat="61.112729" lon="26.037862">
<time>2020-09-12T09:09:19Z</time>
</trkpt>
<trkpt lat="61.112795" lon="26.037976">
<time>2020-09-12T09:09:20Z</time>
</trkpt>
<trkpt lat="61.112862" lon="26.03809">
<time>2020-09-12T09:09:21Z</time>
</trkpt>
<trkpt lat="61.112934" lon="26.038201">
<time>2020-09-12T09:09:22Z</time>
</trkpt>
<trkpt lat="61.113012" lon="26.038306">
<time>2020-09-12T09:09:23Z</time>
</trkpt>
<trkpt lat="61.11309" lon="26.038395">
<time>2020-09-12T09:09:24Z</time>
</trkpt>
<trkpt lat="61.113171" lon="26.038466">
<time>2020-09-12T09:09:25Z</time>
</trkpt>
<trkpt lat="61.113253" lon="26.038522">
<time>2020-09-12T09:09:26Z</time>
</trkpt>
<trkpt lat="61.113335" lon="26.038571">
<time>2020-09-12T09:09:27Z</time>
</trkpt>
<trkpt lat="61.113417" lon="26.038607">
<time>2020-09-12T09:09:28Z</time>
</trkpt>
<trkpt lat="61.113502" lon="26.038627">
<time>2020-09-12T09:09:29Z</time>
</trkpt>
<trkpt lat="61.113586" lon="26.038635">
<time>2020-09-12T09:09:30Z</time>
</trkpt>
<trkpt lat="61.113665" lon="26.038627">
<time>2020-09-12T09:09:31Z</time>
</trkpt>
<trkpt lat="61.113743" lon="26.03861">
<time>2020-09-12T09:09:32Z</time>
</trkpt>
<trkpt lat="61.113823" lon="26.038587">
<time>2020-09-12T09:09:33Z</time>
</trkpt>
<trkpt lat="61.113902" lon="26.038568">
<time>2020-09-12T09:09:34Z</time>
</trkpt>
<trkpt lat="61.113981" lon="26.038548">
<time>2020-09-12T09:09:35Z</time>
</trkpt>
<trkpt lat="61.114063" lon="26.038524">
<time>2020-09-12T09:09:36Z</time>
</trkpt>
<trkpt lat="61.114148" lon="26.038497">
<time>2020-09-12T09:09:37Z</time>
</trkpt>
<trkpt lat="61.114229" lon="26.038474">
<time>2020-09-12T09:09:38Z</time>
</trkpt>
<trkpt lat="61.114307" lon="26.038448">
<time>2020-09-12T09:09:39Z</time>
</trkpt>
<trkpt lat="61.114381" lon="26.038426">
<time>2020-09-12T09:09:40Z</time>
</trkpt>
<trkpt lat="61.114456" lon="26.038407">
<time>2020-09-12T09:09:41Z</time>
</trkpt>
<trkpt lat="61.114533" lon="26.038391">
<time>2020-09-12T09:09:42Z</time>
</trkpt>
<trkpt lat="61.114611" lon="26.038373">
<time>2020-09-12T09:09:43Z</time>
</trkpt>
<trkpt lat="61.114686" lon="26.038348">
<time>2020-09-12T09:09:44Z</time>
</trkpt>
<trkpt lat="61.114761" lon="26.038322">
<time>2020-09-12T09:09:45Z</time>
</trkpt>
<trkpt lat="61.114834" lon="26.038298">
<time>2020-09-12T09:09:46Z</time>
</trkpt>
<trkpt lat="61.114906" lon="26.038257">
<time>2020-09-12T09:09:47Z</time>
</trkpt>
<trkpt lat="61.114966" lon="26.038187">
<time>2020-09-12T09:09:48Z</time>
</trkpt>
<trkpt lat="61.115006" lon="26.038095">
<time>2020-09-12T09:09:49Z</time>
</trkpt>
<trkpt lat="61.115041" lon="26.037987">
<time>2020-09-12T09:09:50Z</time>
</trkpt>
<trkpt lat="61.115078" lon="26.037878">
<time>2020-09-12T09:09:51Z</time>
</trkpt>
<trkpt lat="61.115116" lon="26.037769">
<time>2020-09-12T09:09:52Z</time>
</trkpt>
<trkpt lat="61.115148" lon="26.037651">
<time>2020-09-12T09:09:53Z</time>
</trkpt>
<trkpt lat="61.115178" lon="26.03753">
<time>2020-09-12T09:09:54Z</time>
</trkpt>
<trkpt lat="61.115207" lon="26.037401">
<time>2020-09-12T09:09:55Z</time>
</trkpt>
<trkpt lat="61.115232" lon="26.03727">
<time>2020-09-12T09:09:56Z</time>
</trkpt>
<trkpt lat="61.115262" lon="26.037134">
<time>2020-09-12T09:09:57Z</time>
</trkpt>
<trkpt lat="61.115293" lon="26.037006">
<time>2020-09-12T09:09:58Z</time>
</trkpt>
<trkpt lat="61.115322" lon="26.036889">
<time>2020-09-12T09:09:59Z</time>
</trkpt>
<trkpt lat="61.115353" lon="26.036769">
<time>2020-09-12T09:10:00Z</time>
</trkpt>
<trkpt lat="61.115379" lon="26.036645">
<time>2020-09-12T09:10:01Z</time>
</trkpt>
<trkpt lat="61.115399" lon="26.03652">
<time>2020-09-12T09:10:02Z</time>
</trkpt>
<trkpt lat="61.115412" lon="26.036398">
<time>2020-09-12T09:10:03Z</time>
</trkpt>
<trkpt lat="61.115421" lon="26.036276">
<time>2020-09-12T09:10:04Z</time>
</trkpt>
<trkpt lat="61.115418" lon="26.036154">
<time>2020-09-12T09:10:05Z</time>
</trkpt>
<trkpt lat="61.115417" lon="26.036026">
<time>2020-09-12T09:10:06Z</time>
</trkpt>
<trkpt lat="61.115415" lon="26.035888">
<time>2020-09-12T09:10:07Z</time>
</trkpt>
<trkpt lat="61.115412" lon="26.035748">
<time>2020-09-12T09:10:08Z</time>
</trkpt>
<trkpt lat="61.11541" lon="26.035609">
<time>2020-09-12T09:10:09Z</time>
</trkpt>
<trkpt lat="61.115408" lon="26.035465">
<time>2020-09-12T09:10:10Z</time>
</trkpt>
<trkpt lat="61.115409" lon="26.035332">
<time>2020-09-12T09:10:11Z</time>
</trkpt>
<trkpt lat="61.115412" lon="26.035196">
<time>2020-09-12T09:10:12Z</time>
</trkpt>
<trkpt lat="61.115414" lon="26.03506">
<time>2020-09-12T09:10:13Z</time>
</trkpt>
<trkpt lat="61.115413" lon="26.034931">
<time>2020-09-12T09:10:14Z</time>
</trkpt>
<trkpt lat="61.11541" lon="26.034799">
<time>2020-09-12T09:10:15Z</time>
</trkpt>
<trkpt lat="61.115405" lon="26.034661">
<time>2020-09-12T09:10:16Z</time>
</trkpt>
<trkpt lat="61.1154" lon="26.034527">
<time>2020-09-12T09:10:17Z</time>
</trkpt>
<trkpt lat="61.115398" lon="26.034398">
<time>2020-09-12T09:10:18Z</time>
</trkpt>
<trkpt lat="61.11539" lon="26.034267">
<time>2020-09-12T09:10:19Z</time>
</trkpt>
<trkpt lat="61.115382" lon="26.034134">
<time>2020-09-12T09:10:20Z</time>
</trkpt>
<trkpt lat="61.115379" lon="26.034002">
<time>2020-09-12T09:10:21Z</time>
</trkpt>
<trkpt lat="61.115379" lon="26.033866">
<time>2020-09-12T09:10:22Z</time>
</trkpt>
<trkpt lat="61.115378" lon="26.033732">
<time>2020-09-12T09:10:23Z</time>
</trkpt>
<trkpt lat="61.115377" lon="26.033598">
<time>2020-09-12T09:10:24Z</time>
</trkpt>
<trkpt lat="61.115376" lon="26.033458">
<time>2020-09-12T09:10:25Z</time>
</trkpt>
<trkpt lat="61.115378" lon="26.033325">
<time>2020-09-12T09:10:26Z</time>
</trkpt>
<trkpt lat="61.11538" lon="26.033187">
<time>2020-09-12T09:10:27Z</time>
</trkpt>
<trkpt lat="61.115381" lon="26.033043">
<time>2020-09-12T09:10:28Z</time>
</trkpt>
<trkpt lat="61.115386" lon="26.032902">
<time>2020-09-12T09:10:29Z</time>
</trkpt>
<trkpt lat="61.11539" lon="26.032765">
<time>2020-09-12T09:10:30Z</time>
</trkpt>
<trkpt lat="61.115389" lon="26.03263">
<time>2020-09-12T09:10:31Z</time>
</trkpt>
<trkpt lat="61.115388" lon="26.032496">
<time>2020-09-12T09:10:32Z</time>
</trkpt>
<trkpt lat="61.115392" lon="26.032369">
<time>2020-09-12T09:10:33Z</time>
</trkpt>
<trkpt lat="61.115409" lon="26.03225">
<time>2020-09-12T09:10:34Z</time>
</trkpt>
<trkpt lat="61.115432" lon="26.032129">
<time>2020-09-12T09:10:35Z</time>
</trkpt>
<trkpt lat="61.115459" lon="26.032013">
<time>2020-09-12T09:10:36Z</time>
</trkpt>
<trkpt lat="61.115482" lon="26.031886">
<time>2020-09-12T09:10:37Z</time>
</trkpt>
<trkpt lat="61.115511" lon="26.031775">
<time>2020-09-12T09:10:38Z</time>
</trkpt>
<trkpt lat="61.115547" lon="26.031683">
<time>2020-09-12T09:10:39Z</time>
</trkpt>
<trkpt lat="61.115583" lon="26.03161">
<time>2020-09-12T09:10:40Z</time>
</trkpt>
<trkpt lat="61.115613" lon="26.031535">
<time>2020-09-12T09:10:41Z</time>
</trkpt>
<trkpt lat="61.115644" lon="26.031469">
<time>2020-09-12T09:10:42Z</time>
</trkpt>
<trkpt lat="61.115676" lon="26.031421">
<time>2020-09-12T09:10:43Z</time>
</trkpt>
<trkpt lat="61.115707" lon="26.031399">
<time>2020-09-12T09:10:44Z</time>
</trkpt>
<trkpt lat="61.115734" lon="26.031392">
<time>2020-09-12T09:10:45Z</time>
</trkpt>
<trkpt lat="61.115762" lon="26.03142">
<time>2020-09-12T09:10:46Z</time>
</trkpt>
<trkpt lat="61.115795" lon="26.031492">
<time>2020-09-12T09:10:47Z</time>
</trkpt>
<trkpt lat="61.115836" lon="26.031578">
<time>2020-09-12T09:10:48Z</time>
</trkpt>
<trkpt lat="61.115885" lon="26.031664">
<time>2020-09-12T09:10:49Z</time>
</trkpt>
<trkpt lat="61.115934" lon="26.031752">
<time>2020-09-12T09:10:50Z</time>
</trkpt>
<trkpt lat="61.115987" lon="26.03184">
<time>2020-09-12T09:10:51Z</time>
</trkpt>
<trkpt lat="61.116042" lon="26.031932">
<time>2020-09-12T09:10:52Z</time>
</trkpt>
<trkpt lat="61.116101" lon="26.032025">
<time>2020-09-12T09:10:53Z</time>
</trkpt>
<trkpt lat="61.116165" lon="26.032122">
<time>2020-09-12T09:10:54Z</time>
</trkpt>
<trkpt lat="61.116224" lon="26.032225">
<time>2020-09-12T09:10:55Z</time>
</trkpt>
<trkpt lat="61.116277" lon="26.032332">
<time>2020-09-12T09:10:56Z</time>
</trkpt>
<trkpt lat="61.116326" lon="26.03243">
<time>2020-09-12T09:10:57Z</time>
</trkpt>
<trkpt lat="61.116371" lon="26.03254">
<time>2020-09-12T09:10:58Z</time>
</trkpt>
<trkpt lat="61.116413" lon="26.032666">
<time>2020-09-12T09:10:59Z</time>
</trkpt>
<trkpt lat="61.116456" lon="26.032792">
<time>2020-09-12T09:11:00Z</time>
</trkpt>
<trkpt lat="61.116499" lon="26.032924">
<time>2020-09-12T09:11:01Z</time>
</trkpt>
<trkpt lat="61.116544" lon="26.033059">
<time>2020-09-12T09:11:02Z</time>
</trkpt>
<trkpt lat="61.116586" lon="26.033192">
<time>2020-09-12T09:11:03Z</time>
</trkpt>
<trkpt lat="61.116627" lon="26.033343">
<time>2020-09-12T09:11:04Z</time>
</trkpt>
<trkpt lat="61.116668" lon="26.033497">
<time>2020-09-12T09:11:05Z</time>
</trkpt>
<trkpt lat="61.116706" lon="26.033653">
<time>2020-09-12T09:11:06Z</time>
</trkpt>
<trkpt lat="61.116738" lon="26.033807">
<time>2020-09-12T09:11:07Z</time>
</trkpt>
<trkpt lat="61.116764" lon="26.03396">
<time>2020-09-12T09:11:08Z</time>
</trkpt>
<trkpt lat="61.116789" lon="26.034109">
<time>2020-09-12T09:11:09Z</time>
</trkpt>
<trkpt lat="61.116808" lon="26.034252">
<time>2020-09-12T09:11:10Z</time>
</trkpt>
<trkpt lat="61.116826" lon="26.034405">
<time>2020-09-12T09:11:11Z</time>
</trkpt>
<trkpt lat="61.116842" lon="26.034564">
<time>2020-09-12T09:11:12Z</time>
</trkpt>
<trkpt lat="61.116853" lon="26.034723">
<time>2020-09-12T09:11:13Z</time>
</trkpt>
<trkpt lat="61.116863" lon="26.034875">
<time>2020-09-12T09:11:14Z</time>
</trkpt>
<trkpt lat="61.116871" lon="26.035028">
<time>2020-09-12T09:11:15Z</time>
</trkpt>
<trkpt lat="61.116876" lon="26.035176">
<time>2020-09-12T09:11:16Z</time>
</trkpt>
<trkpt lat="61.116877" lon="26.03533">
<time>2020-09-12T09:11:17Z</time>
</trkpt>
<trkpt lat="61.116878" lon="26.035487">
<time>2020-09-12T09:11:18Z</time>
</trkpt>
<trkpt lat="61.116895" lon="26.035631">
<time>2020-09-12T09:11:19Z</time>
</trkpt>
<trkpt lat="61.116926" lon="26.035754">
<time>2020-09-12T09:11:20Z</time>
</trkpt>
<trkpt lat="61.116968" lon="26.035852">
<time>2020-09-12T09:11:21Z</time>
</trkpt>
<trkpt lat="61.117028" lon="26.035919">
<time>2020-09-12T09:11:22Z</time>
</trkpt>
<trkpt lat="61.117092" lon="26.035968">
<time>2020-09-12T09:11:23Z</time>
</trkpt>
<trkpt lat="61.117161" lon="26.035984">
<time>2020-09-12T09:11:24Z</time>
</trkpt>
<trkpt lat="61.117233" lon="26.035975">
<time>2020-09-12T09:11:25Z</time>
</trkpt>
<trkpt lat="61.117307" lon="26.035937">
<time>2020-09-12T09:11:26Z</time>
</trkpt>
<trkpt lat="61.117375" lon="26.035865">
<time>2020-09-12T09:11:27Z</time>
</trkpt>
<trkpt lat="61.117436" lon="26.035772">
<time>2020-09-12T09:11:28Z</time>
</trkpt>
<trkpt lat="61.117487" lon="26.035655">
<time>2020-09-12T09:11:29Z</time>
</trkpt>
<trkpt lat="61.117526" lon="26.035522">
<time>2020-09-12T09:11:30Z</time>
</trkpt>
<trkpt lat="61.117561" lon="26.035381">
<time>2020-09-12T09:11:31Z</time>
</trkpt>
<trkpt lat="61.117599" lon="26.03525">
<time>2020-09-12T09:11:32Z</time>
</trkpt>
<trkpt lat="61.117647" lon="26.035126">
<time>2020-09-12T09:11:33Z</time>
</trkpt>
<trkpt lat="61.1177" lon="26.035017">
<time>2020-09-12T09:11:34Z</time>
</trkpt>
<trkpt lat="61.117753" lon="26.034915">
<time>2020-09-12T09:11:35Z</time>
</trkpt>
<trkpt lat="61.117808" lon="26.034825">
<time>2020-09-12T09:11:36Z</time>
</trkpt>
<trkpt lat="61.117869" lon="26.034736">
<time>2020-09-12T09:11:37Z</time>
</trkpt>
<trkpt lat="61.117931" lon="26.034651">
<time>2020-09-12T09:11:38Z</time>
</trkpt>
<trkpt lat="61.117995" lon="26.034569">
<time>2020-09-12T09:11:39Z</time>
</trkpt>
<trkpt lat="61.118058" lon="26.034479">
<time>2020-09-12T09:11:40Z</time>
</trkpt>
<trkpt lat="61.118117" lon="26.03438">
<time>2020-09-12T09:11:41Z</time>
</trkpt>
<trkpt lat="61.118168" lon="26.034275">
<time>2020-09-12T09:11:42Z</time>
</trkpt>
<trkpt lat="61.118219" lon="26.034171">
<time>2020-09-12T09:11:43Z</time>
</trkpt>
<trkpt lat="61.11827" lon="26.034072">
<time>2020-09-12T09:11:44Z</time>
</trkpt>
<trkpt lat="61.118322" lon="26.033972">
<time>2020-09-12T09:11:45Z</time>
</trkpt>
<trkpt lat="61.118372" lon="26.033876">
<time>2020-09-12T09:11:46Z</time>
</trkpt>
<trkpt lat="61.118434" lon="26.033779">
<time>2020-09-12T09:11:47Z</time>
</trkpt>
<trkpt lat="61.118497" lon="26.033688">
<time>2020-09-12T09:11:48Z</time>
</trkpt>
<trkpt lat="61.118564" lon="26.033598">
<time>2020-09-12T09:11:49Z</time>
</trkpt>
<trkpt lat="61.118638" lon="26.033496">
<time>2020-09-12T09:11:50Z</time>
</trkpt>
<trkpt lat="61.118702" lon="26.033372">
<time>2020-09-12T09:11:51Z</time>
</trkpt>
<trkpt lat="61.118756" lon="26.033219">
<time>2020-09-12T09:11:52Z</time>
</trkpt>
<trkpt lat="61.118789" lon="26.033067">
<time>2020-09-12T09:11:53Z</time>
</trkpt>
<trkpt lat="61.118805" lon="26.032923">
<time>2020-09-12T09:11:54Z</time>
</trkpt>
<trkpt lat="61.118824" lon="26.032794">
<time>2020-09-12T09:11:55Z</time>
</trkpt>
<trkpt lat="61.118843" lon="26.032672">
<time>2020-09-12T09:11:56Z</time>
</trkpt>
<trkpt lat="61.118865" lon="26.032556">
<time>2020-09-12T09:11:57Z</time>
</trkpt>
<trkpt lat="61.118893" lon="26.032442">
<time>2020-09-12T09:11:58Z</time>
</trkpt>
<trkpt lat="61.11892" lon="26.032331">
<time>2020-09-12T09:11:59Z</time>
</trkpt>
<trkpt lat="61.118935" lon="26.032224">
<time>2020-09-12T09:12:00Z</time>
</trkpt>
<trkpt lat="61.11894" lon="26.032133">
<time>2020-09-12T09:12:01Z</time>
</trkpt>
<trkpt lat="61.118941" lon="26.03205">
<time>2020-09-12T09:12:02Z</time>
</trkpt>
<trkpt lat="61.118942" lon="26.031977">
<time>2020-09-12T09:12:03Z</time>
</trkpt>
<trkpt lat="61.118943" lon="26.03191">
<time>2020-09-12T09:12:04Z</time>
</trkpt>
<trkpt lat="61.118944" lon="26.03185">
<time>2020-09-12T09:12:05Z</time>
</trkpt>
<trkpt lat="61.118944" lon="26.03179">
<time>2020-09-12T09:12:06Z</time>
</trkpt>
<trkpt lat="61.11894" lon="26.031722">
<time>2020-09-12T09:12:07Z</time>
</trkpt>
<trkpt lat="61.118937" lon="26.031655">
<time>2020-09-12T09:12:08Z</time>
</trkpt>
<trkpt lat="61.118936" lon="26.031583">
<time>2020-09-12T09:12:09Z</time>
</trkpt>
<trkpt lat="61.118937" lon="26.031511">
<time>2020-09-12T09:12:10Z</time>
</trkpt>
<trkpt lat="61.118941" lon="26.031431">
<time>2020-09-12T09:12:11Z</time>
</trkpt>
<trkpt lat="61.118944" lon="26.031346">
<time>2020-09-12T09:12:12Z</time>
</trkpt>
<trkpt lat="61.118949" lon="26.031262">
<time>2020-09-12T09:12:13Z</time>
</trkpt>
<trkpt lat="61.118952" lon="26.031186">
<time>2020-09-12T09:12:14Z</time>
</trkpt>
<trkpt lat="61.118955" lon="26.031116">
<time>2020-09-12T09:12:15Z</time>
</trkpt>
<trkpt lat="61.118955" lon="26.031043">
<time>2020-09-12T09:12:16Z</time>
</trkpt>
<trkpt lat="61.11896" lon="26.030972">
<time>2020-09-12T09:12:17Z</time>
</trkpt>
<trkpt lat="61.118959" lon="26.030901">
<time>2020-09-12T09:12:18Z</time>
</trkpt>
<trkpt lat="61.118952" lon="26.030819">
<time>2020-09-12T09:12:19Z</time>
</trkpt>
<trkpt lat="61.11894" lon="26.030729">
<time>2020-09-12T09:12:20Z</time>
</trkpt>
<trkpt lat="61.11892" lon="26.030633">
<time>2020-09-12T09:12:21Z</time>
</trkpt>
<trkpt lat="61.118896" lon="26.030535">
<time>2020-09-12T09:12:22Z</time>
</trkpt>
<trkpt lat="61.118868" lon="26.030435">
<time>2020-09-12T09:12:23Z</time>
</trkpt>
<trkpt lat="61.11884" lon="26.030324">
<time>2020-09-12T09:12:24Z</time>
</trkpt>
<trkpt lat="61.118812" lon="26.030213">
<time>2020-09-12T09:12:25Z</time>
</trkpt>
<trkpt lat="61.118787" lon="26.0301">
<time>2020-09-12T09:12:26Z</time>
</trkpt>
<trkpt lat="61.118756" lon="26.029975">
<time>2020-09-12T09:12:27Z</time>
</trkpt>
<trkpt lat="61.118725" lon="26.029846">
<time>2020-09-12T09:12:28Z</time>
</trkpt>
<trkpt lat="61.118694" lon="26.029712">
<time>2020-09-12T09:12:29Z</time>
</trkpt>
<trkpt lat="61.118661" lon="26.029574">
<time>2020-09-12T09:12:30Z</time>
</trkpt>
<trkpt lat="61.118628" lon="26.029433">
<time>2020-09-12T09:12:31Z</time>
</trkpt>
<trkpt lat="61.118608" lon="26.029291">
<time>2020-09-12T09:12:32Z</time>
</trkpt>
<trkpt lat="61.1186" lon="26.029155">
<time>2020-09-12T09:12:33Z</time>
</trkpt>
<trkpt lat="61.118623" lon="26.029035">
<time>2020-09-12T09:12:34Z</time>
</trkpt>
<trkpt lat="61.118655" lon="26.028942">
<time>2020-09-12T09:12:35Z</time>
</trkpt>
<trkpt lat="61.118697" lon="26.028861">
<time>2020-09-12T09:12:36Z</time>
</trkpt>
<trkpt lat="61.118748" lon="26.028789">
<time>2020-09-12T09:12:37Z</time>
</trkpt>
<trkpt lat="61.118805" lon="26.028717">
<time>2020-09-12T09:12:38Z</time>
</trkpt>
<trkpt lat="61.118867" lon="26.028624">
<time>2020-09-12T09:12:39Z</time>
</trkpt>
<trkpt lat="61.118933" lon="26.028507">
<time>2020-09-12T09:12:40Z</time>
</trkpt>
<trkpt lat="61.118996" lon="26.028365">
<time>2020-09-12T09:12:41Z</time>
</trkpt>
<trkpt lat="61.119049" lon="26.02821">
<time>2020-09-12T09:12:42Z</time>
</trkpt>
<trkpt lat="61.119105" lon="26.028053">
<time>2020-09-12T09:12:43Z</time>
</trkpt>
<trkpt lat="61.119156" lon="26.027893">
<time>2020-09-12T09:12:44Z</time>
</trkpt>
<trkpt lat="61.119204" lon="26.027735">
<time>2020-09-12T09:12:45Z</time>
</trkpt>
<trkpt lat="61.119251" lon="26.027584">
<time>2020-09-12T09:12:46Z</time>
</trkpt>
<trkpt lat="61.119295" lon="26.027438">
<time>2020-09-12T09:12:47Z</time>
</trkpt>
<trkpt lat="61.119342" lon="26.027304">
<time>2020-09-12T09:12:48Z</time>
</trkpt>
<trkpt lat="61.119387" lon="26.027186">
<time>2020-09-12T09:12:49Z</time>
</trkpt>
<trkpt lat="61.119429" lon="26.027082">
<time>2020-09-12T09:12:50Z</time>
</trkpt>
<trkpt lat="61.119471" lon="26.026983">
<time>2020-09-12T09:12:51Z</time>
</trkpt>
<trkpt lat="61.119513" lon="26.026881">
<time>2020-09-12T09:12:52Z</time>
</trkpt>
<trkpt lat="61.119546" lon="26.026767">
<time>2020-09-12T09:12:53Z</time>
</trkpt>
<trkpt lat="61.119575" lon="26.026644">
<time>2020-09-12T09:12:54Z</time>
</trkpt>
<trkpt lat="61.119604" lon="26.026513">
<time>2020-09-12T09:12:55Z</time>
</trkpt>
<trkpt lat="61.119632" lon="26.026377">
<time>2020-09-12T09:12:56Z</time>
</trkpt>
<trkpt lat="61.119662" lon="26.026239">
<time>2020-09-12T09:12:57Z</time>
</trkpt>
<trkpt lat="61.119698" lon="26.026103">
<time>2020-09-12T09:12:58Z</time>
</trkpt>
<trkpt lat="61.119733" lon="26.025969">
<time>2020-09-12T09:12:59Z</time>
</trkpt>
<trkpt lat="61.119767" lon="26.025829">
<time>2020-09-12T09:13:00Z</time>
</trkpt>
<trkpt lat="61.119796" lon="26.025681">
<time>2020-09-12T09:13:01Z</time>
</trkpt>
<trkpt lat="61.119822" lon="26.02553">
<time>2020-09-12T09:13:02Z</time>
</trkpt>
<trkpt lat="61.119832" lon="26.025365">
<time>2020-09-12T09:13:03Z</time>
</trkpt>
<trkpt lat="61.119821" lon="26.025195">
<time>2020-09-12T09:13:04Z</time>
</trkpt>
<trkpt lat="61.119797" lon="26.025031">
<time>2020-09-12T09:13:05Z</time>
</trkpt>
<trkpt lat="61.119766" lon="26.024882">
<time>2020-09-12T09:13:06Z</time>
</trkpt>
<trkpt lat="61.119718" lon="26.024756">
<time>2020-09-12T09:13:07Z</time>
</trkpt>
<trkpt lat="61.119674" lon="26.024629">
<time>2020-09-12T09:13:08Z</time>
</trkpt>
<trkpt lat="61.119641" lon="26.024502">
<time>2020-09-12T09:13:09Z</time>
</trkpt>
<trkpt lat="61.119609" lon="26.024372">
<time>2020-09-12T09:13:10Z</time>
</trkpt>
<trkpt lat="61.119585" lon="26.024247">
<time>2020-09-12T09:13:11Z</time>
</trkpt>
<trkpt lat="61.119563" lon="26.024102">
<time>2020-09-12T09:13:12Z</time>
</trkpt>
<trkpt lat="61.119535" lon="26.023934">
<time>2020-09-12T09:13:13Z</time>
</trkpt>
<trkpt lat="61.119503" lon="26.023753">
<time>2020-09-12T09:13:14Z</time>
</trkpt>
<trkpt lat="61.119475" lon="26.02357">
<time>2020-09-12T09:13:15Z</time>
</trkpt>
<trkpt lat="61.119435" lon="26.023396">
<time>2020-09-12T09:13:16Z</time>
</trkpt>
<trkpt lat="61.119384" lon="26.023237">
<time>2020-09-12T09:13:17Z</time>
</trkpt>
<trkpt lat="61.119316" lon="26.023098">
<time>2020-09-12T09:13:18Z</time>
</trkpt>
<trkpt lat="61.119234" lon="26.022986">
<time>2020-09-12T09:13:19Z</time>
</trkpt>
<trkpt lat="61.119157" lon="26.022878">
<time>2020-09-12T09:13:20Z</time>
</trkpt>
<trkpt lat="61.119098" lon="26.022786">
<time>2020-09-12T09:13:21Z</time>
</trkpt>
<trkpt lat="61.11907" lon="26.022708">
<time>2020-09-12T09:13:22Z</time>
</trkpt>
<trkpt lat="61.11907" lon="26.02264">
<time>2020-09-12T09:13:23Z</time>
</trkpt>
<trkpt lat="61.119098" lon="26.022584">
<time>2020-09-12T09:13:24Z</time>
</trkpt>
<trkpt lat="61.119143" lon="26.022526">
<time>2020-09-12T09:13:25Z</time>
</trkpt>
<trkpt lat="61.119187" lon="26.022465">
<time>2020-09-12T09:13:26Z</time>
</trkpt>
<trkpt lat="61.119246" lon="26.022378">
<time>2020-09-12T09:13:27Z</time>
</trkpt>
<trkpt lat="61.119318" lon="26.02228">
<time>2020-09-12T09:13:28Z</time>
</trkpt>
<trkpt lat="61.11941" lon="26.022173">
<time>2020-09-12T09:13:29Z</time>
</trkpt>
<trkpt lat="61.119492" lon="26.022086">
<time>2020-09-12T09:13:30Z</time>
</trkpt>
<trkpt lat="61.119578" lon="26.022035">
<time>2020-09-12T09:13:31Z</time>
</trkpt>
<trkpt lat="61.11967" lon="26.022016">
<time>2020-09-12T09:13:32Z</time>
</trkpt>
<trkpt lat="61.11976" lon="26.022016">
<time>2020-09-12T09:13:33Z</time>
</trkpt>
<trkpt lat="61.119845" lon="26.022032">
<time>2020-09-12T09:13:34Z</time>
</trkpt>
<trkpt lat="61.119934" lon="26.022046">
<time>2020-09-12T09:13:35Z</time>
</trkpt>
<trkpt lat="61.120021" lon="26.022034">
<time>2020-09-12T09:13:36Z</time>
</trkpt>
<trkpt lat="61.120105" lon="26.021999">
<time>2020-09-12T09:13:37Z</time>
</trkpt>
<trkpt lat="61.120193" lon="26.021947">
<time>2020-09-12T09:13:38Z</time>
</trkpt>
<trkpt lat="61.120274" lon="26.021874">
<time>2020-09-12T09:13:39Z</time>
</trkpt>
<trkpt lat="61.120346" lon="26.021788">
<time>2020-09-12T09:13:40Z</time>
</trkpt>
<trkpt lat="61.120419" lon="26.021688">
<time>2020-09-12T09:13:41Z</time>
</trkpt>
<trkpt lat="61.120482" lon="26.021568">
<time>2020-09-12T09:13:42Z</time>
</trkpt>
<trkpt lat="61.120528" lon="26.02143">
<time>2020-09-12T09:13:43Z</time>
</trkpt>
<trkpt lat="61.120561" lon="26.021297">
<time>2020-09-12T09:13:44Z</time>
</trkpt>
<trkpt lat="61.120581" lon="26.021171">
<time>2020-09-12T09:13:45Z</time>
</trkpt>
<trkpt lat="61.120597" lon="26.021056">
<time>2020-09-12T09:13:46Z</time>
</trkpt>
<trkpt lat="61.12061" lon="26.020954">
<time>2020-09-12T09:13:47Z</time>
</trkpt>
<trkpt lat="61.120621" lon="26.020861">
<time>2020-09-12T09:13:48Z</time>
</trkpt>
<trkpt lat="61.12063" lon="26.020779">
<time>2020-09-12T09:13:49Z</time>
</trkpt>
<trkpt lat="61.120642" lon="26.020703">
<time>2020-09-12T09:13:50Z</time>
</trkpt>
<trkpt lat="61.12065" lon="26.020629">
<time>2020-09-12T09:13:51Z</time>
</trkpt>
<trkpt lat="61.120653" lon="26.020569">
<time>2020-09-12T09:13:52Z</time>
</trkpt>
<trkpt lat="61.120652" lon="26.020502">
<time>2020-09-12T09:13:53Z</time>
</trkpt>
<trkpt lat="61.120643" lon="26.020429">
<time>2020-09-12T09:13:54Z</time>
</trkpt>
<trkpt lat="61.120632" lon="26.020373">
<time>2020-09-12T09:13:55Z</time>
</trkpt>
<trkpt lat="61.120612" lon="26.020309">
<time>2020-09-12T09:13:56Z</time>
</trkpt>
<trkpt lat="61.120585" lon="26.020247">
<time>2020-09-12T09:13:57Z</time>
</trkpt>
<trkpt lat="61.120548" lon="26.020184">
<time>2020-09-12T09:13:58Z</time>
</trkpt>
<trkpt lat="61.120511" lon="26.020109">
<time>2020-09-12T09:13:59Z</time>
</trkpt>
<trkpt lat="61.120485" lon="26.020025">
<time>2020-09-12T09:14:00Z</time>
</trkpt>
<trkpt lat="61.120477" lon="26.019929">
<time>2020-09-12T09:14:01Z</time>
</trkpt>
<trkpt lat="61.120475" lon="26.019823">
<time>2020-09-12T09:14:02Z</time>
</trkpt>
<trkpt lat="61.120474" lon="26.019718">
<time>2020-09-12T09:14:03Z</time>
</trkpt>
<trkpt lat="61.12048" lon="26.019619">
<time>2020-09-12T09:14:04Z</time>
</trkpt>
<trkpt lat="61.120492" lon="26.019527">
<time>2020-09-12T09:14:05Z</time>
</trkpt>
<trkpt lat="61.120508" lon="26.019445">
<time>2020-09-12T09:14:06Z</time>
</trkpt>
<trkpt lat="61.120531" lon="26.019369">
<time>2020-09-12T09:14:07Z</time>
</trkpt>
<trkpt lat="61.120557" lon="26.019302">
<time>2020-09-12T09:14:08Z</time>
</trkpt>
<trkpt lat="61.120582" lon="26.019241">
<time>2020-09-12T09:14:09Z</time>
</trkpt>
<trkpt lat="61.120611" lon="26.019183">
<time>2020-09-12T09:14:10Z</time>
</trkpt>
<trkpt lat="61.120641" lon="26.019124">
<time>2020-09-12T09:14:11Z</time>
</trkpt>
<trkpt lat="61.12067" lon="26.01907">
<time>2020-09-12T09:14:12Z</time>
</trkpt>
<trkpt lat="61.120698" lon="26.019021">
<time>2020-09-12T09:14:13Z</time>
</trkpt>
<trkpt lat="61.120726" lon="26.018977">
<time>2020-09-12T09:14:14Z</time>
</trkpt>
<trkpt lat="61.120753" lon="26.018933">
<time>2020-09-12T09:14:15Z</time>
</trkpt>
<trkpt lat="61.120777" lon="26.018887">
<time>2020-09-12T09:14:16Z</time>
</trkpt>
<trkpt lat="61.120798" lon="26.018844">
<time>2020-09-12T09:14:17Z</time>
</trkpt>
<trkpt lat="61.120816" lon="26.018799">
<time>2020-09-12T09:14:18Z</time>
</trkpt>
<trkpt lat="61.120835" lon="26.018756">
<time>2020-09-12T09:14:19Z</time>
</trkpt>
<trkpt lat="61.12086" lon="26.018723">
<time>2020-09-12T09:14:20Z</time>
</trkpt>
<trkpt lat="61.120881" lon="26.018694">
<time>2020-09-12T09:14:21Z</time>
</trkpt>
<trkpt lat="61.120901" lon="26.018663">
<time>2020-09-12T09:14:22Z</time>
</trkpt>
<trkpt lat="61.120923" lon="26.018641">
<time>2020-09-12T09:14:23Z</time>
</trkpt>
<trkpt lat="61.120948" lon="26.018628">
<time>2020-09-12T09:14:24Z</time>
</trkpt>
<trkpt lat="61.120976" lon="26.01862">
<time>2020-09-12T09:14:25Z</time>
</trkpt>
<trkpt lat="61.12101" lon="26.018615">
<time>2020-09-12T09:14:26Z</time>
</trkpt>
<trkpt lat="61.121047" lon="26.018608">
<time>2020-09-12T09:14:27Z</time>
</trkpt>
<trkpt lat="61.121084" lon="26.018598">
<time>2020-09-12T09:14:28Z</time>
</trkpt>
<trkpt lat="61.121122" lon="26.018587">
<time>2020-09-12T09:14:29Z</time>
</trkpt>
<trkpt lat="61.121162" lon="26.018573">
<time>2020-09-12T09:14:30Z</time>
</trkpt>
<trkpt lat="61.121203" lon="26.018556">
<time>2020-09-12T09:14:31Z</time>
</trkpt>
<trkpt lat="61.121246" lon="26.018528">
<time>2020-09-12T09:14:32Z</time>
</trkpt>
<trkpt lat="61.12129" lon="26.018485">
<time>2020-09-12T09:14:33Z</time>
</trkpt>
<trkpt lat="61.121331" lon="26.018437">
<time>2020-09-12T09:14:34Z</time>
</trkpt>
<trkpt lat="61.121372" lon="26.018392">
<time>2020-09-12T09:14:35Z</time>
</trkpt>
<trkpt lat="61.121412" lon="26.018341">
<time>2020-09-12T09:14:36Z</time>
</trkpt>
<trkpt lat="61.121449" lon="26.018281">
<time>2020-09-12T09:14:37Z</time>
</trkpt>
<trkpt lat="61.121485" lon="26.018217">
<time>2020-09-12T09:14:38Z</time>
</trkpt>
<trkpt lat="61.121518" lon="26.018148">
<time>2020-09-12T09:14:39Z</time>
</trkpt>
<trkpt lat="61.121553" lon="26.018076">
<time>2020-09-12T09:14:40Z</time>
</trkpt>
<trkpt lat="61.121584" lon="26.018">
<time>2020-09-12T09:14:41Z</time>
</trkpt>
<trkpt lat="61.121612" lon="26.017918">
<time>2020-09-12T09:14:42Z</time>
</trkpt>
<trkpt lat="61.121639" lon="26.017842">
<time>2020-09-12T09:14:43Z</time>
</trkpt>
<trkpt lat="61.121662" lon="26.017761">
<time>2020-09-12T09:14:44Z</time>
</trkpt>
<trkpt lat="61.121688" lon="26.017679">
<time>2020-09-12T09:14:45Z</time>
</trkpt>
<trkpt lat="61.121714" lon="26.017594">
<time>2020-09-12T09:14:46Z</time>
</trkpt>
<trkpt lat="61.121735" lon="26.017514">
<time>2020-09-12T09:14:47Z</time>
</trkpt>
<trkpt lat="61.121745" lon="26.017436">
<time>2020-09-12T09:14:48Z</time>
</trkpt>
<trkpt lat="61.121747" lon="26.017358">
<time>2020-09-12T09:14:49Z</time>
</trkpt>
<trkpt lat="61.121739" lon="26.01728">
<time>2020-09-12T09:14:50Z</time>
</trkpt>
<trkpt lat="61.121725" lon="26.017207">
<time>2020-09-12T09:14:51Z</time>
</trkpt>
<trkpt lat="61.121707" lon="26.017136">
<time>2020-09-12T09:14:52Z</time>
</trkpt>
<trkpt lat="61.121688" lon="26.017074">
<time>2020-09-12T09:14:53Z</time>
</trkpt>
<trkpt lat="61.121664" lon="26.017005">
<time>2020-09-12T09:14:54Z</time>
</trkpt>
<trkpt lat="61.12164" lon="26.016933">
<time>2020-09-12T09:14:55Z</time>
</trkpt>
<trkpt lat="61.121615" lon="26.016842">
<time>2020-09-12T09:14:56Z</time>
</trkpt>
<trkpt lat="61.12159" lon="26.016742">
<time>2020-09-12T09:14:57Z</time>
</trkpt>
<trkpt lat="61.121558" lon="26.016639">
<time>2020-09-12T09:14:58Z</time>
</trkpt>
<trkpt lat="61.121516" lon="26.01654">
<time>2020-09-12T09:14:59Z</time>
</trkpt>
<trkpt lat="61.121475" lon="26.016449">
<time>2020-09-12T09:15:00Z</time>
</trkpt>
<trkpt lat="61.121428" lon="26.016353">
<time>2020-09-12T09:15:01Z</time>
</trkpt>
<trkpt lat="61.121374" lon="26.016286">
<time>2020-09-12T09:15:02Z</time>
</trkpt>
<trkpt lat="61.121315" lon="26.016264">
<time>2020-09-12T09:15:03Z</time>
</trkpt>
<trkpt lat="61.121263" lon="26.016301">
<time>2020-09-12T09:15:04Z</time>
</trkpt>
<trkpt lat="61.121222" lon="26.016378">
<time>2020-09-12T09:15:05Z</time>
</trkpt>
<trkpt lat="61.121184" lon="26.016464">
<time>2020-09-12T09:15:06Z</time>
</trkpt>
<trkpt lat="61.121148" lon="26.016533">
<time>2020-09-12T09:15:07Z</time>
</trkpt>
<trkpt lat="61.121112" lon="26.016591">
<time>2020-09-12T09:15:08Z</time>
</trkpt>
<trkpt lat="61.121081" lon="26.016633">
<time>2020-09-12T09:15:09Z</time>
</trkpt>
<trkpt lat="61.121062" lon="26.016664">
<time>2020-09-12T09:15:10Z</time>
</trkpt>
<trkpt lat="61.121059" lon="26.016681">
<time>2020-09-12T09:15:11Z</time>
</trkpt>
<trkpt lat="61.121072" lon="26.016673">
<time>2020-09-12T09:15:12Z</time>
</trkpt>
<trkpt lat="61.121088" lon="26.016645">
<time>2020-09-12T09:15:13Z</time>
</trkpt>
<trkpt lat="61.121111" lon="26.016596">
<time>2020-09-12T09:15:14Z</time>
</trkpt>
<trkpt lat="61.121136" lon="26.016524">
<time>2020-09-12T09:15:15Z</time>
</trkpt>
<trkpt lat="61.121167" lon="26.01644">
<time>2020-09-12T09:15:16Z</time>
</trkpt>
<trkpt lat="61.121202" lon="26.016344">
<time>2020-09-12T09:15:17Z</time>
</trkpt>
<trkpt lat="61.121232" lon="26.016233">
<time>2020-09-12T09:15:18Z</time>
</trkpt>
<trkpt lat="61.121252" lon="26.016105">
<time>2020-09-12T09:15:19Z</time>
</trkpt>
<trkpt lat="61.121251" lon="26.015962">
<time>2020-09-12T09:15:20Z</time>
</trkpt>
<trkpt lat="61.121226" lon="26.015812">
<time>2020-09-12T09:15:21Z</time>
</trkpt>
<trkpt lat="61.121187" lon="26.0157">
<time>2020-09-12T09:15:22Z</time>
</trkpt>
<trkpt lat="61.121132" lon="26.015631">
<time>2020-09-12T09:15:23Z</time>
</trkpt>
<trkpt lat="61.12107" lon="26.015599">
<time>2020-09-12T09:15:24Z</time>
</trkpt>
<trkpt lat="61.121005" lon="26.015588">
<time>2020-09-12T09:15:25Z</time>
</trkpt>
<trkpt lat="61.12094" lon="26.015585">
<time>2020-09-12T09:15:26Z</time>
</trkpt>
<trkpt lat="61.120872" lon="26.01558">
<time>2020-09-12T09:15:27Z</time>
</trkpt>
<trkpt lat="61.120804" lon="26.015576">
<time>2020-09-12T09:15:28Z</time>
</trkpt>
<trkpt lat="61.12074" lon="26.015571">
<time>2020-09-12T09:15:29Z</time>
</trkpt>
<trkpt lat="61.120677" lon="26.015561">
<time>2020-09-12T09:15:30Z</time>
</trkpt>
<trkpt lat="61.120615" lon="26.015555">
<time>2020-09-12T09:15:31Z</time>
</trkpt>
<trkpt lat="61.120552" lon="26.015552">
<time>2020-09-12T09:15:32Z</time>
</trkpt>
<trkpt lat="61.120488" lon="26.015548">
<time>2020-09-12T09:15:33Z</time>
</trkpt>
<trkpt lat="61.12042" lon="26.015547">
<time>2020-09-12T09:15:34Z</time>
</trkpt>
<trkpt lat="61.120347" lon="26.015556">
<time>2020-09-12T09:15:35Z</time>
</trkpt>
<trkpt lat="61.120273" lon="26.015574">
<time>2020-09-12T09:15:36Z</time>
</trkpt>
<trkpt lat="61.120193" lon="26.0156">
<time>2020-09-12T09:15:37Z</time>
</trkpt>
<trkpt lat="61.120108" lon="26.01564">
<time>2020-09-12T09:15:38Z</time>
</trkpt>
<trkpt lat="61.120029" lon="26.015677">
<time>2020-09-12T09:15:39Z</time>
</trkpt>
<trkpt lat="61.119963" lon="26.015697">
<time>2020-09-12T09:15:40Z</time>
</trkpt>
<trkpt lat="61.119917" lon="26.015688">
<time>2020-09-12T09:15:41Z</time>
</trkpt>
<trkpt lat="61.119893" lon="26.015658">
<time>2020-09-12T09:15:42Z</time>
</trkpt>
<trkpt lat="61.119881" lon="26.015621">
<time>2020-09-12T09:15:43Z</time>
</trkpt>
<trkpt lat="61.119883" lon="26.015581">
<time>2020-09-12T09:15:44Z</time>
</trkpt>
<trkpt lat="61.119894" lon="26.015543">
<time>2020-09-12T09:15:45Z</time>
</trkpt>
<trkpt lat="61.119904" lon="26.015504">
<time>2020-09-12T09:15:46Z</time>
</trkpt>
<trkpt lat="61.119905" lon="26.015478">
<time>2020-09-12T09:15:47Z</time>
</trkpt>
<trkpt lat="61.119901" lon="26.015485">
<time>2020-09-12T09:15:48Z</time>
</trkpt>
<trkpt lat="61.119903" lon="26.015512">
<time>2020-09-12T09:15:49Z</time>
</trkpt>
<trkpt lat="61.119907" lon="26.015565">
<time>2020-09-12T09:15:50Z</time>
</trkpt>
<trkpt lat="61.11989" lon="26.01562">
<time>2020-09-12T09:15:51Z</time>
</trkpt>
<trkpt lat="61.11985" lon="26.015651">
<time>2020-09-12T09:15:52Z</time>
</trkpt>
<trkpt lat="61.11979" lon="26.015654">
<time>2020-09-12T09:15:53Z</time>
</trkpt>
<trkpt lat="61.119725" lon="26.015629">
<time>2020-09-12T09:15:54Z</time>
</trkpt>
<trkpt lat="61.11966" lon="26.015589">
<time>2020-09-12T09:15:55Z</time>
</trkpt>
<trkpt lat="61.119592" lon="26.015527">
<time>2020-09-12T09:15:56Z</time>
</trkpt>
<trkpt lat="61.119517" lon="26.015436">
<time>2020-09-12T09:15:57Z</time>
</trkpt>
<trkpt lat="61.119451" lon="26.015322">
<time>2020-09-12T09:15:58Z</time>
</trkpt>
<trkpt lat="61.119398" lon="26.015175">
<time>2020-09-12T09:15:59Z</time>
</trkpt>
<trkpt lat="61.119369" lon="26.014989">
<time>2020-09-12T09:16:00Z</time>
</trkpt>
<trkpt lat="61.11935" lon="26.014777">
<time>2020-09-12T09:16:01Z</time>
</trkpt>
<trkpt lat="61.119335" lon="26.014555">
<time>2020-09-12T09:16:02Z</time>
</trkpt>
<trkpt lat="61.119329" lon="26.014339">
<time>2020-09-12T09:16:03Z</time>
</trkpt>
<trkpt lat="61.119329" lon="26.014121">
<time>2020-09-12T09:16:04Z</time>
</trkpt>
<trkpt lat="61.119339" lon="26.013904">
<time>2020-09-12T09:16:05Z</time>
</trkpt>
<trkpt lat="61.119359" lon="26.01367">
<time>2020-09-12T09:16:06Z</time>
</trkpt>
<trkpt lat="61.119384" lon="26.013429">
<time>2020-09-12T09:16:07Z</time>
</trkpt>
<trkpt lat="61.1194" lon="26.013181">
<time>2020-09-12T09:16:08Z</time>
</trkpt>
<trkpt lat="61.119407" lon="26.012935">
<time>2020-09-12T09:16:09Z</time>
</trkpt>
<trkpt lat="61.119408" lon="26.012691">
<time>2020-09-12T09:16:10Z</time>
</trkpt>
<trkpt lat="61.119395" lon="26.012447">
<time>2020-09-12T09:16:11Z</time>
</trkpt>
<trkpt lat="61.119378" lon="26.012221">
<time>2020-09-12T09:16:12Z</time>
</trkpt>
<trkpt lat="61.119352" lon="26.011998">
<time>2020-09-12T09:16:13Z</time>
</trkpt>
<trkpt lat="61.119322" lon="26.011777">
<time>2020-09-12T09:16:14Z</time>
</trkpt>
<trkpt lat="61.119288" lon="26.011567">
<time>2020-09-12T09:16:15Z</time>
</trkpt>
<trkpt lat="61.119253" lon="26.011358">
<time>2020-09-12T09:16:16Z</time>
</trkpt>
<trkpt lat="61.119213" lon="26.011155">
<time>2020-09-12T09:16:17Z</time>
</trkpt>
<trkpt lat="61.119184" lon="26.010946">
<time>2020-09-12T09:16:18Z</time>
</trkpt>
<trkpt lat="61.119163" lon="26.010727">
<time>2020-09-12T09:16:19Z</time>
</trkpt>
<trkpt lat="61.11914" lon="26.010497">
<time>2020-09-12T09:16:20Z</time>
</trkpt>
<trkpt lat="61.119109" lon="26.01026">
<time>2020-09-12T09:16:21Z</time>
</trkpt>
<trkpt lat="61.119062" lon="26.010041">
<time>2020-09-12T09:16:22Z</time>
</trkpt>
<trkpt lat="61.119001" lon="26.009861">
<time>2020-09-12T09:16:23Z</time>
</trkpt>
<trkpt lat="61.118924" lon="26.009745">
<time>2020-09-12T09:16:24Z</time>
</trkpt>
<trkpt lat="61.118841" lon="26.009685">
<time>2020-09-12T09:16:25Z</time>
</trkpt>
<trkpt lat="61.118757" lon="26.009674">
<time>2020-09-12T09:16:26Z</time>
</trkpt>
<trkpt lat="61.118665" lon="26.009692">
<time>2020-09-12T09:16:27Z</time>
</trkpt>
<trkpt lat="61.118577" lon="26.009757">
<time>2020-09-12T09:16:28Z</time>
</trkpt>
<trkpt lat="61.118488" lon="26.00982">
<time>2020-09-12T09:16:29Z</time>
</trkpt>
<trkpt lat="61.118396" lon="26.009875">
<time>2020-09-12T09:16:30Z</time>
</trkpt>
<trkpt lat="61.1183" lon="26.009941">
<time>2020-09-12T09:16:31Z</time>
</trkpt>
<trkpt lat="61.118209" lon="26.01004">
<time>2020-09-12T09:16:32Z</time>
</trkpt>
<trkpt lat="61.118122" lon="26.010155">
<time>2020-09-12T09:16:33Z</time>
</trkpt>
<trkpt lat="61.118042" lon="26.010269">
<time>2020-09-12T09:16:34Z</time>
</trkpt>
<trkpt lat="61.117962" lon="26.010381">
<time>2020-09-12T09:16:35Z</time>
</trkpt>
<trkpt lat="61.117872" lon="26.01049">
<time>2020-09-12T09:16:36Z</time>
</trkpt>
<trkpt lat="61.117782" lon="26.010588">
<time>2020-09-12T09:16:37Z</time>
</trkpt>
<trkpt lat="61.117688" lon="26.010677">
<time>2020-09-12T09:16:38Z</time>
</trkpt>
<trkpt lat="61.117598" lon="26.010753">
<time>2020-09-12T09:16:39Z</time>
</trkpt>
<trkpt lat="61.117502" lon="26.010821">
<time>2020-09-12T09:16:40Z</time>
</trkpt>
<trkpt lat="61.117403" lon="26.01087">
<time>2020-09-12T09:16:41Z</time>
</trkpt>
<trkpt lat="61.117305" lon="26.0109">
<time>2020-09-12T09:16:42Z</time>
</trkpt>
<trkpt lat="61.117208" lon="26.010912">
<time>2020-09-12T09:16:43Z</time>
</trkpt>
<trkpt lat="61.117116" lon="26.010901">
<time>2020-09-12T09:16:44Z</time>
</trkpt>
<trkpt lat="61.117027" lon="26.010881">
<time>2020-09-12T09:16:45Z</time>
</trkpt>
<trkpt lat="61.116945" lon="26.01086">
<time>2020-09-12T09:16:46Z</time>
</trkpt>
<trkpt lat="61.116866" lon="26.010825">
<time>2020-09-12T09:16:47Z</time>
</trkpt>
<trkpt lat="61.116791" lon="26.010797">
<time>2020-09-12T09:16:48Z</time>
</trkpt>
<trkpt lat="61.11672" lon="26.010775">
<time>2020-09-12T09:16:49Z</time>
</trkpt>
<trkpt lat="61.11665" lon="26.01075">
<time>2020-09-12T09:16:50Z</time>
</trkpt>
<trkpt lat="61.116579" lon="26.010728">
<time>2020-09-12T09:16:51Z</time>
</trkpt>
<trkpt lat="61.116509" lon="26.010709">
<time>2020-09-12T09:16:52Z</time>
</trkpt>
<trkpt lat="61.11644" lon="26.010692">
<time>2020-09-12T09:16:53Z</time>
</trkpt>
<trkpt lat="61.116377" lon="26.010675">
<time>2020-09-12T09:16:54Z</time>
</trkpt>
<trkpt lat="61.116318" lon="26.010656">
<time>2020-09-12T09:16:55Z</time>
</trkpt>
<trkpt lat="61.116258" lon="26.01063">
<time>2020-09-12T09:16:56Z</time>
</trkpt>
<trkpt lat="61.116204" lon="26.010598">
<time>2020-09-12T09:16:57Z</time>
</trkpt>
<trkpt lat="61.116156" lon="26.010568">
<time>2020-09-12T09:16:58Z</time>
</trkpt>
<trkpt lat="61.116114" lon="26.010537">
<time>2020-09-12T09:16:59Z</time>
</trkpt>
<trkpt lat="61.116073" lon="26.010513">
<time>2020-09-12T09:17:00Z</time>
</trkpt>
<trkpt lat="61.116029" lon="26.010492">
<time>2020-09-12T09:17:01Z</time>
</trkpt>
<trkpt lat="61.115985" lon="26.010465">
<time>2020-09-12T09:17:02Z</time>
</trkpt>
<trkpt lat="61.115943" lon="26.010428">
<time>2020-09-12T09:17:03Z</time>
</trkpt>
<trkpt lat="61.115903" lon="26.010387">
<time>2020-09-12T09:17:04Z</time>
</trkpt>
<trkpt lat="61.115859" lon="26.010341">
<time>2020-09-12T09:17:05Z</time>
</trkpt>
<trkpt lat="61.115814" lon="26.01029">
<time>2020-09-12T09:17:06Z</time>
</trkpt>
<trkpt lat="61.115765" lon="26.010238">
<time>2020-09-12T09:17:07Z</time>
</trkpt>
<trkpt lat="61.115713" lon="26.01019">
<time>2020-09-12T09:17:08Z</time>
</trkpt>
<trkpt lat="61.11566" lon="26.010131">
<time>2020-09-12T09:17:09Z</time>
</trkpt>
<trkpt lat="61.115603" lon="26.01006">
<time>2020-09-12T09:17:10Z</time>
</trkpt>
<trkpt lat="61.115541" lon="26.009986">
<time>2020-09-12T09:17:11Z</time>
</trkpt>
<trkpt lat="61.115473" lon="26.009904">
<time>2020-09-12T09:17:12Z</time>
</trkpt>
<trkpt lat="61.1154" lon="26.00981">
<time>2020-09-12T09:17:13Z</time>
</trkpt>
<trkpt lat="61.115327" lon="26.009716">
<time>2020-09-12T09:17:14Z</time>
</trkpt>
<trkpt lat="61.115256" lon="26.009628">
<time>2020-09-12T09:17:15Z</time>
</trkpt>
<trkpt lat="61.11519" lon="26.009543">
<time>2020-09-12T09:17:16Z</time>
</trkpt>
<trkpt lat="61.115134" lon="26.009461">
<time>2020-09-12T09:17:17Z</time>
</trkpt>
<trkpt lat="61.115094" lon="26.009392">
<time>2020-09-12T09:17:18Z</time>
</trkpt>
<trkpt lat="61.115063" lon="26.009327">
<time>2020-09-12T09:17:19Z</time>
</trkpt>
<trkpt lat="61.115039" lon="26.009269">
<time>2020-09-12T09:17:20Z</time>
</trkpt>
<trkpt lat="61.115018" lon="26.009219">
<time>2020-09-12T09:17:21Z</time>
</trkpt>
<trkpt lat="61.115" lon="26.009174">
<time>2020-09-12T09:17:22Z</time>
</trkpt>
<trkpt lat="61.114986" lon="26.009131">
<time>2020-09-12T09:17:23Z</time>
</trkpt>
<trkpt lat="61.114974" lon="26.009089">
<time>2020-09-12T09:17:24Z</time>
</trkpt>
<trkpt lat="61.114961" lon="26.009044">
<time>2020-09-12T09:17:25Z</time>
</trkpt>
<trkpt lat="61.114946" lon="26.008995">
<time>2020-09-12T09:17:26Z</time>
</trkpt>
<trkpt lat="61.114933" lon="26.008952">
<time>2020-09-12T09:17:27Z</time>
</trkpt>
<trkpt lat="61.114919" lon="26.008904">
<time>2020-09-12T09:17:28Z</time>
</trkpt>
<trkpt lat="61.114907" lon="26.008857">
<time>2020-09-12T09:17:29Z</time>
</trkpt>
<trkpt lat="61.114896" lon="26.008811">
<time>2020-09-12T09:17:30Z</time>
</trkpt>
<trkpt lat="61.114883" lon="26.008766">
<time>2020-09-12T09:17:31Z</time>
</trkpt>
<trkpt lat="61.114868" lon="26.008716">
<time>2020-09-12T09:17:32Z</time>
</trkpt>
<trkpt lat="61.114854" lon="26.008666">
<time>2020-09-12T09:17:33Z</time>
</trkpt>
<trkpt lat="61.114841" lon="26.008605">
<time>2020-09-12T09:17:34Z</time>
</trkpt>
<trkpt lat="61.114828" lon="26.008545">
<time>2020-09-12T09:17:35Z</time>
</trkpt>
<trkpt lat="61.114817" lon="26.00848">
<time>2020-09-12T09:17:36Z</time>
</trkpt>
<trkpt lat="61.11481" lon="26.008409">
<time>2020-09-12T09:17:37Z</time>
</trkpt>
<trkpt lat="61.114803" lon="26.00834">
<time>2020-09-12T09:17:38Z</time>
</trkpt>
<trkpt lat="61.114799" lon="26.008261">
<time>2020-09-12T09:17:39Z</time>
</trkpt>
<trkpt lat="61.114793" lon="26.008181">
<time>2020-09-12T09:17:40Z</time>
</trkpt>
<trkpt lat="61.114786" lon="26.008101">
<time>2020-09-12T09:17:41Z</time>
</trkpt>
<trkpt lat="61.114781" lon="26.008027">
<time>2020-09-12T09:17:42Z</time>
</trkpt>
<trkpt lat="61.114777" lon="26.007974">
<time>2020-09-12T09:17:43Z</time>
</trkpt>
<trkpt lat="61.114787" lon="26.007934">
<time>2020-09-12T09:17:44Z</time>
</trkpt>
<trkpt lat="61.114817" lon="26.007893">
<time>2020-09-12T09:17:45Z</time>
</trkpt>
<trkpt lat="61.114854" lon="26.007839">
<time>2020-09-12T09:17:46Z</time>
</trkpt>
<trkpt lat="61.114891" lon="26.007774">
<time>2020-09-12T09:17:47Z</time>
</trkpt>
<trkpt lat="61.114932" lon="26.00769">
<time>2020-09-12T09:17:48Z</time>
</trkpt>
<trkpt lat="61.114972" lon="26.007588">
<time>2020-09-12T09:17:49Z</time>
</trkpt>
<trkpt lat="61.115007" lon="26.007471">
<time>2020-09-12T09:17:50Z</time>
</trkpt>
<trkpt lat="61.115045" lon="26.007344">
<time>2020-09-12T09:17:51Z</time>
</trkpt>
<trkpt lat="61.115092" lon="26.007218">
<time>2020-09-12T09:17:52Z</time>
</trkpt>
<trkpt lat="61.115135" lon="26.007097">
<time>2020-09-12T09:17:53Z</time>
</trkpt>
<trkpt lat="61.115171" lon="26.006998">
<time>2020-09-12T09:17:54Z</time>
</trkpt>
<trkpt lat="61.115196" lon="26.006932">
<time>2020-09-12T09:17:55Z</time>
</trkpt>
<trkpt lat="61.115213" lon="26.006899">
<time>2020-09-12T09:17:56Z</time>
</trkpt>
<trkpt lat="61.115226" lon="26.006898">
<time>2020-09-12T09:17:57Z</time>
</trkpt>
<trkpt lat="61.115252" lon="26.006906">
<time>2020-09-12T09:17:58Z</time>
</trkpt>
<trkpt lat="61.115277" lon="26.006915">
<time>2020-09-12T09:17:59Z</time>
</trkpt>
<trkpt lat="61.11529" lon="26.00692">
<time>2020-09-12T09:18:00Z</time>
</trkpt>
<trkpt lat="61.115297" lon="26.006922">
<time>2020-09-12T09:18:01Z</time>
</trkpt>
<trkpt lat="61.115308" lon="26.006913">
<time>2020-09-12T09:18:02Z</time>
</trkpt>
<trkpt lat="61.115317" lon="26.006891">
<time>2020-09-12T09:18:03Z</time>
</trkpt>
<trkpt lat="61.115326" lon="26.006875">
<time>2020-09-12T09:18:04Z</time>
</trkpt>
<trkpt lat="61.115333" lon="26.00685">
<time>2020-09-12T09:18:05Z</time>
</trkpt>
<trkpt lat="61.115343" lon="26.006822">
<time>2020-09-12T09:18:06Z</time>
</trkpt>
<trkpt lat="61.115354" lon="26.006789">
<time>2020-09-12T09:18:07Z</time>
</trkpt>
<trkpt lat="61.115363" lon="26.006747">
<time>2020-09-12T09:18:08Z</time>
</trkpt>
<trkpt lat="61.11537" lon="26.006701">
<time>2020-09-12T09:18:09Z</time>
</trkpt>
<trkpt lat="61.115375" lon="26.006646">
<time>2020-09-12T09:18:10Z</time>
</trkpt>
<trkpt lat="61.115381" lon="26.006578">
<time>2020-09-12T09:18:11Z</time>
</trkpt>
<trkpt lat="61.115387" lon="26.006493">
<time>2020-09-12T09:18:12Z</time>
</trkpt>
<trkpt lat="61.115397" lon="26.006409">
<time>2020-09-12T09:18:13Z</time>
</trkpt>
<trkpt lat="61.115412" lon="26.006334">
<time>2020-09-12T09:18:14Z</time>
</trkpt>
<trkpt lat="61.115431" lon="26.006263">
<time>2020-09-12T09:18:15Z</time>
</trkpt>
<trkpt lat="61.115447" lon="26.006204">
<time>2020-09-12T09:18:16Z</time>
</trkpt>
<trkpt lat="61.115456" lon="26.006145">
<time>2020-09-12T09:18:17Z</time>
</trkpt>
<trkpt lat="61.115466" lon="26.006076">
<time>2020-09-12T09:18:18Z</time>
</trkpt>
<trkpt lat="61.115468" lon="26.006">
<time>2020-09-12T09:18:19Z</time>
</trkpt>
<trkpt lat="61.115468" lon="26.005925">
<time>2020-09-12T09:18:20Z</time>
</trkpt>
<trkpt lat="61.115471" lon="26.005845">
<time>2020-09-12T09:18:21Z</time>
</trkpt>
<trkpt lat="61.115474" lon="26.005769">
<time>2020-09-12T09:18:22Z</time>
</trkpt>
<trkpt lat="61.115477" lon="26.005697">
<time>2020-09-12T09:18:23Z</time>
</trkpt>
<trkpt lat="61.115477" lon="26.005643">
<time>2020-09-12T09:18:24Z</time>
</trkpt>
<trkpt lat="61.11548" lon="26.005583">
<time>2020-09-12T09:18:25Z</time>
</trkpt>
<trkpt lat="61.115491" lon="26.005524">
<time>2020-09-12T09:18:26Z</time>
</trkpt>
<trkpt lat="61.115507" lon="26.005478">
<time>2020-09-12T09:18:27Z</time>
</trkpt>
<trkpt lat="61.11553" lon="26.005432">
<time>2020-09-12T09:18:28Z</time>
</trkpt>
<trkpt lat="61.115552" lon="26.005401">
<time>2020-09-12T09:18:29Z</time>
</trkpt>
<trkpt lat="61.115565" lon="26.005379">
<time>2020-09-12T09:18:30Z</time>
</trkpt>
<trkpt lat="61.11558" lon="26.005365">
<time>2020-09-12T09:18:31Z</time>
</trkpt>
<trkpt lat="61.115584" lon="26.005372">
<time>2020-09-12T09:18:32Z</time>
</trkpt>
<trkpt lat="61.115592" lon="26.005364">
<time>2020-09-12T09:18:33Z</time>
</trkpt>
<trkpt lat="61.1156" lon="26.005351">
<time>2020-09-12T09:18:34Z</time>
</trkpt>
<trkpt lat="61.115612" lon="26.005344">
<time>2020-09-12T09:18:35Z</time>
</trkpt>
<trkpt lat="61.115628" lon="26.005339">
<time>2020-09-12T09:18:36Z</time>
</trkpt>
<trkpt lat="61.115642" lon="26.005335">
<time>2020-09-12T09:18:37Z</time>
</trkpt>
<trkpt lat="61.115654" lon="26.005329">
<time>2020-09-12T09:18:38Z</time>
</trkpt>
<trkpt lat="61.115666" lon="26.005328">
<time>2020-09-12T09:18:39Z</time>
</trkpt>
<trkpt lat="61.115686" lon="26.005325">
<time>2020-09-12T09:18:40Z</time>
</trkpt>
<trkpt lat="61.115718" lon="26.005318">
<time>2020-09-12T09:18:41Z</time>
</trkpt>
<trkpt lat="61.115758" lon="26.00531">
<time>2020-09-12T09:18:42Z</time>
</trkpt>
<trkpt lat="61.11581" lon="26.005292">
<time>2020-09-12T09:18:43Z</time>
</trkpt>
<trkpt lat="61.11586" lon="26.005251">
<time>2020-09-12T09:18:44Z</time>
</trkpt>
<trkpt lat="61.115889" lon="26.005192">
<time>2020-09-12T09:18:45Z</time>
</trkpt>
<trkpt lat="61.115903" lon="26.005114">
<time>2020-09-12T09:18:46Z</time>
</trkpt>
<trkpt lat="61.115907" lon="26.005023">
<time>2020-09-12T09:18:47Z</time>
</trkpt>
<trkpt lat="61.115908" lon="26.004936">
<time>2020-09-12T09:18:48Z</time>
</trkpt>
<trkpt lat="61.115906" lon="26.004844">
<time>2020-09-12T09:18:49Z</time>
</trkpt>
<trkpt lat="61.115903" lon="26.004751">
<time>2020-09-12T09:18:50Z</time>
</trkpt>
<trkpt lat="61.115898" lon="26.004667">
<time>2020-09-12T09:18:51Z</time>
</trkpt>
<trkpt lat="61.115898" lon="26.004584">
<time>2020-09-12T09:18:52Z</time>
</trkpt>
<trkpt lat="61.115887" lon="26.00451">
<time>2020-09-12T09:18:53Z</time>
</trkpt>
<trkpt lat="61.115867" lon="26.004451">
<time>2020-09-12T09:18:54Z</time>
</trkpt>
<trkpt lat="61.115832" lon="26.004422">
<time>2020-09-12T09:18:55Z</time>
</trkpt>
<trkpt lat="61.115792" lon="26.00441">
<time>2020-09-12T09:18:56Z</time>
</trkpt>
<trkpt lat="61.115754" lon="26.004401">
<time>2020-09-12T09:18:57Z</time>
</trkpt>
<trkpt lat="61.115715" lon="26.004392">
<time>2020-09-12T09:18:58Z</time>
</trkpt>
<trkpt lat="61.115685" lon="26.004383">
<time>2020-09-12T09:18:59Z</time>
</trkpt>
<trkpt lat="61.115648" lon="26.004381">
<time>2020-09-12T09:19:00Z</time>
</trkpt>
<trkpt lat="61.115615" lon="26.004382">
<time>2020-09-12T09:19:01Z</time>
</trkpt>
<trkpt lat="61.115584" lon="26.004381">
<time>2020-09-12T09:19:02Z</time>
</trkpt>
<trkpt lat="61.11555" lon="26.004379">
<time>2020-09-12T09:19:03Z</time>
</trkpt>
<trkpt lat="61.115517" lon="26.004381">
<time>2020-09-12T09:19:04Z</time>
</trkpt>
<trkpt lat="61.115481" lon="26.004398">
<time>2020-09-12T09:19:05Z</time>
</trkpt>
<trkpt lat="61.115447" lon="26.004425">
<time>2020-09-12T09:19:06Z</time>
</trkpt>
<trkpt lat="61.115414" lon="26.004449">
<time>2020-09-12T09:19:07Z</time>
</trkpt>
<trkpt lat="61.115373" lon="26.004469">
<time>2020-09-12T09:19:08Z</time>
</trkpt>
<trkpt lat="61.115326" lon="26.004496">
<time>2020-09-12T09:19:09Z</time>
</trkpt>
<trkpt lat="61.115283" lon="26.004529">
<time>2020-09-12T09:19:10Z</time>
</trkpt>
<trkpt lat="61.115237" lon="26.004572">
<time>2020-09-12T09:19:11Z</time>
</trkpt>
<trkpt lat="61.115193" lon="26.004617">
<time>2020-09-12T09:19:12Z</time>
</trkpt>
<trkpt lat="61.115143" lon="26.00466">
<time>2020-09-12T09:19:13Z</time>
</trkpt>
<trkpt lat="61.115092" lon="26.004699">
<time>2020-09-12T09:19:14Z</time>
</trkpt>
<trkpt lat="61.11504" lon="26.004732">
<time>2020-09-12T09:19:15Z</time>
</trkpt>
<trkpt lat="61.114989" lon="26.004743">
<time>2020-09-12T09:19:16Z</time>
</trkpt>
<trkpt lat="61.114943" lon="26.004725">
<time>2020-09-12T09:19:17Z</time>
</trkpt>
<trkpt lat="61.114908" lon="26.004678">
<time>2020-09-12T09:19:18Z</time>
</trkpt>
<trkpt lat="61.114892" lon="26.004606">
<time>2020-09-12T09:19:19Z</time>
</trkpt>
<trkpt lat="61.114896" lon="26.004525">
<time>2020-09-12T09:19:20Z</time>
</trkpt>
<trkpt lat="61.114899" lon="26.004431">
<time>2020-09-12T09:19:21Z</time>
</trkpt>
<trkpt lat="61.114895" lon="26.004317">
<time>2020-09-12T09:19:22Z</time>
</trkpt>
<trkpt lat="61.114878" lon="26.004202">
<time>2020-09-12T09:19:23Z</time>
</trkpt>
<trkpt lat="61.114853" lon="26.004082">
<time>2020-09-12T09:19:24Z</time>
</trkpt>
<trkpt lat="61.114825" lon="26.003968">
<time>2020-09-12T09:19:25Z</time>
</trkpt>
<trkpt lat="61.114789" lon="26.003863">
<time>2020-09-12T09:19:26Z</time>
</trkpt>
<trkpt lat="61.114754" lon="26.003756">
<time>2020-09-12T09:19:27Z</time>
</trkpt>
<trkpt lat="61.114728" lon="26.003645">
<time>2020-09-12T09:19:28Z</time>
</trkpt>
<trkpt lat="61.11471" lon="26.00354">
<time>2020-09-12T09:19:29Z</time>
</trkpt>
<trkpt lat="61.11469" lon="26.003453">
<time>2020-09-12T09:19:30Z</time>
</trkpt>
<trkpt lat="61.114671" lon="26.003371">
<time>2020-09-12T09:19:31Z</time>
</trkpt>
<trkpt lat="61.114666" lon="26.00329">
<time>2020-09-12T09:19:32Z</time>
</trkpt>
<trkpt lat="61.114676" lon="26.003207">
<time>2020-09-12T09:19:33Z</time>
</trkpt>
<trkpt lat="61.114697" lon="26.003115">
<time>2020-09-12T09:19:34Z</time>
</trkpt>
<trkpt lat="61.114722" lon="26.00301">
<time>2020-09-12T09:19:35Z</time>
</trkpt>
<trkpt lat="61.114744" lon="26.002904">
<time>2020-09-12T09:19:36Z</time>
</trkpt>
<trkpt lat="61.114753" lon="26.002802">
<time>2020-09-12T09:19:37Z</time>
</trkpt>
<trkpt lat="61.11475" lon="26.002707">
<time>2020-09-12T09:19:38Z</time>
</trkpt>
<trkpt lat="61.114735" lon="26.002624">
<time>2020-09-12T09:19:39Z</time>
</trkpt>
<trkpt lat="61.114706" lon="26.002566">
<time>2020-09-12T09:19:40Z</time>
</trkpt>
<trkpt lat="61.114675" lon="26.002508">
<time>2020-09-12T09:19:41Z</time>
</trkpt>
<trkpt lat="61.114647" lon="26.002449">
<time>2020-09-12T09:19:42Z</time>
</trkpt>
<trkpt lat="61.114617" lon="26.002397">
<time>2020-09-12T09:19:43Z</time>
</trkpt>
<trkpt lat="61.114583" lon="26.002357">
<time>2020-09-12T09:19:44Z</time>
</trkpt>
<trkpt lat="61.114544" lon="26.002342">
<time>2020-09-12T09:19:45Z</time>
</trkpt>
<trkpt lat="61.114498" lon="26.002335">
<time>2020-09-12T09:19:46Z</time>
</trkpt>
<trkpt lat="61.11445" lon="26.002318">
<time>2020-09-12T09:19:47Z</time>
</trkpt>
<trkpt lat="61.114401" lon="26.002313">
<time>2020-09-12T09:19:48Z</time>
</trkpt>
<trkpt lat="61.11435" lon="26.002309">
<time>2020-09-12T09:19:49Z</time>
</trkpt>
<trkpt lat="61.114298" lon="26.002276">
<time>2020-09-12T09:19:50Z</time>
</trkpt>
<trkpt lat="61.114249" lon="26.002218">
<time>2020-09-12T09:19:51Z</time>
</trkpt>
<trkpt lat="61.114198" lon="26.002154">
<time>2020-09-12T09:19:52Z</time>
</trkpt>
<trkpt lat="61.114147" lon="26.002086">
<time>2020-09-12T09:19:53Z</time>
</trkpt>
<trkpt lat="61.114096" lon="26.00202">
<time>2020-09-12T09:19:54Z</time>
</trkpt>
<trkpt lat="61.114038" lon="26.00195">
<time>2020-09-12T09:19:55Z</time>
</trkpt>
<trkpt lat="61.113977" lon="26.00187">
<time>2020-09-12T09:19:56Z</time>
</trkpt>
<trkpt lat="61.113913" lon="26.001784">
<time>2020-09-12T09:19:57Z</time>
</trkpt>
<trkpt lat="61.113839" lon="26.001701">
<time>2020-09-12T09:19:58Z</time>
</trkpt>
<trkpt lat="61.113772" lon="26.001618">
<time>2020-09-12T09:19:59Z</time>
</trkpt>
<trkpt lat="61.113704" lon="26.001521">
<time>2020-09-12T09:20:00Z</time>
</trkpt>
<trkpt lat="61.113637" lon="26.001437">
<time>2020-09-12T09:20:01Z</time>
</trkpt>
<trkpt lat="61.113569" lon="26.001346">
<time>2020-09-12T09:20:02Z</time>
</trkpt>
<trkpt lat="61.113499" lon="26.001246">
<time>2020-09-12T09:20:03Z</time>
</trkpt>
<trkpt lat="61.113429" lon="26.00115">
<time>2020-09-12T09:20:04Z</time>
</trkpt>
<trkpt lat="61.11336" lon="26.00105">
<time>2020-09-12T09:20:05Z</time>
</trkpt>
<trkpt lat="61.113293" lon="26.000955">
<time>2020-09-12T09:20:06Z</time>
</trkpt>
<trkpt lat="61.113228" lon="26.000861">
<time>2020-09-12T09:20:07Z</time>
</trkpt>
<trkpt lat="61.113159" lon="26.000766">
<time>2020-09-12T09:20:08Z</time>
</trkpt>
<trkpt lat="61.11309" lon="26.000673">
<time>2020-09-12T09:20:09Z</time>
</trkpt>
<trkpt lat="61.113021" lon="26.000576">
<time>2020-09-12T09:20:10Z</time>
</trkpt>
<trkpt lat="61.11295" lon="26.000487">
<time>2020-09-12T09:20:11Z</time>
</trkpt>
<trkpt lat="61.112881" lon="26.000399">
<time>2020-09-12T09:20:12Z</time>
</trkpt>
<trkpt lat="61.112811" lon="26.000317">
<time>2020-09-12T09:20:13Z</time>
</trkpt>
<trkpt lat="61.112742" lon="26.000234">
<time>2020-09-12T09:20:14Z</time>
</trkpt>
<trkpt lat="61.112674" lon="26.000159">
<time>2020-09-12T09:20:15Z</time>
</trkpt>
<trkpt lat="61.112619" lon="26.000073">
<time>2020-09-12T09:20:16Z</time>
</trkpt>
<trkpt lat="61.112594" lon="25.999967">
<time>2020-09-12T09:20:17Z</time>
</trkpt>
<trkpt lat="61.112595" lon="25.999854">
<time>2020-09-12T09:20:18Z</time>
</trkpt>
<trkpt lat="61.112598" lon="25.999748">
<time>2020-09-12T09:20:19Z</time>
</trkpt>
<trkpt lat="61.112588" lon="25.999674">
<time>2020-09-12T09:20:20Z</time>
</trkpt>
<trkpt lat="61.112568" lon="25.999622">
<time>2020-09-12T09:20:21Z</time>
</trkpt>
<trkpt lat="61.112544" lon="25.999596">
<time>2020-09-12T09:20:22Z</time>
</trkpt>
<trkpt lat="61.112507" lon="25.999586">
<time>2020-09-12T09:20:23Z</time>
</trkpt>
<trkpt lat="61.112462" lon="25.999578">
<time>2020-09-12T09:20:24Z</time>
</trkpt>
<trkpt lat="61.112411" lon="25.999574">
<time>2020-09-12T09:20:25Z</time>
</trkpt>
<trkpt lat="61.112363" lon="25.999565">
<time>2020-09-12T09:20:26Z</time>
</trkpt>
<trkpt lat="61.112317" lon="25.999538">
<time>2020-09-12T09:20:27Z</time>
</trkpt>
<trkpt lat="61.11227" lon="25.999498">
<time>2020-09-12T09:20:28Z</time>
</trkpt>
<trkpt lat="61.112233" lon="25.999446">
<time>2020-09-12T09:20:29Z</time>
</trkpt>
<trkpt lat="61.112197" lon="25.999396">
<time>2020-09-12T09:20:30Z</time>
</trkpt>
<trkpt lat="61.112156" lon="25.999347">
<time>2020-09-12T09:20:31Z</time>
</trkpt>
<trkpt lat="61.112111" lon="25.999298">
<time>2020-09-12T09:20:32Z</time>
</trkpt>
<trkpt lat="61.112072" lon="25.999245">
<time>2020-09-12T09:20:33Z</time>
</trkpt>
<trkpt lat="61.112027" lon="25.999201">
<time>2020-09-12T09:20:34Z</time>
</trkpt>
<trkpt lat="61.111977" lon="25.999161">
<time>2020-09-12T09:20:35Z</time>
</trkpt>
<trkpt lat="61.111932" lon="25.999115">
<time>2020-09-12T09:20:36Z</time>
</trkpt>
<trkpt lat="61.111892" lon="25.999067">
<time>2020-09-12T09:20:37Z</time>
</trkpt>
<trkpt lat="61.111847" lon="25.999005">
<time>2020-09-12T09:20:38Z</time>
</trkpt>
<trkpt lat="61.111799" lon="25.998945">
<time>2020-09-12T09:20:39Z</time>
</trkpt>
<trkpt lat="61.111768" lon="25.998899">
<time>2020-09-12T09:20:40Z</time>
</trkpt>
<trkpt lat="61.111764" lon="25.998846">
<time>2020-09-12T09:20:41Z</time>
</trkpt>
<trkpt lat="61.11176" lon="25.998803">
<time>2020-09-12T09:20:42Z</time>
</trkpt>
<trkpt lat="61.111761" lon="25.998768">
<time>2020-09-12T09:20:43Z</time>
</trkpt>
<trkpt lat="61.111768" lon="25.998722">
<time>2020-09-12T09:20:44Z</time>
</trkpt>
<trkpt lat="61.111772" lon="25.998677">
<time>2020-09-12T09:20:45Z</time>
</trkpt>
<trkpt lat="61.111776" lon="25.99862">
<time>2020-09-12T09:20:46Z</time>
</trkpt>
<trkpt lat="61.111785" lon="25.99855">
<time>2020-09-12T09:20:47Z</time>
</trkpt>
<trkpt lat="61.111783" lon="25.998449">
<time>2020-09-12T09:20:48Z</time>
</trkpt>
<trkpt lat="61.111778" lon="25.998362">
<time>2020-09-12T09:20:49Z</time>
</trkpt>
<trkpt lat="61.111774" lon="25.998252">
<time>2020-09-12T09:20:50Z</time>
</trkpt>
<trkpt lat="61.111771" lon="25.998135">
<time>2020-09-12T09:20:51Z</time>
</trkpt>
<trkpt lat="61.111781" lon="25.998053">
<time>2020-09-12T09:20:52Z</time>
</trkpt>
<trkpt lat="61.111797" lon="25.997983">
<time>2020-09-12T09:20:53Z</time>
</trkpt>
<trkpt lat="61.111805" lon="25.997891">
<time>2020-09-12T09:20:54Z</time>
</trkpt>
<trkpt lat="61.111824" lon="25.997798">
<time>2020-09-12T09:20:55Z</time>
</trkpt>
<trkpt lat="61.111846" lon="25.997713">
<time>2020-09-12T09:20:56Z</time>
</trkpt>
<trkpt lat="61.111863" lon="25.99766">
<time>2020-09-12T09:20:57Z</time>
</trkpt>
<trkpt lat="61.111872" lon="25.99763">
<time>2020-09-12T09:20:58Z</time>
</trkpt>
<trkpt lat="61.111878" lon="25.997612">
<time>2020-09-12T09:20:59Z</time>
</trkpt>
<trkpt lat="61.111882" lon="25.997593">
<time>2020-09-12T09:21:00Z</time>
</trkpt>
<trkpt lat="61.111881" lon="25.997578">
<time>2020-09-12T09:21:01Z</time>
</trkpt>
<trkpt lat="61.11188" lon="25.997577">
<time>2020-09-12T09:21:02Z</time>
</trkpt>
<trkpt lat="61.111879" lon="25.997571">
<time>2020-09-12T09:21:03Z</time>
</trkpt>
<trkpt lat="61.111879" lon="25.997553">
<time>2020-09-12T09:21:04Z</time>
</trkpt>
<trkpt lat="61.111882" lon="25.99752">
<time>2020-09-12T09:21:05Z</time>
</trkpt>
<trkpt lat="61.11188" lon="25.997482">
<time>2020-09-12T09:21:06Z</time>
</trkpt>
<trkpt lat="61.111882" lon="25.997446">
<time>2020-09-12T09:21:07Z</time>
</trkpt>
<trkpt lat="61.111869" lon="25.997414">
<time>2020-09-12T09:21:08Z</time>
</trkpt>
<trkpt lat="61.111852" lon="25.99738">
<time>2020-09-12T09:21:09Z</time>
</trkpt>
<trkpt lat="61.111827" lon="25.997328">
<time>2020-09-12T09:21:10Z</time>
</trkpt>
<trkpt lat="61.111799" lon="25.997259">
<time>2020-09-12T09:21:11Z</time>
</trkpt>
<trkpt lat="61.111767" lon="25.997182">
<time>2020-09-12T09:21:12Z</time>
</trkpt>
<trkpt lat="61.111751" lon="25.997107">
<time>2020-09-12T09:21:13Z</time>
</trkpt>
<trkpt lat="61.111738" lon="25.997011">
<time>2020-09-12T09:21:14Z</time>
</trkpt>
<trkpt lat="61.111734" lon="25.996925">
<time>2020-09-12T09:21:15Z</time>
</trkpt>
<trkpt lat="61.111738" lon="25.996856">
<time>2020-09-12T09:21:16Z</time>
</trkpt>
<trkpt lat="61.111749" lon="25.996798">
<time>2020-09-12T09:21:17Z</time>
</trkpt>
<trkpt lat="61.111771" lon="25.996752">
<time>2020-09-12T09:21:18Z</time>
</trkpt>
<trkpt lat="61.111795" lon="25.996728">
<time>2020-09-12T09:21:19Z</time>
</trkpt>
<trkpt lat="61.111825" lon="25.996728">
<time>2020-09-12T09:21:20Z</time>
</trkpt>
<trkpt lat="61.111838" lon="25.996751">
<time>2020-09-12T09:21:21Z</time>
</trkpt>
<trkpt lat="61.111872" lon="25.996781">
<time>2020-09-12T09:21:22Z</time>
</trkpt>
<trkpt lat="61.111908" lon="25.996797">
<time>2020-09-12T09:21:23Z</time>
</trkpt>
<trkpt lat="61.111938" lon="25.996799">
<time>2020-09-12T09:21:24Z</time>
</trkpt>
<trkpt lat="61.11196" lon="25.996786">
<time>2020-09-12T09:21:25Z</time>
</trkpt>
<trkpt lat="61.11198" lon="25.996751">
<time>2020-09-12T09:21:26Z</time>
</trkpt>
<trkpt lat="61.111988" lon="25.996706">
<time>2020-09-12T09:21:27Z</time>
</trkpt>
<trkpt lat="61.111993" lon="25.996675">
<time>2020-09-12T09:21:28Z</time>
</trkpt>
<trkpt lat="61.112" lon="25.996646">
<time>2020-09-12T09:21:29Z</time>
</trkpt>
<trkpt lat="61.112011" lon="25.996612">
<time>2020-09-12T09:21:30Z</time>
</trkpt>
<trkpt lat="61.11202" lon="25.996568">
<time>2020-09-12T09:21:31Z</time>
</trkpt>
<trkpt lat="61.112025" lon="25.996529">
<time>2020-09-12T09:21:32Z</time>
</trkpt>
<trkpt lat="61.112028" lon="25.996483">
<time>2020-09-12T09:21:33Z</time>
</trkpt>
<trkpt lat="61.112035" lon="25.996422">
<time>2020-09-12T09:21:34Z</time>
</trkpt>
<trkpt lat="61.112042" lon="25.996355">
<time>2020-09-12T09:21:35Z</time>
</trkpt>
<trkpt lat="61.112047" lon="25.996288">
<time>2020-09-12T09:21:36Z</time>
</trkpt>
<trkpt lat="61.112056" lon="25.996223">
<time>2020-09-12T09:21:37Z</time>
</trkpt>
<trkpt lat="61.112067" lon="25.99616">
<time>2020-09-12T09:21:38Z</time>
</trkpt>
<trkpt lat="61.112076" lon="25.996087">
<time>2020-09-12T09:21:39Z</time>
</trkpt>
<trkpt lat="61.112078" lon="25.996012">
<time>2020-09-12T09:21:40Z</time>
</trkpt>
<trkpt lat="61.112089" lon="25.995945">
<time>2020-09-12T09:21:41Z</time>
</trkpt>
<trkpt lat="61.112099" lon="25.995879">
<time>2020-09-12T09:21:42Z</time>
</trkpt>
<trkpt lat="61.112111" lon="25.99581">
<time>2020-09-12T09:21:43Z</time>
</trkpt>
<trkpt lat="61.112124" lon="25.995754">
<time>2020-09-12T09:21:44Z</time>
</trkpt>
<trkpt lat="61.112141" lon="25.995707">
<time>2020-09-12T09:21:45Z</time>
</trkpt>
<trkpt lat="61.11216" lon="25.99566">
<time>2020-09-12T09:21:46Z</time>
</trkpt>
<trkpt lat="61.112179" lon="25.995616">
<time>2020-09-12T09:21:47Z</time>
</trkpt>
<trkpt lat="61.1122" lon="25.995578">
<time>2020-09-12T09:21:48Z</time>
</trkpt>
<trkpt lat="61.112222" lon="25.995547">
<time>2020-09-12T09:21:49Z</time>
</trkpt>
<trkpt lat="61.11224" lon="25.995515">
<time>2020-09-12T09:21:50Z</time>
</trkpt>
<trkpt lat="61.112249" lon="25.995485">
<time>2020-09-12T09:21:51Z</time>
</trkpt>
<trkpt lat="61.112254" lon="25.99547">
<time>2020-09-12T09:21:52Z</time>
</trkpt>
<trkpt lat="61.112246" lon="25.995457">
<time>2020-09-12T09:21:53Z</time>
</trkpt>
<trkpt lat="61.112233" lon="25.995441">
<time>2020-09-12T09:21:54Z</time>
</trkpt>
<trkpt lat="61.112213" lon="25.995414">
<time>2020-09-12T09:21:55Z</time>
</trkpt>
<trkpt lat="61.112192" lon="25.995383">
<time>2020-09-12T09:21:56Z</time>
</trkpt>
<trkpt lat="61.112164" lon="25.995342">
<time>2020-09-12T09:21:57Z</time>
</trkpt>
<trkpt lat="61.112132" lon="25.995299">
<time>2020-09-12T09:21:58Z</time>
</trkpt>
<trkpt lat="61.112096" lon="25.995254">
<time>2020-09-12T09:21:59Z</time>
</trkpt>
<trkpt lat="61.112057" lon="25.995204">
<time>2020-09-12T09:22:00Z</time>
</trkpt>
<trkpt lat="61.112019" lon="25.995151">
<time>2020-09-12T09:22:01Z</time>
</trkpt>
<trkpt lat="61.111986" lon="25.995097">
<time>2020-09-12T09:22:02Z</time>
</trkpt>
<trkpt lat="61.11195" lon="25.995042">
<time>2020-09-12T09:22:03Z</time>
</trkpt>
<trkpt lat="61.111914" lon="25.99499">
<time>2020-09-12T09:22:04Z</time>
</trkpt>
<trkpt lat="61.111878" lon="25.994934">
<time>2020-09-12T09:22:05Z</time>
</trkpt>
<trkpt lat="61.111843" lon="25.994874">
<time>2020-09-12T09:22:06Z</time>
</trkpt>
<trkpt lat="61.1118" lon="25.994813">
<time>2020-09-12T09:22:07Z</time>
</trkpt>
<trkpt lat="61.111755" lon="25.994751">
<time>2020-09-12T09:22:08Z</time>
</trkpt>
<trkpt lat="61.11171" lon="25.994692">
<time>2020-09-12T09:22:09Z</time>
</trkpt>
<trkpt lat="61.111664" lon="25.994613">
<time>2020-09-12T09:22:10Z</time>
</trkpt>
<trkpt lat="61.11162" lon="25.994542">
<time>2020-09-12T09:22:11Z</time>
</trkpt>
<trkpt lat="61.111585" lon="25.994479">
<time>2020-09-12T09:22:12Z</time>
</trkpt>
<trkpt lat="61.111545" lon="25.994416">
<time>2020-09-12T09:22:13Z</time>
</trkpt>
<trkpt lat="61.111508" lon="25.994348">
<time>2020-09-12T09:22:14Z</time>
</trkpt>
<trkpt lat="61.11147" lon="25.994279">
<time>2020-09-12T09:22:15Z</time>
</trkpt>
<trkpt lat="61.111428" lon="25.994224">
<time>2020-09-12T09:22:16Z</time>
</trkpt>
<trkpt lat="61.111389" lon="25.994171">
<time>2020-09-12T09:22:17Z</time>
</trkpt>
<trkpt lat="61.11136" lon="25.994131">
<time>2020-09-12T09:22:18Z</time>
</trkpt>
<trkpt lat="61.111341" lon="25.994106">
<time>2020-09-12T09:22:19Z</time>
</trkpt>
<trkpt lat="61.111326" lon="25.994083">
<time>2020-09-12T09:22:20Z</time>
</trkpt>
<trkpt lat="61.111318" lon="25.994069">
<time>2020-09-12T09:22:21Z</time>
</trkpt>
<trkpt lat="61.111313" lon="25.994058">
<time>2020-09-12T09:22:22Z</time>
</trkpt>
<trkpt lat="61.111311" lon="25.994051">
<time>2020-09-12T09:22:23Z</time>
</trkpt>
<trkpt lat="61.111304" lon="25.994028">
<time>2020-09-12T09:22:24Z</time>
</trkpt>
<trkpt lat="61.111294" lon="25.993994">
<time>2020-09-12T09:22:25Z</time>
</trkpt>
<trkpt lat="61.111286" lon="25.993964">
<time>2020-09-12T09:22:26Z</time>
</trkpt>
<trkpt lat="61.11127" lon="25.993918">
<time>2020-09-12T09:22:27Z</time>
</trkpt>
<trkpt lat="61.111246" lon="25.993856">
<time>2020-09-12T09:22:28Z</time>
</trkpt>
<trkpt lat="61.111206" lon="25.99377">
<time>2020-09-12T09:22:29Z</time>
</trkpt>
<trkpt lat="61.111164" lon="25.99369">
<time>2020-09-12T09:22:30Z</time>
</trkpt>
<trkpt lat="61.111119" lon="25.993614">
<time>2020-09-12T09:22:31Z</time>
</trkpt>
<trkpt lat="61.111075" lon="25.993551">
<time>2020-09-12T09:22:32Z</time>
</trkpt>
<trkpt lat="61.111028" lon="25.993489">
<time>2020-09-12T09:22:33Z</time>
</trkpt>
<trkpt lat="61.110976" lon="25.993422">
<time>2020-09-12T09:22:34Z</time>
</trkpt>
<trkpt lat="61.110926" lon="25.993374">
<time>2020-09-12T09:22:35Z</time>
</trkpt>
<trkpt lat="61.110879" lon="25.993325">
<time>2020-09-12T09:22:36Z</time>
</trkpt>
<trkpt lat="61.110841" lon="25.993266">
<time>2020-09-12T09:22:37Z</time>
</trkpt>
<trkpt lat="61.110806" lon="25.993196">
<time>2020-09-12T09:22:38Z</time>
</trkpt>
<trkpt lat="61.110767" lon="25.99312">
<time>2020-09-12T09:22:39Z</time>
</trkpt>
<trkpt lat="61.11073" lon="25.993045">
<time>2020-09-12T09:22:40Z</time>
</trkpt>
<trkpt lat="61.110695" lon="25.992973">
<time>2020-09-12T09:22:41Z</time>
</trkpt>
<trkpt lat="61.110671" lon="25.992913">
<time>2020-09-12T09:22:42Z</time>
</trkpt>
<trkpt lat="61.110655" lon="25.992859">
<time>2020-09-12T09:22:43Z</time>
</trkpt>
<trkpt lat="61.110647" lon="25.992815">
<time>2020-09-12T09:22:44Z</time>
</trkpt>
<trkpt lat="61.110637" lon="25.992779">
<time>2020-09-12T09:22:45Z</time>
</trkpt>
<trkpt lat="61.110622" lon="25.992746">
<time>2020-09-12T09:22:46Z</time>
</trkpt>
<trkpt lat="61.110593" lon="25.992712">
<time>2020-09-12T09:22:47Z</time>
</trkpt>
<trkpt lat="61.110572" lon="25.992702">
<time>2020-09-12T09:22:48Z</time>
</trkpt>
<trkpt lat="61.110545" lon="25.992678">
<time>2020-09-12T09:22:49Z</time>
</trkpt>
<trkpt lat="61.110518" lon="25.992632">
<time>2020-09-12T09:22:50Z</time>
</trkpt>
<trkpt lat="61.110493" lon="25.992559">
<time>2020-09-12T09:22:51Z</time>
</trkpt>
<trkpt lat="61.110466" lon="25.992473">
<time>2020-09-12T09:22:52Z</time>
</trkpt>
<trkpt lat="61.110429" lon="25.992396">
<time>2020-09-12T09:22:53Z</time>
</trkpt>
<trkpt lat="61.110384" lon="25.992326">
<time>2020-09-12T09:22:54Z</time>
</trkpt>
<trkpt lat="61.110338" lon="25.992257">
<time>2020-09-12T09:22:55Z</time>
</trkpt>
<trkpt lat="61.110294" lon="25.992176">
<time>2020-09-12T09:22:56Z</time>
</trkpt>
<trkpt lat="61.110248" lon="25.992097">
<time>2020-09-12T09:22:57Z</time>
</trkpt>
<trkpt lat="61.1102" lon="25.992017">
<time>2020-09-12T09:22:58Z</time>
</trkpt>
<trkpt lat="61.110162" lon="25.991948">
<time>2020-09-12T09:22:59Z</time>
</trkpt>
<trkpt lat="61.110135" lon="25.991867">
<time>2020-09-12T09:23:00Z</time>
</trkpt>
<trkpt lat="61.110112" lon="25.991775">
<time>2020-09-12T09:23:01Z</time>
</trkpt>
<trkpt lat="61.110096" lon="25.991674">
<time>2020-09-12T09:23:02Z</time>
</trkpt>
<trkpt lat="61.110079" lon="25.991566">
<time>2020-09-12T09:23:03Z</time>
</trkpt>
<trkpt lat="61.110063" lon="25.991459">
<time>2020-09-12T09:23:04Z</time>
</trkpt>
<trkpt lat="61.110042" lon="25.991354">
<time>2020-09-12T09:23:05Z</time>
</trkpt>
<trkpt lat="61.110012" lon="25.991264">
<time>2020-09-12T09:23:06Z</time>
</trkpt>
<trkpt lat="61.109985" lon="25.991192">
<time>2020-09-12T09:23:07Z</time>
</trkpt>
<trkpt lat="61.109962" lon="25.991142">
<time>2020-09-12T09:23:08Z</time>
</trkpt>
<trkpt lat="61.109947" lon="25.99111">
<time>2020-09-12T09:23:09Z</time>
</trkpt>
<trkpt lat="61.109937" lon="25.991089">
<time>2020-09-12T09:23:10Z</time>
</trkpt>
<trkpt lat="61.109935" lon="25.991094">
<time>2020-09-12T09:23:11Z</time>
</trkpt>
<trkpt lat="61.109937" lon="25.9911">
<time>2020-09-12T09:23:12Z</time>
</trkpt>
<trkpt lat="61.109945" lon="25.991112">
<time>2020-09-12T09:23:13Z</time>
</trkpt>
<trkpt lat="61.109955" lon="25.991131">
<time>2020-09-12T09:23:14Z</time>
</trkpt>
<trkpt lat="61.109969" lon="25.991161">
<time>2020-09-12T09:23:15Z</time>
</trkpt>
<trkpt lat="61.10999" lon="25.991177">
<time>2020-09-12T09:23:16Z</time>
</trkpt>
<trkpt lat="61.110017" lon="25.991145">
<time>2020-09-12T09:23:17Z</time>
</trkpt>
<trkpt lat="61.110048" lon="25.991077">
<time>2020-09-12T09:23:18Z</time>
</trkpt>
<trkpt lat="61.110073" lon="25.990991">
<time>2020-09-12T09:23:19Z</time>
</trkpt>
<trkpt lat="61.110098" lon="25.990886">
<time>2020-09-12T09:23:20Z</time>
</trkpt>
<trkpt lat="61.110128" lon="25.990773">
<time>2020-09-12T09:23:21Z</time>
</trkpt>
<trkpt lat="61.110159" lon="25.990647">
<time>2020-09-12T09:23:22Z</time>
</trkpt>
<trkpt lat="61.110192" lon="25.990512">
<time>2020-09-12T09:23:23Z</time>
</trkpt>
<trkpt lat="61.110224" lon="25.990363">
<time>2020-09-12T09:23:24Z</time>
</trkpt>
<trkpt lat="61.110256" lon="25.990219">
<time>2020-09-12T09:23:25Z</time>
</trkpt>
<trkpt lat="61.110292" lon="25.990075">
<time>2020-09-12T09:23:26Z</time>
</trkpt>
<trkpt lat="61.110321" lon="25.989937">
<time>2020-09-12T09:23:27Z</time>
</trkpt>
<trkpt lat="61.110338" lon="25.989803">
<time>2020-09-12T09:23:28Z</time>
</trkpt>
<trkpt lat="61.110332" lon="25.989675">
<time>2020-09-12T09:23:29Z</time>
</trkpt>
<trkpt lat="61.110299" lon="25.989576">
<time>2020-09-12T09:23:30Z</time>
</trkpt>
<trkpt lat="61.110249" lon="25.989511">
<time>2020-09-12T09:23:31Z</time>
</trkpt>
<trkpt lat="61.11019" lon="25.989455">
<time>2020-09-12T09:23:32Z</time>
</trkpt>
<trkpt lat="61.110128" lon="25.989396">
<time>2020-09-12T09:23:33Z</time>
</trkpt>
<trkpt lat="61.110067" lon="25.989326">
<time>2020-09-12T09:23:34Z</time>
</trkpt>
<trkpt lat="61.110007" lon="25.989247">
<time>2020-09-12T09:23:35Z</time>
</trkpt>
<trkpt lat="61.109947" lon="25.989166">
<time>2020-09-12T09:23:36Z</time>
</trkpt>
<trkpt lat="61.109889" lon="25.989084">
<time>2020-09-12T09:23:37Z</time>
</trkpt>
<trkpt lat="61.10983" lon="25.989002">
<time>2020-09-12T09:23:38Z</time>
</trkpt>
<trkpt lat="61.109773" lon="25.988921">
<time>2020-09-12T09:23:39Z</time>
</trkpt>
<trkpt lat="61.109714" lon="25.98884">
<time>2020-09-12T09:23:40Z</time>
</trkpt>
<trkpt lat="61.109656" lon="25.988759">
<time>2020-09-12T09:23:41Z</time>
</trkpt>
<trkpt lat="61.109598" lon="25.988679">
<time>2020-09-12T09:23:42Z</time>
</trkpt>
<trkpt lat="61.10954" lon="25.988591">
<time>2020-09-12T09:23:43Z</time>
</trkpt>
<trkpt lat="61.10948" lon="25.988497">
<time>2020-09-12T09:23:44Z</time>
</trkpt>
<trkpt lat="61.109421" lon="25.988409">
<time>2020-09-12T09:23:45Z</time>
</trkpt>
<trkpt lat="61.109362" lon="25.988325">
<time>2020-09-12T09:23:46Z</time>
</trkpt>
<trkpt lat="61.109304" lon="25.988245">
<time>2020-09-12T09:23:47Z</time>
</trkpt>
<trkpt lat="61.109244" lon="25.988158">
<time>2020-09-12T09:23:48Z</time>
</trkpt>
<trkpt lat="61.109185" lon="25.988064">
<time>2020-09-12T09:23:49Z</time>
</trkpt>
<trkpt lat="61.109126" lon="25.987964">
<time>2020-09-12T09:23:50Z</time>
</trkpt>
<trkpt lat="61.109066" lon="25.987869">
<time>2020-09-12T09:23:51Z</time>
</trkpt>
<trkpt lat="61.109007" lon="25.987781">
<time>2020-09-12T09:23:52Z</time>
</trkpt>
<trkpt lat="61.108947" lon="25.987685">
<time>2020-09-12T09:23:53Z</time>
</trkpt>
<trkpt lat="61.108887" lon="25.987594">
<time>2020-09-12T09:23:54Z</time>
</trkpt>
<trkpt lat="61.108827" lon="25.987508">
<time>2020-09-12T09:23:55Z</time>
</trkpt>
<trkpt lat="61.10877" lon="25.987425">
<time>2020-09-12T09:23:56Z</time>
</trkpt>
<trkpt lat="61.108712" lon="25.987343">
<time>2020-09-12T09:23:57Z</time>
</trkpt>
<trkpt lat="61.108654" lon="25.987257">
<time>2020-09-12T09:23:58Z</time>
</trkpt>
<trkpt lat="61.108594" lon="25.987169">
<time>2020-09-12T09:23:59Z</time>
</trkpt>
<trkpt lat="61.108533" lon="25.987087">
<time>2020-09-12T09:24:00Z</time>
</trkpt>
<trkpt lat="61.108473" lon="25.987008">
<time>2020-09-12T09:24:01Z</time>
</trkpt>
<trkpt lat="61.108413" lon="25.986926">
<time>2020-09-12T09:24:02Z</time>
</trkpt>
<trkpt lat="61.108353" lon="25.986844">
<time>2020-09-12T09:24:03Z</time>
</trkpt>
<trkpt lat="61.108298" lon="25.986769">
<time>2020-09-12T09:24:04Z</time>
</trkpt>
<trkpt lat="61.108242" lon="25.986684">
<time>2020-09-12T09:24:05Z</time>
</trkpt>
<trkpt lat="61.108184" lon="25.986604">
<time>2020-09-12T09:24:06Z</time>
</trkpt>
<trkpt lat="61.108124" lon="25.986528">
<time>2020-09-12T09:24:07Z</time>
</trkpt>
<trkpt lat="61.108066" lon="25.986455">
<time>2020-09-12T09:24:08Z</time>
</trkpt>
<trkpt lat="61.108007" lon="25.986376">
<time>2020-09-12T09:24:09Z</time>
</trkpt>
<trkpt lat="61.107949" lon="25.98629">
<time>2020-09-12T09:24:10Z</time>
</trkpt>
<trkpt lat="61.107891" lon="25.9862">
<time>2020-09-12T09:24:11Z</time>
</trkpt>
<trkpt lat="61.107835" lon="25.986114">
<time>2020-09-12T09:24:12Z</time>
</trkpt>
<trkpt lat="61.107778" lon="25.986028">
<time>2020-09-12T09:24:13Z</time>
</trkpt>
<trkpt lat="61.10772" lon="25.98594">
<time>2020-09-12T09:24:14Z</time>
</trkpt>
<trkpt lat="61.107663" lon="25.985846">
<time>2020-09-12T09:24:15Z</time>
</trkpt>
<trkpt lat="61.107611" lon="25.985739">
<time>2020-09-12T09:24:16Z</time>
</trkpt>
<trkpt lat="61.107559" lon="25.985622">
<time>2020-09-12T09:24:17Z</time>
</trkpt>
<trkpt lat="61.107507" lon="25.98551">
<time>2020-09-12T09:24:18Z</time>
</trkpt>
<trkpt lat="61.107445" lon="25.985409">
<time>2020-09-12T09:24:19Z</time>
</trkpt>
<trkpt lat="61.107374" lon="25.985327">
<time>2020-09-12T09:24:20Z</time>
</trkpt>
<trkpt lat="61.107303" lon="25.98525">
<time>2020-09-12T09:24:21Z</time>
</trkpt>
<trkpt lat="61.107236" lon="25.985177">
<time>2020-09-12T09:24:22Z</time>
</trkpt>
<trkpt lat="61.107178" lon="25.985101">
<time>2020-09-12T09:24:23Z</time>
</trkpt>
<trkpt lat="61.107122" lon="25.985014">
<time>2020-09-12T09:24:24Z</time>
</trkpt>
<trkpt lat="61.107066" lon="25.984921">
<time>2020-09-12T09:24:25Z</time>
</trkpt>
<trkpt lat="61.10701" lon="25.98482">
<time>2020-09-12T09:24:26Z</time>
</trkpt>
<trkpt lat="61.106949" lon="25.984725">
<time>2020-09-12T09:24:27Z</time>
</trkpt>
<trkpt lat="61.106882" lon="25.984632">
<time>2020-09-12T09:24:28Z</time>
</trkpt>
<trkpt lat="61.106814" lon="25.984539">
<time>2020-09-12T09:24:29Z</time>
</trkpt>
<trkpt lat="61.106748" lon="25.984446">
<time>2020-09-12T09:24:30Z</time>
</trkpt>
<trkpt lat="61.106688" lon="25.984346">
<time>2020-09-12T09:24:31Z</time>
</trkpt>
<trkpt lat="61.106629" lon="25.984248">
<time>2020-09-12T09:24:32Z</time>
</trkpt>
<trkpt lat="61.106572" lon="25.984157">
<time>2020-09-12T09:24:33Z</time>
</trkpt>
<trkpt lat="61.106512" lon="25.984065">
<time>2020-09-12T09:24:34Z</time>
</trkpt>
<trkpt lat="61.10645" lon="25.983967">
<time>2020-09-12T09:24:35Z</time>
</trkpt>
<trkpt lat="61.106387" lon="25.983865">
<time>2020-09-12T09:24:36Z</time>
</trkpt>
<trkpt lat="61.106324" lon="25.98376">
<time>2020-09-12T09:24:37Z</time>
</trkpt>
<trkpt lat="61.106257" lon="25.983668">
<time>2020-09-12T09:24:38Z</time>
</trkpt>
<trkpt lat="61.106191" lon="25.983595">
<time>2020-09-12T09:24:39Z</time>
</trkpt>
<trkpt lat="61.106135" lon="25.983522">
<time>2020-09-12T09:24:40Z</time>
</trkpt>
<trkpt lat="61.106092" lon="25.983454">
<time>2020-09-12T09:24:41Z</time>
</trkpt>
<trkpt lat="61.106057" lon="25.983392">
<time>2020-09-12T09:24:42Z</time>
</trkpt>
<trkpt lat="61.106025" lon="25.983343">
<time>2020-09-12T09:24:43Z</time>
</trkpt>
<trkpt lat="61.105994" lon="25.983297">
<time>2020-09-12T09:24:44Z</time>
</trkpt>
<trkpt lat="61.105957" lon="25.983243">
<time>2020-09-12T09:24:45Z</time>
</trkpt>
<trkpt lat="61.105912" lon="25.983186">
<time>2020-09-12T09:24:46Z</time>
</trkpt>
<trkpt lat="61.105859" lon="25.983121">
<time>2020-09-12T09:24:47Z</time>
</trkpt>
<trkpt lat="61.1058" lon="25.983041">
<time>2020-09-12T09:24:48Z</time>
</trkpt>
<trkpt lat="61.105742" lon="25.982979">
<time>2020-09-12T09:24:49Z</time>
</trkpt>
<trkpt lat="61.105684" lon="25.982955">
<time>2020-09-12T09:24:50Z</time>
</trkpt>
<trkpt lat="61.105629" lon="25.982975">
<time>2020-09-12T09:24:51Z</time>
</trkpt>
<trkpt lat="61.10558" lon="25.983025">
<time>2020-09-12T09:24:52Z</time>
</trkpt>
<trkpt lat="61.105539" lon="25.983082">
<time>2020-09-12T09:24:53Z</time>
</trkpt>
<trkpt lat="61.105503" lon="25.983152">
<time>2020-09-12T09:24:54Z</time>
</trkpt>
<trkpt lat="61.105477" lon="25.983248">
<time>2020-09-12T09:24:55Z</time>
</trkpt>
<trkpt lat="61.105457" lon="25.98335">
<time>2020-09-12T09:24:56Z</time>
</trkpt>
<trkpt lat="61.10544" lon="25.983473">
<time>2020-09-12T09:24:57Z</time>
</trkpt>
<trkpt lat="61.105425" lon="25.983591">
<time>2020-09-12T09:24:58Z</time>
</trkpt>
<trkpt lat="61.105418" lon="25.983693">
<time>2020-09-12T09:24:59Z</time>
</trkpt>
<trkpt lat="61.105421" lon="25.983786">
<time>2020-09-12T09:25:00Z</time>
</trkpt>
<trkpt lat="61.105426" lon="25.983878">
<time>2020-09-12T09:25:01Z</time>
</trkpt>
<trkpt lat="61.105437" lon="25.983979">
<time>2020-09-12T09:25:02Z</time>
</trkpt>
<trkpt lat="61.105443" lon="25.984079">
<time>2020-09-12T09:25:03Z</time>
</trkpt>
<trkpt lat="61.105451" lon="25.984179">
<time>2020-09-12T09:25:04Z</time>
</trkpt>
<trkpt lat="61.105467" lon="25.984269">
<time>2020-09-12T09:25:05Z</time>
</trkpt>
<trkpt lat="61.105486" lon="25.984362">
<time>2020-09-12T09:25:06Z</time>
</trkpt>
<trkpt lat="61.105502" lon="25.984454">
<time>2020-09-12T09:25:07Z</time>
</trkpt>
<trkpt lat="61.105514" lon="25.98455">
<time>2020-09-12T09:25:08Z</time>
</trkpt>
<trkpt lat="61.105517" lon="25.984648">
<time>2020-09-12T09:25:09Z</time>
</trkpt>
<trkpt lat="61.105512" lon="25.984747">
<time>2020-09-12T09:25:10Z</time>
</trkpt>
<trkpt lat="61.105493" lon="25.984841">
<time>2020-09-12T09:25:11Z</time>
</trkpt>
<trkpt lat="61.105458" lon="25.984906">
<time>2020-09-12T09:25:12Z</time>
</trkpt>
<trkpt lat="61.105418" lon="25.984953">
<time>2020-09-12T09:25:13Z</time>
</trkpt>
<trkpt lat="61.105379" lon="25.984993">
<time>2020-09-12T09:25:14Z</time>
</trkpt>
<trkpt lat="61.105339" lon="25.985022">
<time>2020-09-12T09:25:15Z</time>
</trkpt>
<trkpt lat="61.105301" lon="25.985049">
<time>2020-09-12T09:25:16Z</time>
</trkpt>
<trkpt lat="61.10527" lon="25.985074">
<time>2020-09-12T09:25:17Z</time>
</trkpt>
<trkpt lat="61.105252" lon="25.985096">
<time>2020-09-12T09:25:18Z</time>
</trkpt>
<trkpt lat="61.105239" lon="25.985113">
<time>2020-09-12T09:25:19Z</time>
</trkpt>
<trkpt lat="61.105228" lon="25.98512">
<time>2020-09-12T09:25:20Z</time>
</trkpt>
<trkpt lat="61.105213" lon="25.985108">
<time>2020-09-12T09:25:21Z</time>
</trkpt>
<trkpt lat="61.105196" lon="25.985072">
<time>2020-09-12T09:25:22Z</time>
</trkpt>
<trkpt lat="61.105176" lon="25.985019">
<time>2020-09-12T09:25:23Z</time>
</trkpt>
<trkpt lat="61.105153" lon="25.984965">
<time>2020-09-12T09:25:24Z</time>
</trkpt>
<trkpt lat="61.105126" lon="25.984904">
<time>2020-09-12T09:25:25Z</time>
</trkpt>
<trkpt lat="61.105096" lon="25.984837">
<time>2020-09-12T09:25:26Z</time>
</trkpt>
<trkpt lat="61.105063" lon="25.984769">
<time>2020-09-12T09:25:27Z</time>
</trkpt>
<trkpt lat="61.105031" lon="25.9847">
<time>2020-09-12T09:25:28Z</time>
</trkpt>
<trkpt lat="61.105002" lon="25.984627">
<time>2020-09-12T09:25:29Z</time>
</trkpt>
<trkpt lat="61.104973" lon="25.984555">
<time>2020-09-12T09:25:30Z</time>
</trkpt>
<trkpt lat="61.104942" lon="25.9845">
<time>2020-09-12T09:25:31Z</time>
</trkpt>
<trkpt lat="61.10491" lon="25.984471">
<time>2020-09-12T09:25:32Z</time>
</trkpt>
<trkpt lat="61.104876" lon="25.984445">
<time>2020-09-12T09:25:33Z</time>
</trkpt>
<trkpt lat="61.104841" lon="25.984426">
<time>2020-09-12T09:25:34Z</time>
</trkpt>
<trkpt lat="61.104806" lon="25.984407">
<time>2020-09-12T09:25:35Z</time>
</trkpt>
<trkpt lat="61.10477" lon="25.984389">
<time>2020-09-12T09:25:36Z</time>
</trkpt>
<trkpt lat="61.104735" lon="25.984372">
<time>2020-09-12T09:25:37Z</time>
</trkpt>
<trkpt lat="61.104699" lon="25.984358">
<time>2020-09-12T09:25:38Z</time>
</trkpt>
<trkpt lat="61.104661" lon="25.984342">
<time>2020-09-12T09:25:39Z</time>
</trkpt>
<trkpt lat="61.104623" lon="25.984321">
<time>2020-09-12T09:25:40Z</time>
</trkpt>
<trkpt lat="61.104586" lon="25.984298">
<time>2020-09-12T09:25:41Z</time>
</trkpt>
<trkpt lat="61.104548" lon="25.984274">
<time>2020-09-12T09:25:42Z</time>
</trkpt>
<trkpt lat="61.10451" lon="25.984248">
<time>2020-09-12T09:25:43Z</time>
</trkpt>
<trkpt lat="61.104466" lon="25.984213">
<time>2020-09-12T09:25:44Z</time>
</trkpt>
<trkpt lat="61.104421" lon="25.984173">
<time>2020-09-12T09:25:45Z</time>
</trkpt>
<trkpt lat="61.104374" lon="25.984122">
<time>2020-09-12T09:25:46Z</time>
</trkpt>
<trkpt lat="61.104323" lon="25.984075">
<time>2020-09-12T09:25:47Z</time>
</trkpt>
<trkpt lat="61.104271" lon="25.984021">
<time>2020-09-12T09:25:48Z</time>
</trkpt>
<trkpt lat="61.104217" lon="25.98397">
<time>2020-09-12T09:25:49Z</time>
</trkpt>
<trkpt lat="61.10416" lon="25.983933">
<time>2020-09-12T09:25:50Z</time>
</trkpt>
<trkpt lat="61.1041" lon="25.9839">
<time>2020-09-12T09:25:51Z</time>
</trkpt>
<trkpt lat="61.104037" lon="25.98388">
<time>2020-09-12T09:25:52Z</time>
</trkpt>
<trkpt lat="61.103975" lon="25.983865">
<time>2020-09-12T09:25:53Z</time>
</trkpt>
<trkpt lat="61.103915" lon="25.983851">
<time>2020-09-12T09:25:54Z</time>
</trkpt>
<trkpt lat="61.103854" lon="25.983834">
<time>2020-09-12T09:25:55Z</time>
</trkpt>
<trkpt lat="61.103798" lon="25.983818">
<time>2020-09-12T09:25:56Z</time>
</trkpt>
<trkpt lat="61.103739" lon="25.983796">
<time>2020-09-12T09:25:57Z</time>
</trkpt>
<trkpt lat="61.103681" lon="25.983766">
<time>2020-09-12T09:25:58Z</time>
</trkpt>
<trkpt lat="61.103621" lon="25.983735">
<time>2020-09-12T09:25:59Z</time>
</trkpt>
<trkpt lat="61.103557" lon="25.983703">
<time>2020-09-12T09:26:00Z</time>
</trkpt>
<trkpt lat="61.103491" lon="25.983673">
<time>2020-09-12T09:26:01Z</time>
</trkpt>
<trkpt lat="61.103428" lon="25.983645">
<time>2020-09-12T09:26:02Z</time>
</trkpt>
<trkpt lat="61.103371" lon="25.983616">
<time>2020-09-12T09:26:03Z</time>
</trkpt>
<trkpt lat="61.103314" lon="25.983587">
<time>2020-09-12T09:26:04Z</time>
</trkpt>
<trkpt lat="61.103258" lon="25.983554">
<time>2020-09-12T09:26:05Z</time>
</trkpt>
<trkpt lat="61.103203" lon="25.983516">
<time>2020-09-12T09:26:06Z</time>
</trkpt>
<trkpt lat="61.103148" lon="25.983486">
<time>2020-09-12T09:26:07Z</time>
</trkpt>
<trkpt lat="61.103096" lon="25.983467">
<time>2020-09-12T09:26:08Z</time>
</trkpt>
<trkpt lat="61.103044" lon="25.983452">
<time>2020-09-12T09:26:09Z</time>
</trkpt>
<trkpt lat="61.102994" lon="25.983424">
<time>2020-09-12T09:26:10Z</time>
</trkpt>
<trkpt lat="61.102941" lon="25.983386">
<time>2020-09-12T09:26:11Z</time>
</trkpt>
<trkpt lat="61.10289" lon="25.983351">
<time>2020-09-12T09:26:12Z</time>
</trkpt>
<trkpt lat="61.102835" lon="25.983337">
<time>2020-09-12T09:26:13Z</time>
</trkpt>
<trkpt lat="61.102779" lon="25.983331">
<time>2020-09-12T09:26:14Z</time>
</trkpt>
<trkpt lat="61.102726" lon="25.983329">
<time>2020-09-12T09:26:15Z</time>
</trkpt>
<trkpt lat="61.102682" lon="25.983334">
<time>2020-09-12T09:26:16Z</time>
</trkpt>
<trkpt lat="61.102646" lon="25.983362">
<time>2020-09-12T09:26:17Z</time>
</trkpt>
<trkpt lat="61.102617" lon="25.983401">
<time>2020-09-12T09:26:18Z</time>
</trkpt>
<trkpt lat="61.102584" lon="25.983438">
<time>2020-09-12T09:26:19Z</time>
</trkpt>
<trkpt lat="61.102548" lon="25.983471">
<time>2020-09-12T09:26:20Z</time>
</trkpt>
<trkpt lat="61.102506" lon="25.983503">
<time>2020-09-12T09:26:21Z</time>
</trkpt>
<trkpt lat="61.102467" lon="25.983536">
<time>2020-09-12T09:26:22Z</time>
</trkpt>
<trkpt lat="61.102434" lon="25.983563">
<time>2020-09-12T09:26:23Z</time>
</trkpt>
<trkpt lat="61.102398" lon="25.9836">
<time>2020-09-12T09:26:24Z</time>
</trkpt>
<trkpt lat="61.102359" lon="25.983644">
<time>2020-09-12T09:26:25Z</time>
</trkpt>
<trkpt lat="61.102318" lon="25.983692">
<time>2020-09-12T09:26:26Z</time>
</trkpt>
<trkpt lat="61.102268" lon="25.983744">
<time>2020-09-12T09:26:27Z</time>
</trkpt>
<trkpt lat="61.102216" lon="25.983792">
<time>2020-09-12T09:26:28Z</time>
</trkpt>
<trkpt lat="61.102168" lon="25.983845">
<time>2020-09-12T09:26:29Z</time>
</trkpt>
<trkpt lat="61.102129" lon="25.983917">
<time>2020-09-12T09:26:30Z</time>
</trkpt>
<trkpt lat="61.102094" lon="25.983987">
<time>2020-09-12T09:26:31Z</time>
</trkpt>
<trkpt lat="61.10206" lon="25.984062">
<time>2020-09-12T09:26:32Z</time>
</trkpt>
<trkpt lat="61.102037" lon="25.98415">
<time>2020-09-12T09:26:33Z</time>
</trkpt>
<trkpt lat="61.102027" lon="25.984228">
<time>2020-09-12T09:26:34Z</time>
</trkpt>
<trkpt lat="61.102019" lon="25.984314">
<time>2020-09-12T09:26:35Z</time>
</trkpt>
<trkpt lat="61.102012" lon="25.984398">
<time>2020-09-12T09:26:36Z</time>
</trkpt>
<trkpt lat="61.102009" lon="25.984477">
<time>2020-09-12T09:26:37Z</time>
</trkpt>
<trkpt lat="61.102012" lon="25.984546">
<time>2020-09-12T09:26:38Z</time>
</trkpt>
<trkpt lat="61.102022" lon="25.984611">
<time>2020-09-12T09:26:39Z</time>
</trkpt>
<trkpt lat="61.102024" lon="25.984683">
<time>2020-09-12T09:26:40Z</time>
</trkpt>
<trkpt lat="61.102026" lon="25.984746">
<time>2020-09-12T09:26:41Z</time>
</trkpt>
<trkpt lat="61.102027" lon="25.984804">
<time>2020-09-12T09:26:42Z</time>
</trkpt>
<trkpt lat="61.102029" lon="25.984854">
<time>2020-09-12T09:26:43Z</time>
</trkpt>
<trkpt lat="61.102029" lon="25.984901">
<time>2020-09-12T09:26:44Z</time>
</trkpt>
<trkpt lat="61.102036" lon="25.984947">
<time>2020-09-12T09:26:45Z</time>
</trkpt>
<trkpt lat="61.102049" lon="25.984993">
<time>2020-09-12T09:26:46Z</time>
</trkpt>
<trkpt lat="61.102059" lon="25.985033">
<time>2020-09-12T09:26:47Z</time>
</trkpt>
<trkpt lat="61.102071" lon="25.985069">
<time>2020-09-12T09:26:48Z</time>
</trkpt>
<trkpt lat="61.102081" lon="25.985114">
<time>2020-09-12T09:26:49Z</time>
</trkpt>
<trkpt lat="61.102087" lon="25.985164">
<time>2020-09-12T09:26:50Z</time>
</trkpt>
<trkpt lat="61.102086" lon="25.985223">
<time>2020-09-12T09:26:51Z</time>
</trkpt>
<trkpt lat="61.102081" lon="25.985269">
<time>2020-09-12T09:26:52Z</time>
</trkpt>
<trkpt lat="61.102078" lon="25.985298">
<time>2020-09-12T09:26:53Z</time>
</trkpt>
<trkpt lat="61.102076" lon="25.985318">
<time>2020-09-12T09:26:54Z</time>
</trkpt>
<trkpt lat="61.102067" lon="25.985337">
<time>2020-09-12T09:26:55Z</time>
</trkpt>
<trkpt lat="61.10206" lon="25.985361">
<time>2020-09-12T09:26:56Z</time>
</trkpt>
<trkpt lat="61.102056" lon="25.985385">
<time>2020-09-12T09:26:57Z</time>
</trkpt>
<trkpt lat="61.10205" lon="25.985428">
<time>2020-09-12T09:26:58Z</time>
</trkpt>
<trkpt lat="61.10205" lon="25.98547">
<time>2020-09-12T09:26:59Z</time>
</trkpt>
<trkpt lat="61.102055" lon="25.98551">
<time>2020-09-12T09:27:00Z</time>
</trkpt>
<trkpt lat="61.102058" lon="25.985553">
<time>2020-09-12T09:27:01Z</time>
</trkpt>
<trkpt lat="61.10206" lon="25.985597">
<time>2020-09-12T09:27:02Z</time>
</trkpt>
<trkpt lat="61.102061" lon="25.985639">
<time>2020-09-12T09:27:03Z</time>
</trkpt>
<trkpt lat="61.102061" lon="25.98568">
<time>2020-09-12T09:27:04Z</time>
</trkpt>
<trkpt lat="61.102054" lon="25.985721">
<time>2020-09-12T09:27:05Z</time>
</trkpt>
<trkpt lat="61.102041" lon="25.985757">
<time>2020-09-12T09:27:06Z</time>
</trkpt>
<trkpt lat="61.102021" lon="25.985794">
<time>2020-09-12T09:27:07Z</time>
</trkpt>
<trkpt lat="61.102003" lon="25.985835">
<time>2020-09-12T09:27:08Z</time>
</trkpt>
<trkpt lat="61.10199" lon="25.985881">
<time>2020-09-12T09:27:09Z</time>
</trkpt>
<trkpt lat="61.101991" lon="25.98593">
<time>2020-09-12T09:27:10Z</time>
</trkpt>
<trkpt lat="61.102" lon="25.98598">
<time>2020-09-12T09:27:11Z</time>
</trkpt>
<trkpt lat="61.102008" lon="25.986027">
<time>2020-09-12T09:27:12Z</time>
</trkpt>
<trkpt lat="61.10202" lon="25.98607">
<time>2020-09-12T09:27:13Z</time>
</trkpt>
<trkpt lat="61.10203" lon="25.986108">
<time>2020-09-12T09:27:14Z</time>
</trkpt>
<trkpt lat="61.102044" lon="25.986152">
<time>2020-09-12T09:27:15Z</time>
</trkpt>
<trkpt lat="61.102058" lon="25.986201">
<time>2020-09-12T09:27:16Z</time>
</trkpt>
<trkpt lat="61.102073" lon="25.986265">
<time>2020-09-12T09:27:17Z</time>
</trkpt>
<trkpt lat="61.102085" lon="25.986338">
<time>2020-09-12T09:27:18Z</time>
</trkpt>
<trkpt lat="61.102098" lon="25.986419">
<time>2020-09-12T09:27:19Z</time>
</trkpt>
<trkpt lat="61.10211" lon="25.986509">
<time>2020-09-12T09:27:20Z</time>
</trkpt>
<trkpt lat="61.102118" lon="25.986599">
<time>2020-09-12T09:27:21Z</time>
</trkpt>
<trkpt lat="61.102126" lon="25.98669">
<time>2020-09-12T09:27:22Z</time>
</trkpt>
<trkpt lat="61.102135" lon="25.986786">
<time>2020-09-12T09:27:23Z</time>
</trkpt>
<trkpt lat="61.102147" lon="25.986879">
<time>2020-09-12T09:27:24Z</time>
</trkpt>
<trkpt lat="61.102161" lon="25.986973">
<time>2020-09-12T09:27:25Z</time>
</trkpt>
<trkpt lat="61.102175" lon="25.987068">
<time>2020-09-12T09:27:26Z</time>
</trkpt>
<trkpt lat="61.102185" lon="25.987168">
<time>2020-09-12T09:27:27Z</time>
</trkpt>
<trkpt lat="61.10219" lon="25.987267">
<time>2020-09-12T09:27:28Z</time>
</trkpt>
<trkpt lat="61.102195" lon="25.987376">
<time>2020-09-12T09:27:29Z</time>
</trkpt>
<trkpt lat="61.102202" lon="25.987496">
<time>2020-09-12T09:27:30Z</time>
</trkpt>
<trkpt lat="61.102205" lon="25.987615">
<time>2020-09-12T09:27:31Z</time>
</trkpt>
<trkpt lat="61.102208" lon="25.987732">
<time>2020-09-12T09:27:32Z</time>
</trkpt>
<trkpt lat="61.10221" lon="25.987857">
<time>2020-09-12T09:27:33Z</time>
</trkpt>
<trkpt lat="61.102214" lon="25.987984">
<time>2020-09-12T09:27:34Z</time>
</trkpt>
<trkpt lat="61.102218" lon="25.988116">
<time>2020-09-12T09:27:35Z</time>
</trkpt>
<trkpt lat="61.102224" lon="25.988246">
<time>2020-09-12T09:27:36Z</time>
</trkpt>
<trkpt lat="61.102232" lon="25.988374">
<time>2020-09-12T09:27:37Z</time>
</trkpt>
<trkpt lat="61.102242" lon="25.988507">
<time>2020-09-12T09:27:38Z</time>
</trkpt>
<trkpt lat="61.102251" lon="25.988641">
<time>2020-09-12T09:27:39Z</time>
</trkpt>
<trkpt lat="61.102261" lon="25.988768">
<time>2020-09-12T09:27:40Z</time>
</trkpt>
<trkpt lat="61.102267" lon="25.988886">
<time>2020-09-12T09:27:41Z</time>
</trkpt>
<trkpt lat="61.102275" lon="25.989001">
<time>2020-09-12T09:27:42Z</time>
</trkpt>
<trkpt lat="61.102284" lon="25.989118">
<time>2020-09-12T09:27:43Z</time>
</trkpt>
<trkpt lat="61.102293" lon="25.98923">
<time>2020-09-12T09:27:44Z</time>
</trkpt>
<trkpt lat="61.1023" lon="25.989344">
<time>2020-09-12T09:27:45Z</time>
</trkpt>
<trkpt lat="61.102304" lon="25.989458">
<time>2020-09-12T09:27:46Z</time>
</trkpt>
<trkpt lat="61.102311" lon="25.989569">
<time>2020-09-12T09:27:47Z</time>
</trkpt>
<trkpt lat="61.102317" lon="25.989679">
<time>2020-09-12T09:27:48Z</time>
</trkpt>
<trkpt lat="61.102319" lon="25.989782">
<time>2020-09-12T09:27:49Z</time>
</trkpt>
<trkpt lat="61.102336" lon="25.989879">
<time>2020-09-12T09:27:50Z</time>
</trkpt>
<trkpt lat="61.102361" lon="25.989958">
<time>2020-09-12T09:27:51Z</time>
</trkpt>
<trkpt lat="61.102381" lon="25.990032">
<time>2020-09-12T09:27:52Z</time>
</trkpt>
<trkpt lat="61.10239" lon="25.990108">
<time>2020-09-12T09:27:53Z</time>
</trkpt>
<trkpt lat="61.102397" lon="25.990182">
<time>2020-09-12T09:27:54Z</time>
</trkpt>
<trkpt lat="61.102401" lon="25.990247">
<time>2020-09-12T09:27:55Z</time>
</trkpt>
<trkpt lat="61.102399" lon="25.990301">
<time>2020-09-12T09:27:56Z</time>
</trkpt>
<trkpt lat="61.102391" lon="25.990354">
<time>2020-09-12T09:27:57Z</time>
</trkpt>
<trkpt lat="61.10237" lon="25.990394">
<time>2020-09-12T09:27:58Z</time>
</trkpt>
<trkpt lat="61.102343" lon="25.990436">
<time>2020-09-12T09:27:59Z</time>
</trkpt>
<trkpt lat="61.102317" lon="25.990495">
<time>2020-09-12T09:28:00Z</time>
</trkpt>
<trkpt lat="61.102298" lon="25.990565">
<time>2020-09-12T09:28:01Z</time>
</trkpt>
<trkpt lat="61.102289" lon="25.990644">
<time>2020-09-12T09:28:02Z</time>
</trkpt>
<trkpt lat="61.10229" lon="25.990734">
<time>2020-09-12T09:28:03Z</time>
</trkpt>
<trkpt lat="61.102296" lon="25.990843">
<time>2020-09-12T09:28:04Z</time>
</trkpt>
<trkpt lat="61.10231" lon="25.990967">
<time>2020-09-12T09:28:05Z</time>
</trkpt>
<trkpt lat="61.102331" lon="25.99109">
<time>2020-09-12T09:28:06Z</time>
</trkpt>
<trkpt lat="61.102356" lon="25.991217">
<time>2020-09-12T09:28:07Z</time>
</trkpt>
<trkpt lat="61.102387" lon="25.991353">
<time>2020-09-12T09:28:08Z</time>
</trkpt>
<trkpt lat="61.102423" lon="25.991497">
<time>2020-09-12T09:28:09Z</time>
</trkpt>
<trkpt lat="61.10246" lon="25.991625">
<time>2020-09-12T09:28:10Z</time>
</trkpt>
<trkpt lat="61.102502" lon="25.991717">
<time>2020-09-12T09:28:11Z</time>
</trkpt>
<trkpt lat="61.102546" lon="25.991793">
<time>2020-09-12T09:28:12Z</time>
</trkpt>
<trkpt lat="61.102591" lon="25.991845">
<time>2020-09-12T09:28:13Z</time>
</trkpt>
<trkpt lat="61.102633" lon="25.991885">
<time>2020-09-12T09:28:14Z</time>
</trkpt>
<trkpt lat="61.102686" lon="25.991936">
<time>2020-09-12T09:28:15Z</time>
</trkpt>
<trkpt lat="61.102743" lon="25.991993">
<time>2020-09-12T09:28:16Z</time>
</trkpt>
<trkpt lat="61.102796" lon="25.992061">
<time>2020-09-12T09:28:17Z</time>
</trkpt>
<trkpt lat="61.102851" lon="25.992137">
<time>2020-09-12T09:28:18Z</time>
</trkpt>
<trkpt lat="61.102908" lon="25.992214">
<time>2020-09-12T09:28:19Z</time>
</trkpt>
<trkpt lat="61.102976" lon="25.992301">
<time>2020-09-12T09:28:20Z</time>
</trkpt>
<trkpt lat="61.103052" lon="25.992392">
<time>2020-09-12T09:28:21Z</time>
</trkpt>
<trkpt lat="61.103136" lon="25.992502">
<time>2020-09-12T09:28:22Z</time>
</trkpt>
<trkpt lat="61.103224" lon="25.992612">
<time>2020-09-12T09:28:23Z</time>
</trkpt>
<trkpt lat="61.103303" lon="25.992715">
<time>2020-09-12T09:28:24Z</time>
</trkpt>
<trkpt lat="61.103374" lon="25.992816">
<time>2020-09-12T09:28:25Z</time>
</trkpt>
<trkpt lat="61.103441" lon="25.992909">
<time>2020-09-12T09:28:26Z</time>
</trkpt>
<trkpt lat="61.1035" lon="25.992988">
<time>2020-09-12T09:28:27Z</time>
</trkpt>
<trkpt lat="61.103551" lon="25.993056">
<time>2020-09-12T09:28:28Z</time>
</trkpt>
<trkpt lat="61.103608" lon="25.993141">
<time>2020-09-12T09:28:29Z</time>
</trkpt>
<trkpt lat="61.103666" lon="25.99324">
<time>2020-09-12T09:28:30Z</time>
</trkpt>
<trkpt lat="61.103734" lon="25.993342">
<time>2020-09-12T09:28:31Z</time>
</trkpt>
<trkpt lat="61.103813" lon="25.993462">
<time>2020-09-12T09:28:32Z</time>
</trkpt>
<trkpt lat="61.103893" lon="25.993571">
<time>2020-09-12T09:28:33Z</time>
</trkpt>
<trkpt lat="61.103977" lon="25.993684">
<time>2020-09-12T09:28:34Z</time>
</trkpt>
<trkpt lat="61.104066" lon="25.993791">
<time>2020-09-12T09:28:35Z</time>
</trkpt>
<trkpt lat="61.104153" lon="25.99389">
<time>2020-09-12T09:28:36Z</time>
</trkpt>
<trkpt lat="61.104236" lon="25.993988">
<time>2020-09-12T09:28:37Z</time>
</trkpt>
<trkpt lat="61.104313" lon="25.994074">
<time>2020-09-12T09:28:38Z</time>
</trkpt>
<trkpt lat="61.104395" lon="25.994169">
<time>2020-09-12T09:28:39Z</time>
</trkpt>
<trkpt lat="61.104481" lon="25.994289">
<time>2020-09-12T09:28:40Z</time>
</trkpt>
<trkpt lat="61.104562" lon="25.994402">
<time>2020-09-12T09:28:41Z</time>
</trkpt>
<trkpt lat="61.104641" lon="25.994517">
<time>2020-09-12T09:28:42Z</time>
</trkpt>
<trkpt lat="61.104721" lon="25.994632">
<time>2020-09-12T09:28:43Z</time>
</trkpt>
<trkpt lat="61.104798" lon="25.994739">
<time>2020-09-12T09:28:44Z</time>
</trkpt>
<trkpt lat="61.104871" lon="25.994845">
<time>2020-09-12T09:28:45Z</time>
</trkpt>
<trkpt lat="61.104937" lon="25.994936">
<time>2020-09-12T09:28:46Z</time>
</trkpt>
<trkpt lat="61.104997" lon="25.995022">
<time>2020-09-12T09:28:47Z</time>
</trkpt>
<trkpt lat="61.105055" lon="25.995092">
<time>2020-09-12T09:28:48Z</time>
</trkpt>
<trkpt lat="61.105111" lon="25.99516">
<time>2020-09-12T09:28:49Z</time>
</trkpt>
<trkpt lat="61.10516" lon="25.995239">
<time>2020-09-12T09:28:50Z</time>
</trkpt>
<trkpt lat="61.105211" lon="25.995313">
<time>2020-09-12T09:28:51Z</time>
</trkpt>
<trkpt lat="61.105269" lon="25.995391">
<time>2020-09-12T09:28:52Z</time>
</trkpt>
<trkpt lat="61.105325" lon="25.995472">
<time>2020-09-12T09:28:53Z</time>
</trkpt>
<trkpt lat="61.105381" lon="25.995554">
<time>2020-09-12T09:28:54Z</time>
</trkpt>
<trkpt lat="61.105432" lon="25.995623">
<time>2020-09-12T09:28:55Z</time>
</trkpt>
<trkpt lat="61.105485" lon="25.995688">
<time>2020-09-12T09:28:56Z</time>
</trkpt>
<trkpt lat="61.10554" lon="25.995765">
<time>2020-09-12T09:28:57Z</time>
</trkpt>
<trkpt lat="61.105604" lon="25.995849">
<time>2020-09-12T09:28:58Z</time>
</trkpt>
<trkpt lat="61.105673" lon="25.995941">
<time>2020-09-12T09:28:59Z</time>
</trkpt>
<trkpt lat="61.105743" lon="25.996035">
<time>2020-09-12T09:29:00Z</time>
</trkpt>
<trkpt lat="61.105814" lon="25.996125">
<time>2020-09-12T09:29:01Z</time>
</trkpt>
<trkpt lat="61.105889" lon="25.996201">
<time>2020-09-12T09:29:02Z</time>
</trkpt>
<trkpt lat="61.105962" lon="25.996253">
<time>2020-09-12T09:29:03Z</time>
</trkpt>
<trkpt lat="61.106029" lon="25.996259">
<time>2020-09-12T09:29:04Z</time>
</trkpt>
<trkpt lat="61.106084" lon="25.996214">
<time>2020-09-12T09:29:05Z</time>
</trkpt>
<trkpt lat="61.106123" lon="25.996121">
<time>2020-09-12T09:29:06Z</time>
</trkpt>
<trkpt lat="61.106149" lon="25.996011">
<time>2020-09-12T09:29:07Z</time>
</trkpt>
<trkpt lat="61.106162" lon="25.995898">
<time>2020-09-12T09:29:08Z</time>
</trkpt>
<trkpt lat="61.106174" lon="25.995786">
<time>2020-09-12T09:29:09Z</time>
</trkpt>
<trkpt lat="61.106184" lon="25.995675">
<time>2020-09-12T09:29:10Z</time>
</trkpt>
<trkpt lat="61.106196" lon="25.995562">
<time>2020-09-12T09:29:11Z</time>
</trkpt>
<trkpt lat="61.106206" lon="25.995444">
<time>2020-09-12T09:29:12Z</time>
</trkpt>
<trkpt lat="61.106218" lon="25.995323">
<time>2020-09-12T09:29:13Z</time>
</trkpt>
<trkpt lat="61.106229" lon="25.995194">
<time>2020-09-12T09:29:14Z</time>
</trkpt>
<trkpt lat="61.106242" lon="25.995067">
<time>2020-09-12T09:29:15Z</time>
</trkpt>
<trkpt lat="61.106256" lon="25.994936">
<time>2020-09-12T09:29:16Z</time>
</trkpt>
<trkpt lat="61.106271" lon="25.99481">
<time>2020-09-12T09:29:17Z</time>
</trkpt>
<trkpt lat="61.106284" lon="25.99468">
<time>2020-09-12T09:29:18Z</time>
</trkpt>
<trkpt lat="61.106299" lon="25.994553">
<time>2020-09-12T09:29:19Z</time>
</trkpt>
<trkpt lat="61.106316" lon="25.994431">
<time>2020-09-12T09:29:20Z</time>
</trkpt>
<trkpt lat="61.106333" lon="25.994305">
<time>2020-09-12T09:29:21Z</time>
</trkpt>
<trkpt lat="61.106351" lon="25.994179">
<time>2020-09-12T09:29:22Z</time>
</trkpt>
<trkpt lat="61.106365" lon="25.994052">
<time>2020-09-12T09:29:23Z</time>
</trkpt>
<trkpt lat="61.106374" lon="25.993924">
<time>2020-09-12T09:29:24Z</time>
</trkpt>
<trkpt lat="61.106388" lon="25.993804">
<time>2020-09-12T09:29:25Z</time>
</trkpt>
<trkpt lat="61.10641" lon="25.993704">
<time>2020-09-12T09:29:26Z</time>
</trkpt>
<trkpt lat="61.106439" lon="25.993604">
<time>2020-09-12T09:29:27Z</time>
</trkpt>
<trkpt lat="61.106471" lon="25.993502">
<time>2020-09-12T09:29:28Z</time>
</trkpt>
<trkpt lat="61.1065" lon="25.993398">
<time>2020-09-12T09:29:29Z</time>
</trkpt>
<trkpt lat="61.106531" lon="25.993289">
<time>2020-09-12T09:29:30Z</time>
</trkpt>
<trkpt lat="61.10656" lon="25.993175">
<time>2020-09-12T09:29:31Z</time>
</trkpt>
<trkpt lat="61.106595" lon="25.993056">
<time>2020-09-12T09:29:32Z</time>
</trkpt>
<trkpt lat="61.106636" lon="25.992932">
<time>2020-09-12T09:29:33Z</time>
</trkpt>
<trkpt lat="61.106681" lon="25.992812">
<time>2020-09-12T09:29:34Z</time>
</trkpt>
<trkpt lat="61.106731" lon="25.992705">
<time>2020-09-12T09:29:35Z</time>
</trkpt>
<trkpt lat="61.106789" lon="25.992621">
<time>2020-09-12T09:29:36Z</time>
</trkpt>
<trkpt lat="61.106857" lon="25.99255">
<time>2020-09-12T09:29:37Z</time>
</trkpt>
<trkpt lat="61.106913" lon="25.992497">
<time>2020-09-12T09:29:38Z</time>
</trkpt>
<trkpt lat="61.106954" lon="25.992454">
<time>2020-09-12T09:29:39Z</time>
</trkpt>
<trkpt lat="61.106982" lon="25.992451">
<time>2020-09-12T09:29:40Z</time>
</trkpt>
<trkpt lat="61.107005" lon="25.992483">
<time>2020-09-12T09:29:41Z</time>
</trkpt>
<trkpt lat="61.107039" lon="25.992532">
<time>2020-09-12T09:29:42Z</time>
</trkpt>
<trkpt lat="61.107081" lon="25.992581">
<time>2020-09-12T09:29:43Z</time>
</trkpt>
<trkpt lat="61.107129" lon="25.992634">
<time>2020-09-12T09:29:44Z</time>
</trkpt>
<trkpt lat="61.10718" lon="25.992677">
<time>2020-09-12T09:29:45Z</time>
</trkpt>
<trkpt lat="61.107232" lon="25.992724">
<time>2020-09-12T09:29:46Z</time>
</trkpt>
<trkpt lat="61.107279" lon="25.992779">
<time>2020-09-12T09:29:47Z</time>
</trkpt>
<trkpt lat="61.107327" lon="25.992838">
<time>2020-09-12T09:29:48Z</time>
</trkpt>
<trkpt lat="61.107374" lon="25.992901">
<time>2020-09-12T09:29:49Z</time>
</trkpt>
<trkpt lat="61.107421" lon="25.992967">
<time>2020-09-12T09:29:50Z</time>
</trkpt>
<trkpt lat="61.107473" lon="25.993038">
<time>2020-09-12T09:29:51Z</time>
</trkpt>
<trkpt lat="61.107521" lon="25.993101">
<time>2020-09-12T09:29:52Z</time>
</trkpt>
<trkpt lat="61.107566" lon="25.993164">
<time>2020-09-12T09:29:53Z</time>
</trkpt>
<trkpt lat="61.10761" lon="25.993218">
<time>2020-09-12T09:29:54Z</time>
</trkpt>
<trkpt lat="61.107662" lon="25.99327">
<time>2020-09-12T09:29:55Z</time>
</trkpt>
<trkpt lat="61.107711" lon="25.993326">
<time>2020-09-12T09:29:56Z</time>
</trkpt>
<trkpt lat="61.107734" lon="25.993328">
<time>2020-09-12T09:29:57Z</time>
</trkpt>
<trkpt lat="61.107748" lon="25.993304">
<time>2020-09-12T09:29:58Z</time>
</trkpt>
<trkpt lat="61.107755" lon="25.993258">
<time>2020-09-12T09:29:59Z</time>
</trkpt>
<trkpt lat="61.107761" lon="25.993201">
<time>2020-09-12T09:30:00Z</time>
</trkpt>
<trkpt lat="61.107776" lon="25.993143">
<time>2020-09-12T09:30:01Z</time>
</trkpt>
<trkpt lat="61.107795" lon="25.993077">
<time>2020-09-12T09:30:02Z</time>
</trkpt>
<trkpt lat="61.107823" lon="25.993014">
<time>2020-09-12T09:30:03Z</time>
</trkpt>
<trkpt lat="61.107851" lon="25.992954">
<time>2020-09-12T09:30:04Z</time>
</trkpt>
<trkpt lat="61.107885" lon="25.992888">
<time>2020-09-12T09:30:05Z</time>
</trkpt>
<trkpt lat="61.107924" lon="25.992819">
<time>2020-09-12T09:30:06Z</time>
</trkpt>
<trkpt lat="61.10797" lon="25.992758">
<time>2020-09-12T09:30:07Z</time>
</trkpt>
<trkpt lat="61.10801" lon="25.992695">
<time>2020-09-12T09:30:08Z</time>
</trkpt>
<trkpt lat="61.108061" lon="25.992623">
<time>2020-09-12T09:30:09Z</time>
</trkpt>
<trkpt lat="61.10811" lon="25.992541">
<time>2020-09-12T09:30:10Z</time>
</trkpt>
<trkpt lat="61.108157" lon="25.992458">
<time>2020-09-12T09:30:11Z</time>
</trkpt>
<trkpt lat="61.108206" lon="25.992395">
<time>2020-09-12T09:30:12Z</time>
</trkpt>
<trkpt lat="61.108263" lon="25.992353">
<time>2020-09-12T09:30:13Z</time>
</trkpt>
<trkpt lat="61.108314" lon="25.992328">
<time>2020-09-12T09:30:14Z</time>
</trkpt>
<trkpt lat="61.108351" lon="25.992321">
<time>2020-09-12T09:30:15Z</time>
</trkpt>
<trkpt lat="61.108381" lon="25.992339">
<time>2020-09-12T09:30:16Z</time>
</trkpt>
<trkpt lat="61.108396" lon="25.992382">
<time>2020-09-12T09:30:17Z</time>
</trkpt>
<trkpt lat="61.108389" lon="25.992447">
<time>2020-09-12T09:30:18Z</time>
</trkpt>
<trkpt lat="61.108365" lon="25.992531">
<time>2020-09-12T09:30:19Z</time>
</trkpt>
<trkpt lat="61.108331" lon="25.992648">
<time>2020-09-12T09:30:20Z</time>
</trkpt>
<trkpt lat="61.1083" lon="25.992792">
<time>2020-09-12T09:30:21Z</time>
</trkpt>
<trkpt lat="61.108287" lon="25.992951">
<time>2020-09-12T09:30:22Z</time>
</trkpt>
<trkpt lat="61.10828" lon="25.993115">
<time>2020-09-12T09:30:23Z</time>
</trkpt>
<trkpt lat="61.108266" lon="25.993269">
<time>2020-09-12T09:30:24Z</time>
</trkpt>
<trkpt lat="61.108245" lon="25.99341">
<time>2020-09-12T09:30:25Z</time>
</trkpt>
<trkpt lat="61.108215" lon="25.993533">
<time>2020-09-12T09:30:26Z</time>
</trkpt>
<trkpt lat="61.108174" lon="25.993643">
<time>2020-09-12T09:30:27Z</time>
</trkpt>
<trkpt lat="61.108125" lon="25.993741">
<time>2020-09-12T09:30:28Z</time>
</trkpt>
<trkpt lat="61.108078" lon="25.993832">
<time>2020-09-12T09:30:29Z</time>
</trkpt>
<trkpt lat="61.108052" lon="25.993917">
<time>2020-09-12T09:30:30Z</time>
</trkpt>
<trkpt lat="61.108053" lon="25.993984">
<time>2020-09-12T09:30:31Z</time>
</trkpt>
<trkpt lat="61.108078" lon="25.994017">
<time>2020-09-12T09:30:32Z</time>
</trkpt>
<trkpt lat="61.108115" lon="25.994026">
<time>2020-09-12T09:30:33Z</time>
</trkpt>
<trkpt lat="61.108163" lon="25.994029">
<time>2020-09-12T09:30:34Z</time>
</trkpt>
<trkpt lat="61.108216" lon="25.994054">
<time>2020-09-12T09:30:35Z</time>
</trkpt>
<trkpt lat="61.108275" lon="25.994099">
<time>2020-09-12T09:30:36Z</time>
</trkpt>
<trkpt lat="61.108332" lon="25.994158">
<time>2020-09-12T09:30:37Z</time>
</trkpt>
<trkpt lat="61.10838" lon="25.994226">
<time>2020-09-12T09:30:38Z</time>
</trkpt>
<trkpt lat="61.108429" lon="25.994299">
<time>2020-09-12T09:30:39Z</time>
</trkpt>
<trkpt lat="61.108476" lon="25.994372">
<time>2020-09-12T09:30:40Z</time>
</trkpt>
<trkpt lat="61.108529" lon="25.994443">
<time>2020-09-12T09:30:41Z</time>
</trkpt>
<trkpt lat="61.108585" lon="25.99452">
<time>2020-09-12T09:30:42Z</time>
</trkpt>
<trkpt lat="61.108635" lon="25.99459">
<time>2020-09-12T09:30:43Z</time>
</trkpt>
<trkpt lat="61.108691" lon="25.994661">
<time>2020-09-12T09:30:44Z</time>
</trkpt>
<trkpt lat="61.108745" lon="25.994732">
<time>2020-09-12T09:30:45Z</time>
</trkpt>
<trkpt lat="61.108802" lon="25.9948">
<time>2020-09-12T09:30:46Z</time>
</trkpt>
<trkpt lat="61.108858" lon="25.994868">
<time>2020-09-12T09:30:47Z</time>
</trkpt>
<trkpt lat="61.108912" lon="25.994937">
<time>2020-09-12T09:30:48Z</time>
</trkpt>
<trkpt lat="61.108964" lon="25.995012">
<time>2020-09-12T09:30:49Z</time>
</trkpt>
<trkpt lat="61.109018" lon="25.995099">
<time>2020-09-12T09:30:50Z</time>
</trkpt>
<trkpt lat="61.109074" lon="25.995188">
<time>2020-09-12T09:30:51Z</time>
</trkpt>
<trkpt lat="61.109134" lon="25.995264">
<time>2020-09-12T09:30:52Z</time>
</trkpt>
<trkpt lat="61.109199" lon="25.995339">
<time>2020-09-12T09:30:53Z</time>
</trkpt>
<trkpt lat="61.109262" lon="25.995404">
<time>2020-09-12T09:30:54Z</time>
</trkpt>
<trkpt lat="61.109325" lon="25.995471">
<time>2020-09-12T09:30:55Z</time>
</trkpt>
<trkpt lat="61.10938" lon="25.995547">
<time>2020-09-12T09:30:56Z</time>
</trkpt>
<trkpt lat="61.109431" lon="25.995629">
<time>2020-09-12T09:30:57Z</time>
</trkpt>
<trkpt lat="61.109481" lon="25.995703">
<time>2020-09-12T09:30:58Z</time>
</trkpt>
<trkpt lat="61.109532" lon="25.995767">
<time>2020-09-12T09:30:59Z</time>
</trkpt>
<trkpt lat="61.109587" lon="25.995832">
<time>2020-09-12T09:31:00Z</time>
</trkpt>
<trkpt lat="61.10964" lon="25.99589">
<time>2020-09-12T09:31:01Z</time>
</trkpt>
<trkpt lat="61.109693" lon="25.995964">
<time>2020-09-12T09:31:02Z</time>
</trkpt>
<trkpt lat="61.109746" lon="25.996036">
<time>2020-09-12T09:31:03Z</time>
</trkpt>
<trkpt lat="61.109801" lon="25.99611">
<time>2020-09-12T09:31:04Z</time>
</trkpt>
<trkpt lat="61.109855" lon="25.99618">
<time>2020-09-12T09:31:05Z</time>
</trkpt>
<trkpt lat="61.109908" lon="25.996232">
<time>2020-09-12T09:31:06Z</time>
</trkpt>
<trkpt lat="61.109961" lon="25.996236">
<time>2020-09-12T09:31:07Z</time>
</trkpt>
<trkpt lat="61.110002" lon="25.99619">
<time>2020-09-12T09:31:08Z</time>
</trkpt>
<trkpt lat="61.110034" lon="25.996111">
<time>2020-09-12T09:31:09Z</time>
</trkpt>
<trkpt lat="61.110062" lon="25.996016">
<time>2020-09-12T09:31:10Z</time>
</trkpt>
<trkpt lat="61.110075" lon="25.995939">
<time>2020-09-12T09:31:11Z</time>
</trkpt>
<trkpt lat="61.110081" lon="25.995894">
<time>2020-09-12T09:31:12Z</time>
</trkpt>
<trkpt lat="61.110086" lon="25.99586">
<time>2020-09-12T09:31:13Z</time>
</trkpt>
<trkpt lat="61.110094" lon="25.99582">
<time>2020-09-12T09:31:14Z</time>
</trkpt>
<trkpt lat="61.11011" lon="25.995764">
<time>2020-09-12T09:31:15Z</time>
</trkpt>
<trkpt lat="61.110134" lon="25.995709">
<time>2020-09-12T09:31:16Z</time>
</trkpt>
<trkpt lat="61.110163" lon="25.995646">
<time>2020-09-12T09:31:17Z</time>
</trkpt>
<trkpt lat="61.110197" lon="25.995603">
<time>2020-09-12T09:31:18Z</time>
</trkpt>
<trkpt lat="61.110235" lon="25.995598">
<time>2020-09-12T09:31:19Z</time>
</trkpt>
<trkpt lat="61.110273" lon="25.995622">
<time>2020-09-12T09:31:20Z</time>
</trkpt>
<trkpt lat="61.110314" lon="25.995662">
<time>2020-09-12T09:31:21Z</time>
</trkpt>
<trkpt lat="61.110364" lon="25.995694">
<time>2020-09-12T09:31:22Z</time>
</trkpt>
<trkpt lat="61.110414" lon="25.995717">
<time>2020-09-12T09:31:23Z</time>
</trkpt>
<trkpt lat="61.110463" lon="25.995729">
<time>2020-09-12T09:31:24Z</time>
</trkpt>
<trkpt lat="61.110512" lon="25.99575">
<time>2020-09-12T09:31:25Z</time>
</trkpt>
<trkpt lat="61.110561" lon="25.995784">
<time>2020-09-12T09:31:26Z</time>
</trkpt>
<trkpt lat="61.110605" lon="25.995819">
<time>2020-09-12T09:31:27Z</time>
</trkpt>
<trkpt lat="61.110635" lon="25.995849">
<time>2020-09-12T09:31:28Z</time>
</trkpt>
<trkpt lat="61.110657" lon="25.995867">
<time>2020-09-12T09:31:29Z</time>
</trkpt>
<trkpt lat="61.110675" lon="25.99588">
<time>2020-09-12T09:31:30Z</time>
</trkpt>
<trkpt lat="61.110696" lon="25.995895">
<time>2020-09-12T09:31:31Z</time>
</trkpt>
<trkpt lat="61.110723" lon="25.995916">
<time>2020-09-12T09:31:32Z</time>
</trkpt>
<trkpt lat="61.110757" lon="25.995938">
<time>2020-09-12T09:31:33Z</time>
</trkpt>
<trkpt lat="61.11079" lon="25.995967">
<time>2020-09-12T09:31:34Z</time>
</trkpt>
<trkpt lat="61.110818" lon="25.996003">
<time>2020-09-12T09:31:35Z</time>
</trkpt>
<trkpt lat="61.110845" lon="25.996064">
<time>2020-09-12T09:31:36Z</time>
</trkpt>
<trkpt lat="61.110868" lon="25.996126">
<time>2020-09-12T09:31:37Z</time>
</trkpt>
<trkpt lat="61.110881" lon="25.996204">
<time>2020-09-12T09:31:38Z</time>
</trkpt>
<trkpt lat="61.110881" lon="25.9963">
<time>2020-09-12T09:31:39Z</time>
</trkpt>
<trkpt lat="61.110889" lon="25.996402">
<time>2020-09-12T09:31:40Z</time>
</trkpt>
<trkpt lat="61.110908" lon="25.996486">
<time>2020-09-12T09:31:41Z</time>
</trkpt>
<trkpt lat="61.110927" lon="25.996538">
<time>2020-09-12T09:31:42Z</time>
</trkpt>
<trkpt lat="61.110947" lon="25.996567">
<time>2020-09-12T09:31:43Z</time>
</trkpt>
<trkpt lat="61.110972" lon="25.996592">
<time>2020-09-12T09:31:44Z</time>
</trkpt>
<trkpt lat="61.111003" lon="25.996623">
<time>2020-09-12T09:31:45Z</time>
</trkpt>
<trkpt lat="61.111038" lon="25.996669">
<time>2020-09-12T09:31:46Z</time>
</trkpt>
<trkpt lat="61.111072" lon="25.996723">
<time>2020-09-12T09:31:47Z</time>
</trkpt>
<trkpt lat="61.111105" lon="25.996778">
<time>2020-09-12T09:31:48Z</time>
</trkpt>
<trkpt lat="61.111128" lon="25.996833">
<time>2020-09-12T09:31:49Z</time>
</trkpt>
<trkpt lat="61.111147" lon="25.99688">
<time>2020-09-12T09:31:50Z</time>
</trkpt>
<trkpt lat="61.111161" lon="25.996925">
<time>2020-09-12T09:31:51Z</time>
</trkpt>
<trkpt lat="61.111177" lon="25.996975">
<time>2020-09-12T09:31:52Z</time>
</trkpt>
<trkpt lat="61.111192" lon="25.997043">
<time>2020-09-12T09:31:53Z</time>
</trkpt>
<trkpt lat="61.111211" lon="25.997115">
<time>2020-09-12T09:31:54Z</time>
</trkpt>
<trkpt lat="61.111231" lon="25.997183">
<time>2020-09-12T09:31:55Z</time>
</trkpt>
<trkpt lat="61.111251" lon="25.997222">
<time>2020-09-12T09:31:56Z</time>
</trkpt>
<trkpt lat="61.111275" lon="25.997245">
<time>2020-09-12T09:31:57Z</time>
</trkpt>
<trkpt lat="61.111298" lon="25.997267">
<time>2020-09-12T09:31:58Z</time>
</trkpt>
<trkpt lat="61.111316" lon="25.997292">
<time>2020-09-12T09:31:59Z</time>
</trkpt>
<trkpt lat="61.111326" lon="25.997329">
<time>2020-09-12T09:32:00Z</time>
</trkpt>
<trkpt lat="61.11133" lon="25.997369">
<time>2020-09-12T09:32:01Z</time>
</trkpt>
<trkpt lat="61.111331" lon="25.997407">
<time>2020-09-12T09:32:02Z</time>
</trkpt>
<trkpt lat="61.111332" lon="25.997432">
<time>2020-09-12T09:32:03Z</time>
</trkpt>
<trkpt lat="61.111334" lon="25.997444">
<time>2020-09-12T09:32:04Z</time>
</trkpt>
<trkpt lat="61.111332" lon="25.997458">
<time>2020-09-12T09:32:05Z</time>
</trkpt>
<trkpt lat="61.111332" lon="25.99748">
<time>2020-09-12T09:32:06Z</time>
</trkpt>
<trkpt lat="61.111338" lon="25.997496">
<time>2020-09-12T09:32:07Z</time>
</trkpt>
<trkpt lat="61.11135" lon="25.99751">
<time>2020-09-12T09:32:08Z</time>
</trkpt>
<trkpt lat="61.111365" lon="25.997524">
<time>2020-09-12T09:32:09Z</time>
</trkpt>
<trkpt lat="61.111382" lon="25.997536">
<time>2020-09-12T09:32:10Z</time>
</trkpt>
<trkpt lat="61.111404" lon="25.997552">
<time>2020-09-12T09:32:11Z</time>
</trkpt>
<trkpt lat="61.111433" lon="25.997569">
<time>2020-09-12T09:32:12Z</time>
</trkpt>
<trkpt lat="61.111462" lon="25.997574">
<time>2020-09-12T09:32:13Z</time>
</trkpt>
<trkpt lat="61.111486" lon="25.997583">
<time>2020-09-12T09:32:14Z</time>
</trkpt>
<trkpt lat="61.111517" lon="25.997602">
<time>2020-09-12T09:32:15Z</time>
</trkpt>
<trkpt lat="61.111539" lon="25.997621">
<time>2020-09-12T09:32:16Z</time>
</trkpt>
<trkpt lat="61.11156" lon="25.997643">
<time>2020-09-12T09:32:17Z</time>
</trkpt>
<trkpt lat="61.11158" lon="25.997679">
<time>2020-09-12T09:32:18Z</time>
</trkpt>
<trkpt lat="61.111596" lon="25.997719">
<time>2020-09-12T09:32:19Z</time>
</trkpt>
<trkpt lat="61.111616" lon="25.997771">
<time>2020-09-12T09:32:20Z</time>
</trkpt>
<trkpt lat="61.111636" lon="25.997834">
<time>2020-09-12T09:32:21Z</time>
</trkpt>
<trkpt lat="61.111652" lon="25.997892">
<time>2020-09-12T09:32:22Z</time>
</trkpt>
<trkpt lat="61.111664" lon="25.997949">
<time>2020-09-12T09:32:23Z</time>
</trkpt>
<trkpt lat="61.111679" lon="25.998014">
<time>2020-09-12T09:32:24Z</time>
</trkpt>
<trkpt lat="61.111687" lon="25.998086">
<time>2020-09-12T09:32:25Z</time>
</trkpt>
<trkpt lat="61.111695" lon="25.998144">
<time>2020-09-12T09:32:26Z</time>
</trkpt>
<trkpt lat="61.111702" lon="25.9982">
<time>2020-09-12T09:32:27Z</time>
</trkpt>
<trkpt lat="61.111709" lon="25.998258">
<time>2020-09-12T09:32:28Z</time>
</trkpt>
<trkpt lat="61.111707" lon="25.99831">
<time>2020-09-12T09:32:29Z</time>
</trkpt>
<trkpt lat="61.111701" lon="25.998359">
<time>2020-09-12T09:32:30Z</time>
</trkpt>
<trkpt lat="61.111687" lon="25.998403">
<time>2020-09-12T09:32:31Z</time>
</trkpt>
<trkpt lat="61.111664" lon="25.998441">
<time>2020-09-12T09:32:32Z</time>
</trkpt>
<trkpt lat="61.111642" lon="25.998486">
<time>2020-09-12T09:32:33Z</time>
</trkpt>
<trkpt lat="61.111623" lon="25.998531">
<time>2020-09-12T09:32:34Z</time>
</trkpt>
<trkpt lat="61.111614" lon="25.998595">
<time>2020-09-12T09:32:35Z</time>
</trkpt>
<trkpt lat="61.111615" lon="25.998667">
<time>2020-09-12T09:32:36Z</time>
</trkpt>
<trkpt lat="61.111617" lon="25.998741">
<time>2020-09-12T09:32:37Z</time>
</trkpt>
<trkpt lat="61.111616" lon="25.998823">
<time>2020-09-12T09:32:38Z</time>
</trkpt>
<trkpt lat="61.111614" lon="25.998907">
<time>2020-09-12T09:32:39Z</time>
</trkpt>
<trkpt lat="61.111601" lon="25.998997">
<time>2020-09-12T09:32:40Z</time>
</trkpt>
<trkpt lat="61.11158" lon="25.999072">
<time>2020-09-12T09:32:41Z</time>
</trkpt>
<trkpt lat="61.111561" lon="25.999142">
<time>2020-09-12T09:32:42Z</time>
</trkpt>
<trkpt lat="61.111549" lon="25.999226">
<time>2020-09-12T09:32:43Z</time>
</trkpt>
<trkpt lat="61.111542" lon="25.999322">
<time>2020-09-12T09:32:44Z</time>
</trkpt>
<trkpt lat="61.111533" lon="25.999406">
<time>2020-09-12T09:32:45Z</time>
</trkpt>
<trkpt lat="61.111516" lon="25.999504">
<time>2020-09-12T09:32:46Z</time>
</trkpt>
<trkpt lat="61.1115" lon="25.999571">
<time>2020-09-12T09:32:47Z</time>
</trkpt>
<trkpt lat="61.111479" lon="25.999637">
<time>2020-09-12T09:32:48Z</time>
</trkpt>
<trkpt lat="61.111458" lon="25.999698">
<time>2020-09-12T09:32:49Z</time>
</trkpt>
<trkpt lat="61.111429" lon="25.999741">
<time>2020-09-12T09:32:50Z</time>
</trkpt>
<trkpt lat="61.111394" lon="25.999762">
<time>2020-09-12T09:32:51Z</time>
</trkpt>
<trkpt lat="61.111346" lon="25.999784">
<time>2020-09-12T09:32:52Z</time>
</trkpt>
<trkpt lat="61.111295" lon="25.999803">
<time>2020-09-12T09:32:53Z</time>
</trkpt>
<trkpt lat="61.111245" lon="25.999838">
<time>2020-09-12T09:32:54Z</time>
</trkpt>
<trkpt lat="61.111202" lon="25.999891">
<time>2020-09-12T09:32:55Z</time>
</trkpt>
<trkpt lat="61.111163" lon="25.999958">
<time>2020-09-12T09:32:56Z</time>
</trkpt>
<trkpt lat="61.111125" lon="26.000018">
<time>2020-09-12T09:32:57Z</time>
</trkpt>
<trkpt lat="61.11109" lon="26.000041">
<time>2020-09-12T09:32:58Z</time>
</trkpt>
<trkpt lat="61.111052" lon="26.000028">
<time>2020-09-12T09:32:59Z</time>
</trkpt>
<trkpt lat="61.111013" lon="25.999993">
<time>2020-09-12T09:33:00Z</time>
</trkpt>
<trkpt lat="61.110965" lon="25.999952">
<time>2020-09-12T09:33:01Z</time>
</trkpt>
<trkpt lat="61.110912" lon="25.999932">
<time>2020-09-12T09:33:02Z</time>
</trkpt>
<trkpt lat="61.110855" lon="25.99996">
<time>2020-09-12T09:33:03Z</time>
</trkpt>
<trkpt lat="61.110807" lon="26.000026">
<time>2020-09-12T09:33:04Z</time>
</trkpt>
<trkpt lat="61.11077" lon="26.00013">
<time>2020-09-12T09:33:05Z</time>
</trkpt>
<trkpt lat="61.110744" lon="26.000248">
<time>2020-09-12T09:33:06Z</time>
</trkpt>
<trkpt lat="61.110723" lon="26.000378">
<time>2020-09-12T09:33:07Z</time>
</trkpt>
<trkpt lat="61.110712" lon="26.000514">
<time>2020-09-12T09:33:08Z</time>
</trkpt>
<trkpt lat="61.110709" lon="26.000661">
<time>2020-09-12T09:33:09Z</time>
</trkpt>
<trkpt lat="61.110712" lon="26.000807">
<time>2020-09-12T09:33:10Z</time>
</trkpt>
<trkpt lat="61.11072" lon="26.000946">
<time>2020-09-12T09:33:11Z</time>
</trkpt>
<trkpt lat="61.110733" lon="26.001076">
<time>2020-09-12T09:33:12Z</time>
</trkpt>
<trkpt lat="61.110744" lon="26.001203">
<time>2020-09-12T09:33:13Z</time>
</trkpt>
<trkpt lat="61.110751" lon="26.001318">
<time>2020-09-12T09:33:14Z</time>
</trkpt>
<trkpt lat="61.110758" lon="26.001428">
<time>2020-09-12T09:33:15Z</time>
</trkpt>
<trkpt lat="61.110766" lon="26.00153">
<time>2020-09-12T09:33:16Z</time>
</trkpt>
<trkpt lat="61.110778" lon="26.001631">
<time>2020-09-12T09:33:17Z</time>
</trkpt>
<trkpt lat="61.110793" lon="26.001725">
<time>2020-09-12T09:33:18Z</time>
</trkpt>
<trkpt lat="61.11081" lon="26.001818">
<time>2020-09-12T09:33:19Z</time>
</trkpt>
<trkpt lat="61.110828" lon="26.001924">
<time>2020-09-12T09:33:20Z</time>
</trkpt>
<trkpt lat="61.110846" lon="26.002036">
<time>2020-09-12T09:33:21Z</time>
</trkpt>
<trkpt lat="61.110861" lon="26.002155">
<time>2020-09-12T09:33:22Z</time>
</trkpt>
<trkpt lat="61.110881" lon="26.00228">
<time>2020-09-12T09:33:23Z</time>
</trkpt>
<trkpt lat="61.110907" lon="26.002397">
<time>2020-09-12T09:33:24Z</time>
</trkpt>
<trkpt lat="61.110935" lon="26.002511">
<time>2020-09-12T09:33:25Z</time>
</trkpt>
<trkpt lat="61.110959" lon="26.002624">
<time>2020-09-12T09:33:26Z</time>
</trkpt>
<trkpt lat="61.11098" lon="26.002745">
<time>2020-09-12T09:33:27Z</time>
</trkpt>
<trkpt lat="61.111" lon="26.00287">
<time>2020-09-12T09:33:28Z</time>
</trkpt>
<trkpt lat="61.111015" lon="26.003007">
<time>2020-09-12T09:33:29Z</time>
</trkpt>
<trkpt lat="61.111031" lon="26.003139">
<time>2020-09-12T09:33:30Z</time>
</trkpt>
<trkpt lat="61.111052" lon="26.003271">
<time>2020-09-12T09:33:31Z</time>
</trkpt>
<trkpt lat="61.11108" lon="26.0034">
<time>2020-09-12T09:33:32Z</time>
</trkpt>
<trkpt lat="61.111111" lon="26.003526">
<time>2020-09-12T09:33:33Z</time>
</trkpt>
<trkpt lat="61.111147" lon="26.003648">
<time>2020-09-12T09:33:34Z</time>
</trkpt>
<trkpt lat="61.111189" lon="26.003773">
<time>2020-09-12T09:33:35Z</time>
</trkpt>
<trkpt lat="61.111237" lon="26.00389">
<time>2020-09-12T09:33:36Z</time>
</trkpt>
<trkpt lat="61.111292" lon="26.003986">
<time>2020-09-12T09:33:37Z</time>
</trkpt>
<trkpt lat="61.111354" lon="26.004058">
<time>2020-09-12T09:33:38Z</time>
</trkpt>
<trkpt lat="61.111414" lon="26.004133">
<time>2020-09-12T09:33:39Z</time>
</trkpt>
<trkpt lat="61.111464" lon="26.004224">
<time>2020-09-12T09:33:40Z</time>
</trkpt>
<trkpt lat="61.111503" lon="26.004345">
<time>2020-09-12T09:33:41Z</time>
</trkpt>
<trkpt lat="61.111544" lon="26.004484">
<time>2020-09-12T09:33:42Z</time>
</trkpt>
<trkpt lat="61.111585" lon="26.004631">
<time>2020-09-12T09:33:43Z</time>
</trkpt>
<trkpt lat="61.111627" lon="26.004778">
<time>2020-09-12T09:33:44Z</time>
</trkpt>
<trkpt lat="61.111669" lon="26.004933">
<time>2020-09-12T09:33:45Z</time>
</trkpt>
<trkpt lat="61.111715" lon="26.005093">
<time>2020-09-12T09:33:46Z</time>
</trkpt>
<trkpt lat="61.111764" lon="26.005247">
<time>2020-09-12T09:33:47Z</time>
</trkpt>
<trkpt lat="61.111825" lon="26.005389">
<time>2020-09-12T09:33:48Z</time>
</trkpt>
<trkpt lat="61.111892" lon="26.005521">
<time>2020-09-12T09:33:49Z</time>
</trkpt>
<trkpt lat="61.111961" lon="26.005642">
<time>2020-09-12T09:33:50Z</time>
</trkpt>
<trkpt lat="61.112032" lon="26.005757">
<time>2020-09-12T09:33:51Z</time>
</trkpt>
<trkpt lat="61.112106" lon="26.005863">
<time>2020-09-12T09:33:52Z</time>
</trkpt>
<trkpt lat="61.112182" lon="26.005961">
<time>2020-09-12T09:33:53Z</time>
</trkpt>
<trkpt lat="61.112258" lon="26.006062">
<time>2020-09-12T09:33:54Z</time>
</trkpt>
<trkpt lat="61.11232" lon="26.006169">
<time>2020-09-12T09:33:55Z</time>
</trkpt>
<trkpt lat="61.112355" lon="26.006301">
<time>2020-09-12T09:33:56Z</time>
</trkpt>
<trkpt lat="61.112363" lon="26.006456">
<time>2020-09-12T09:33:57Z</time>
</trkpt>
<trkpt lat="61.112356" lon="26.006624">
<time>2020-09-12T09:33:58Z</time>
</trkpt>
<trkpt lat="61.112335" lon="26.006794">
<time>2020-09-12T09:33:59Z</time>
</trkpt>
<trkpt lat="61.112312" lon="26.006956">
<time>2020-09-12T09:34:00Z</time>
</trkpt>
<trkpt lat="61.11229" lon="26.007108">
<time>2020-09-12T09:34:01Z</time>
</trkpt>
<trkpt lat="61.112275" lon="26.007246">
<time>2020-09-12T09:34:02Z</time>
</trkpt>
<trkpt lat="61.112277" lon="26.007374">
<time>2020-09-12T09:34:03Z</time>
</trkpt>
<trkpt lat="61.112305" lon="26.00746">
<time>2020-09-12T09:34:04Z</time>
</trkpt>
<trkpt lat="61.112361" lon="26.007507">
<time>2020-09-12T09:34:05Z</time>
</trkpt>
<trkpt lat="61.112432" lon="26.007531">
<time>2020-09-12T09:34:06Z</time>
</trkpt>
<trkpt lat="61.112509" lon="26.007563">
<time>2020-09-12T09:34:07Z</time>
</trkpt>
<trkpt lat="61.112581" lon="26.007628">
<time>2020-09-12T09:34:08Z</time>
</trkpt>
<trkpt lat="61.112651" lon="26.007737">
<time>2020-09-12T09:34:09Z</time>
</trkpt>
<trkpt lat="61.112709" lon="26.007871">
<time>2020-09-12T09:34:10Z</time>
</trkpt>
<trkpt lat="61.112747" lon="26.008026">
<time>2020-09-12T09:34:11Z</time>
</trkpt>
<trkpt lat="61.112758" lon="26.0082">
<time>2020-09-12T09:34:12Z</time>
</trkpt>
<trkpt lat="61.112754" lon="26.008382">
<time>2020-09-12T09:34:13Z</time>
</trkpt>
<trkpt lat="61.112733" lon="26.008565">
<time>2020-09-12T09:34:14Z</time>
</trkpt>
<trkpt lat="61.112696" lon="26.008744">
<time>2020-09-12T09:34:15Z</time>
</trkpt>
<trkpt lat="61.112644" lon="26.008915">
<time>2020-09-12T09:34:16Z</time>
</trkpt>
<trkpt lat="61.112588" lon="26.009078">
<time>2020-09-12T09:34:17Z</time>
</trkpt>
<trkpt lat="61.112528" lon="26.009231">
<time>2020-09-12T09:34:18Z</time>
</trkpt>
<trkpt lat="61.11247" lon="26.009359">
<time>2020-09-12T09:34:19Z</time>
</trkpt>
<trkpt lat="61.112422" lon="26.009457">
<time>2020-09-12T09:34:20Z</time>
</trkpt>
<trkpt lat="61.112398" lon="26.009543">
<time>2020-09-12T09:34:21Z</time>
</trkpt>
<trkpt lat="61.112398" lon="26.009603">
<time>2020-09-12T09:34:22Z</time>
</trkpt>
<trkpt lat="61.112404" lon="26.009624">
<time>2020-09-12T09:34:23Z</time>
</trkpt>
</trkseg>
<name>Antonio</name>
</trk>
</gpx>